<?xml version="1.0" encoding="UTF-8" standalone="no" ?>
<gpx xmlns="http://www.topografix.com/GPX/1/1" xmlns:xsi="http://www.w3.org/2001/XMLSchema-instance" xsi:schemaLocation="http://www.topografix.com/GPX/1/1 http://www.topografix.com/GPX/1/1/gpx.xsd" version="1.1" creator="VisuGPX - https://www.visugpx.com">
  <metadata>
    <name>réunion_dos d\'âne aurère_dos d\'âne montée par bras des merles</name>
    <desc><![CDATA[Une superbe rando qui sort de l\'ordinaire de part la progression dans le bras des merles, paysages sauvages et grandiose. Attention toutefois, ce sentier étant fermé actuellement, réserver cette rando aux marcheurs entrainés;]]></desc>
  </metadata>
  <trk>
    <name><![CDATA[2013-09-06-01_dos d ane aurere par le bras des merles_unified]]></name>
    <trkseg>
      <trkpt lat="-20.98211" lon="55.37646">
        <ele>942.9</ele>
        <time>2013-09-06T03:39:17Z</time>
      </trkpt>
      <trkpt lat="-20.98205" lon="55.3764">
        <ele>942.7</ele>
        <time>2013-09-06T03:39:51Z</time>
      </trkpt>
      <trkpt lat="-20.982" lon="55.37633">
        <ele>942.9</ele>
        <time>2013-09-06T03:39:59Z</time>
      </trkpt>
      <trkpt lat="-20.98198" lon="55.37624">
        <ele>942.6</ele>
        <time>2013-09-06T03:40:08Z</time>
      </trkpt>
      <trkpt lat="-20.98203" lon="55.37616">
        <ele>942.2</ele>
        <time>2013-09-06T03:40:16Z</time>
      </trkpt>
      <trkpt lat="-20.9821" lon="55.3761">
        <ele>941.5</ele>
        <time>2013-09-06T03:40:25Z</time>
      </trkpt>
      <trkpt lat="-20.98217" lon="55.37605">
        <ele>941.7</ele>
        <time>2013-09-06T03:40:32Z</time>
      </trkpt>
      <trkpt lat="-20.98224" lon="55.37599">
        <ele>941</ele>
        <time>2013-09-06T03:40:38Z</time>
      </trkpt>
      <trkpt lat="-20.98228" lon="55.37591">
        <ele>940.8</ele>
        <time>2013-09-06T03:40:45Z</time>
      </trkpt>
      <trkpt lat="-20.98228" lon="55.37582">
        <ele>940.4</ele>
        <time>2013-09-06T03:40:52Z</time>
      </trkpt>
      <trkpt lat="-20.98227" lon="55.37573">
        <ele>939.4</ele>
        <time>2013-09-06T03:40:58Z</time>
      </trkpt>
      <trkpt lat="-20.98225" lon="55.37565">
        <ele>938.7</ele>
        <time>2013-09-06T03:41:05Z</time>
      </trkpt>
      <trkpt lat="-20.98224" lon="55.37556">
        <ele>935.9</ele>
        <time>2013-09-06T03:41:13Z</time>
      </trkpt>
      <trkpt lat="-20.98221" lon="55.37547">
        <ele>935</ele>
        <time>2013-09-06T03:41:20Z</time>
      </trkpt>
      <trkpt lat="-20.98217" lon="55.37539">
        <ele>934.5</ele>
        <time>2013-09-06T03:41:26Z</time>
      </trkpt>
      <trkpt lat="-20.98214" lon="55.37531">
        <ele>931.8</ele>
        <time>2013-09-06T03:41:32Z</time>
      </trkpt>
      <trkpt lat="-20.98212" lon="55.37522">
        <ele>930.5</ele>
        <time>2013-09-06T03:41:39Z</time>
      </trkpt>
      <trkpt lat="-20.98212" lon="55.37513">
        <ele>928.9</ele>
        <time>2013-09-06T03:41:45Z</time>
      </trkpt>
      <trkpt lat="-20.98211" lon="55.37504">
        <ele>927.3</ele>
        <time>2013-09-06T03:41:51Z</time>
      </trkpt>
      <trkpt lat="-20.98209" lon="55.37495">
        <ele>925.6</ele>
        <time>2013-09-06T03:41:57Z</time>
      </trkpt>
      <trkpt lat="-20.98206" lon="55.37488">
        <ele>923.6</ele>
        <time>2013-09-06T03:42:03Z</time>
      </trkpt>
      <trkpt lat="-20.98202" lon="55.3748">
        <ele>923</ele>
        <time>2013-09-06T03:42:09Z</time>
      </trkpt>
      <trkpt lat="-20.98198" lon="55.37471">
        <ele>921.9</ele>
        <time>2013-09-06T03:42:16Z</time>
      </trkpt>
      <trkpt lat="-20.98196" lon="55.37462">
        <ele>919.5</ele>
        <time>2013-09-06T03:42:22Z</time>
      </trkpt>
      <trkpt lat="-20.98194" lon="55.37454">
        <ele>918.6</ele>
        <time>2013-09-06T03:42:27Z</time>
      </trkpt>
      <trkpt lat="-20.98191" lon="55.37446">
        <ele>917.2</ele>
        <time>2013-09-06T03:42:32Z</time>
      </trkpt>
      <trkpt lat="-20.98186" lon="55.37439">
        <ele>915.6</ele>
        <time>2013-09-06T03:42:38Z</time>
      </trkpt>
      <trkpt lat="-20.98182" lon="55.37432">
        <ele>915.4</ele>
        <time>2013-09-06T03:42:44Z</time>
      </trkpt>
      <trkpt lat="-20.98178" lon="55.37424">
        <ele>914.3</ele>
        <time>2013-09-06T03:42:51Z</time>
      </trkpt>
      <trkpt lat="-20.98173" lon="55.37417">
        <ele>914.2</ele>
        <time>2013-09-06T03:42:57Z</time>
      </trkpt>
      <trkpt lat="-20.98169" lon="55.37408">
        <ele>912.2</ele>
        <time>2013-09-06T03:43:08Z</time>
      </trkpt>
      <trkpt lat="-20.98177" lon="55.37406">
        <ele>907.1</ele>
        <time>2013-09-06T03:43:37Z</time>
      </trkpt>
      <trkpt lat="-20.98186" lon="55.37407">
        <ele>905.3</ele>
        <time>2013-09-06T03:43:44Z</time>
      </trkpt>
      <trkpt lat="-20.98193" lon="55.37404">
        <ele>905.4</ele>
        <time>2013-09-06T03:43:49Z</time>
      </trkpt>
      <trkpt lat="-20.982" lon="55.37401">
        <ele>904.8</ele>
        <time>2013-09-06T03:43:55Z</time>
      </trkpt>
      <trkpt lat="-20.98208" lon="55.37398">
        <ele>904.4</ele>
        <time>2013-09-06T03:44:01Z</time>
      </trkpt>
      <trkpt lat="-20.98215" lon="55.37395">
        <ele>905.2</ele>
        <time>2013-09-06T03:44:07Z</time>
      </trkpt>
      <trkpt lat="-20.98223" lon="55.37393">
        <ele>905.4</ele>
        <time>2013-09-06T03:44:13Z</time>
      </trkpt>
      <trkpt lat="-20.98231" lon="55.3739">
        <ele>906</ele>
        <time>2013-09-06T03:44:19Z</time>
      </trkpt>
      <trkpt lat="-20.98238" lon="55.37386">
        <ele>907.7</ele>
        <time>2013-09-06T03:44:25Z</time>
      </trkpt>
      <trkpt lat="-20.98245" lon="55.37382">
        <ele>908.6</ele>
        <time>2013-09-06T03:44:30Z</time>
      </trkpt>
      <trkpt lat="-20.98253" lon="55.37386">
        <ele>908.6</ele>
        <time>2013-09-06T03:44:39Z</time>
      </trkpt>
      <trkpt lat="-20.98257" lon="55.37394">
        <ele>909.6</ele>
        <time>2013-09-06T03:44:48Z</time>
      </trkpt>
      <trkpt lat="-20.98264" lon="55.37399">
        <ele>907.8</ele>
        <time>2013-09-06T03:45:29Z</time>
      </trkpt>
      <trkpt lat="-20.98272" lon="55.37404">
        <ele>907.1</ele>
        <time>2013-09-06T03:46:16Z</time>
      </trkpt>
      <trkpt lat="-20.98276" lon="55.37411">
        <ele>903.6</ele>
        <time>2013-09-06T03:46:27Z</time>
      </trkpt>
      <trkpt lat="-20.98279" lon="55.37419">
        <ele>901.3</ele>
        <time>2013-09-06T03:46:41Z</time>
      </trkpt>
      <trkpt lat="-20.98284" lon="55.37426">
        <ele>898.4</ele>
        <time>2013-09-06T03:46:49Z</time>
      </trkpt>
      <trkpt lat="-20.98288" lon="55.37434">
        <ele>895.4</ele>
        <time>2013-09-06T03:46:58Z</time>
      </trkpt>
      <trkpt lat="-20.98294" lon="55.37429">
        <ele>891.6</ele>
        <time>2013-09-06T03:47:13Z</time>
      </trkpt>
      <trkpt lat="-20.98295" lon="55.37437">
        <ele>884.9</ele>
        <time>2013-09-06T03:47:36Z</time>
      </trkpt>
      <trkpt lat="-20.98297" lon="55.37446">
        <ele>881.2</ele>
        <time>2013-09-06T03:47:51Z</time>
      </trkpt>
      <trkpt lat="-20.98301" lon="55.37454">
        <ele>878.2</ele>
        <time>2013-09-06T03:48:02Z</time>
      </trkpt>
      <trkpt lat="-20.98307" lon="55.3746">
        <ele>877</ele>
        <time>2013-09-06T03:48:10Z</time>
      </trkpt>
      <trkpt lat="-20.98312" lon="55.37465">
        <ele>878.2</ele>
        <time>2013-09-06T03:48:18Z</time>
      </trkpt>
      <trkpt lat="-20.98317" lon="55.37472">
        <ele>879.1</ele>
        <time>2013-09-06T03:48:26Z</time>
      </trkpt>
      <trkpt lat="-20.9832" lon="55.37482">
        <ele>878.2</ele>
        <time>2013-09-06T03:48:34Z</time>
      </trkpt>
      <trkpt lat="-20.98323" lon="55.3749">
        <ele>878</ele>
        <time>2013-09-06T03:48:44Z</time>
      </trkpt>
      <trkpt lat="-20.98328" lon="55.37494">
        <ele>877.5</ele>
        <time>2013-09-06T03:48:47Z</time>
      </trkpt>
      <trkpt lat="-20.98334" lon="55.37499">
        <ele>877.6</ele>
        <time>2013-09-06T03:48:51Z</time>
      </trkpt>
      <trkpt lat="-20.98339" lon="55.37506">
        <ele>877.2</ele>
        <time>2013-09-06T03:48:56Z</time>
      </trkpt>
      <trkpt lat="-20.98342" lon="55.37515">
        <ele>878.3</ele>
        <time>2013-09-06T03:49:02Z</time>
      </trkpt>
      <trkpt lat="-20.9835" lon="55.37519">
        <ele>878.1</ele>
        <time>2013-09-06T03:49:08Z</time>
      </trkpt>
      <trkpt lat="-20.98357" lon="55.37515">
        <ele>878.6</ele>
        <time>2013-09-06T03:49:14Z</time>
      </trkpt>
      <trkpt lat="-20.98365" lon="55.37516">
        <ele>877.6</ele>
        <time>2013-09-06T03:49:19Z</time>
      </trkpt>
      <trkpt lat="-20.98373" lon="55.37519">
        <ele>876.4</ele>
        <time>2013-09-06T03:49:28Z</time>
      </trkpt>
      <trkpt lat="-20.98381" lon="55.37522">
        <ele>874.5</ele>
        <time>2013-09-06T03:49:35Z</time>
      </trkpt>
      <trkpt lat="-20.98389" lon="55.37526">
        <ele>873.1</ele>
        <time>2013-09-06T03:49:42Z</time>
      </trkpt>
      <trkpt lat="-20.98395" lon="55.37532">
        <ele>871.1</ele>
        <time>2013-09-06T03:49:54Z</time>
      </trkpt>
      <trkpt lat="-20.98401" lon="55.37537">
        <ele>868.8</ele>
        <time>2013-09-06T03:50:03Z</time>
      </trkpt>
      <trkpt lat="-20.98407" lon="55.37542">
        <ele>868.6</ele>
        <time>2013-09-06T03:50:11Z</time>
      </trkpt>
      <trkpt lat="-20.98414" lon="55.37547">
        <ele>868.1</ele>
        <time>2013-09-06T03:50:18Z</time>
      </trkpt>
      <trkpt lat="-20.98422" lon="55.37551">
        <ele>867.5</ele>
        <time>2013-09-06T03:50:27Z</time>
      </trkpt>
      <trkpt lat="-20.98423" lon="55.3756">
        <ele>866.9</ele>
        <time>2013-09-06T03:50:33Z</time>
      </trkpt>
      <trkpt lat="-20.98427" lon="55.37568">
        <ele>866.5</ele>
        <time>2013-09-06T03:50:39Z</time>
      </trkpt>
      <trkpt lat="-20.98434" lon="55.37574">
        <ele>867.9</ele>
        <time>2013-09-06T03:50:46Z</time>
      </trkpt>
      <trkpt lat="-20.98442" lon="55.37575">
        <ele>868.3</ele>
        <time>2013-09-06T03:50:54Z</time>
      </trkpt>
      <trkpt lat="-20.9845" lon="55.37573">
        <ele>869.5</ele>
        <time>2013-09-06T03:51:07Z</time>
      </trkpt>
      <trkpt lat="-20.98458" lon="55.37578">
        <ele>871.4</ele>
        <time>2013-09-06T03:51:20Z</time>
      </trkpt>
      <trkpt lat="-20.98464" lon="55.37584">
        <ele>872.7</ele>
        <time>2013-09-06T03:51:29Z</time>
      </trkpt>
      <trkpt lat="-20.9847" lon="55.3759">
        <ele>872.6</ele>
        <time>2013-09-06T03:51:36Z</time>
      </trkpt>
      <trkpt lat="-20.98477" lon="55.37595">
        <ele>871.9</ele>
        <time>2013-09-06T03:51:41Z</time>
      </trkpt>
      <trkpt lat="-20.98483" lon="55.37601">
        <ele>871.2</ele>
        <time>2013-09-06T03:51:48Z</time>
      </trkpt>
      <trkpt lat="-20.9849" lon="55.37604">
        <ele>870.6</ele>
        <time>2013-09-06T03:51:54Z</time>
      </trkpt>
      <trkpt lat="-20.98497" lon="55.37608">
        <ele>869.4</ele>
        <time>2013-09-06T03:52:00Z</time>
      </trkpt>
      <trkpt lat="-20.98503" lon="55.37612">
        <ele>869</ele>
        <time>2013-09-06T03:52:06Z</time>
      </trkpt>
      <trkpt lat="-20.9851" lon="55.37618">
        <ele>868.4</ele>
        <time>2013-09-06T03:52:14Z</time>
      </trkpt>
      <trkpt lat="-20.98516" lon="55.37622">
        <ele>866.4</ele>
        <time>2013-09-06T03:52:19Z</time>
      </trkpt>
      <trkpt lat="-20.98525" lon="55.37624">
        <ele>866.1</ele>
        <time>2013-09-06T03:52:28Z</time>
      </trkpt>
      <trkpt lat="-20.98532" lon="55.37627">
        <ele>864.3</ele>
        <time>2013-09-06T03:52:37Z</time>
      </trkpt>
      <trkpt lat="-20.98539" lon="55.37632">
        <ele>863.5</ele>
        <time>2013-09-06T03:52:43Z</time>
      </trkpt>
      <trkpt lat="-20.98547" lon="55.3763">
        <ele>862.5</ele>
        <time>2013-09-06T03:52:51Z</time>
      </trkpt>
      <trkpt lat="-20.98553" lon="55.37623">
        <ele>863.3</ele>
        <time>2013-09-06T03:52:58Z</time>
      </trkpt>
      <trkpt lat="-20.98559" lon="55.3763">
        <ele>863.3</ele>
        <time>2013-09-06T03:53:35Z</time>
      </trkpt>
      <trkpt lat="-20.98552" lon="55.3762">
        <ele>862</ele>
        <time>2013-09-06T03:53:53Z</time>
      </trkpt>
      <trkpt lat="-20.98546" lon="55.37612">
        <ele>862</ele>
        <time>2013-09-06T03:54:03Z</time>
      </trkpt>
      <trkpt lat="-20.98578" lon="55.37628">
        <ele>862</ele>
        <time>2013-09-06T03:54:31Z</time>
      </trkpt>
      <trkpt lat="-20.98568" lon="55.37638">
        <ele>863.6</ele>
        <time>2013-09-06T03:54:35Z</time>
      </trkpt>
      <trkpt lat="-20.98573" lon="55.37631">
        <ele>864.6</ele>
        <time>2013-09-06T03:54:38Z</time>
      </trkpt>
      <trkpt lat="-20.98577" lon="55.37623">
        <ele>865.3</ele>
        <time>2013-09-06T03:54:44Z</time>
      </trkpt>
      <trkpt lat="-20.98579" lon="55.37614">
        <ele>866.2</ele>
        <time>2013-09-06T03:54:54Z</time>
      </trkpt>
      <trkpt lat="-20.98587" lon="55.3761">
        <ele>869.4</ele>
        <time>2013-09-06T03:55:06Z</time>
      </trkpt>
      <trkpt lat="-20.98592" lon="55.37602">
        <ele>869.8</ele>
        <time>2013-09-06T03:55:15Z</time>
      </trkpt>
      <trkpt lat="-20.986" lon="55.376">
        <ele>868.2</ele>
        <time>2013-09-06T03:55:24Z</time>
      </trkpt>
      <trkpt lat="-20.98608" lon="55.37603">
        <ele>867.3</ele>
        <time>2013-09-06T03:55:31Z</time>
      </trkpt>
      <trkpt lat="-20.98616" lon="55.37606">
        <ele>864.2</ele>
        <time>2013-09-06T03:55:39Z</time>
      </trkpt>
      <trkpt lat="-20.98624" lon="55.37602">
        <ele>863.4</ele>
        <time>2013-09-06T03:55:44Z</time>
      </trkpt>
      <trkpt lat="-20.9863" lon="55.37597">
        <ele>862.9</ele>
        <time>2013-09-06T03:55:50Z</time>
      </trkpt>
      <trkpt lat="-20.98635" lon="55.37589">
        <ele>860.6</ele>
        <time>2013-09-06T03:55:57Z</time>
      </trkpt>
      <trkpt lat="-20.98643" lon="55.37585">
        <ele>858</ele>
        <time>2013-09-06T03:56:06Z</time>
      </trkpt>
      <trkpt lat="-20.98635" lon="55.37586">
        <ele>851.1</ele>
        <time>2013-09-06T03:56:30Z</time>
      </trkpt>
      <trkpt lat="-20.98642" lon="55.37586">
        <ele>844.4</ele>
        <time>2013-09-06T03:56:52Z</time>
      </trkpt>
      <trkpt lat="-20.9865" lon="55.37583">
        <ele>843</ele>
        <time>2013-09-06T03:56:58Z</time>
      </trkpt>
      <trkpt lat="-20.98659" lon="55.37582">
        <ele>840.8</ele>
        <time>2013-09-06T03:57:08Z</time>
      </trkpt>
      <trkpt lat="-20.98667" lon="55.3758">
        <ele>838.1</ele>
        <time>2013-09-06T03:57:20Z</time>
      </trkpt>
      <trkpt lat="-20.98675" lon="55.37584">
        <ele>835.8</ele>
        <time>2013-09-06T03:57:26Z</time>
      </trkpt>
      <trkpt lat="-20.98681" lon="55.37588">
        <ele>835</ele>
        <time>2013-09-06T03:57:31Z</time>
      </trkpt>
      <trkpt lat="-20.98688" lon="55.37593">
        <ele>833.3</ele>
        <time>2013-09-06T03:57:39Z</time>
      </trkpt>
      <trkpt lat="-20.98697" lon="55.37593">
        <ele>829.8</ele>
        <time>2013-09-06T03:57:50Z</time>
      </trkpt>
      <trkpt lat="-20.98704" lon="55.37589">
        <ele>827.3</ele>
        <time>2013-09-06T03:57:57Z</time>
      </trkpt>
      <trkpt lat="-20.98713" lon="55.37588">
        <ele>826.1</ele>
        <time>2013-09-06T03:58:04Z</time>
      </trkpt>
      <trkpt lat="-20.9872" lon="55.37593">
        <ele>825.2</ele>
        <time>2013-09-06T03:58:10Z</time>
      </trkpt>
      <trkpt lat="-20.98725" lon="55.37599">
        <ele>825.8</ele>
        <time>2013-09-06T03:58:18Z</time>
      </trkpt>
      <trkpt lat="-20.98731" lon="55.37607">
        <ele>822.6</ele>
        <time>2013-09-06T03:58:26Z</time>
      </trkpt>
      <trkpt lat="-20.98738" lon="55.37611">
        <ele>821.4</ele>
        <time>2013-09-06T03:58:32Z</time>
      </trkpt>
      <trkpt lat="-20.98747" lon="55.37612">
        <ele>813.4</ele>
        <time>2013-09-06T03:58:56Z</time>
      </trkpt>
      <trkpt lat="-20.98755" lon="55.3761">
        <ele>811.2</ele>
        <time>2013-09-06T03:59:04Z</time>
      </trkpt>
      <trkpt lat="-20.98755" lon="55.37601">
        <ele>805.4</ele>
        <time>2013-09-06T03:59:21Z</time>
      </trkpt>
      <trkpt lat="-20.98757" lon="55.37592">
        <ele>792.9</ele>
        <time>2013-09-06T04:00:03Z</time>
      </trkpt>
      <trkpt lat="-20.98765" lon="55.37589">
        <ele>787.8</ele>
        <time>2013-09-06T04:00:26Z</time>
      </trkpt>
      <trkpt lat="-20.98774" lon="55.37589">
        <ele>788.2</ele>
        <time>2013-09-06T04:00:34Z</time>
      </trkpt>
      <trkpt lat="-20.98782" lon="55.37592">
        <ele>788.1</ele>
        <time>2013-09-06T04:00:43Z</time>
      </trkpt>
      <trkpt lat="-20.9879" lon="55.37596">
        <ele>785.5</ele>
        <time>2013-09-06T04:00:53Z</time>
      </trkpt>
      <trkpt lat="-20.98798" lon="55.376">
        <ele>780.3</ele>
        <time>2013-09-06T04:01:10Z</time>
      </trkpt>
      <trkpt lat="-20.98806" lon="55.37598">
        <ele>777.2</ele>
        <time>2013-09-06T04:01:18Z</time>
      </trkpt>
      <trkpt lat="-20.98814" lon="55.37594">
        <ele>777</ele>
        <time>2013-09-06T04:01:24Z</time>
      </trkpt>
      <trkpt lat="-20.98821" lon="55.37599">
        <ele>777.6</ele>
        <time>2013-09-06T04:01:31Z</time>
      </trkpt>
      <trkpt lat="-20.98826" lon="55.37605">
        <ele>776.7</ele>
        <time>2013-09-06T04:01:37Z</time>
      </trkpt>
      <trkpt lat="-20.98834" lon="55.3761">
        <ele>775.7</ele>
        <time>2013-09-06T04:01:46Z</time>
      </trkpt>
      <trkpt lat="-20.98842" lon="55.37608">
        <ele>774.2</ele>
        <time>2013-09-06T04:01:52Z</time>
      </trkpt>
      <trkpt lat="-20.9885" lon="55.37607">
        <ele>772.7</ele>
        <time>2013-09-06T04:01:58Z</time>
      </trkpt>
      <trkpt lat="-20.98843" lon="55.37601">
        <ele>757.3</ele>
        <time>2013-09-06T04:02:41Z</time>
      </trkpt>
      <trkpt lat="-20.98834" lon="55.37601">
        <ele>753.4</ele>
        <time>2013-09-06T04:02:52Z</time>
      </trkpt>
      <trkpt lat="-20.98833" lon="55.37592">
        <ele>751.9</ele>
        <time>2013-09-06T04:03:00Z</time>
      </trkpt>
      <trkpt lat="-20.98839" lon="55.37585">
        <ele>749.1</ele>
        <time>2013-09-06T04:03:12Z</time>
      </trkpt>
      <trkpt lat="-20.98847" lon="55.37587">
        <ele>745.3</ele>
        <time>2013-09-06T04:03:26Z</time>
      </trkpt>
      <trkpt lat="-20.98856" lon="55.37585">
        <ele>741.8</ele>
        <time>2013-09-06T04:03:34Z</time>
      </trkpt>
      <trkpt lat="-20.98863" lon="55.37581">
        <ele>739.8</ele>
        <time>2013-09-06T04:03:42Z</time>
      </trkpt>
      <trkpt lat="-20.98871" lon="55.37582">
        <ele>736</ele>
        <time>2013-09-06T04:03:53Z</time>
      </trkpt>
      <trkpt lat="-20.98878" lon="55.37588">
        <ele>732.7</ele>
        <time>2013-09-06T04:04:03Z</time>
      </trkpt>
      <trkpt lat="-20.98884" lon="55.37595">
        <ele>729.8</ele>
        <time>2013-09-06T04:04:20Z</time>
      </trkpt>
      <trkpt lat="-20.98891" lon="55.3759">
        <ele>719.4</ele>
        <time>2013-09-06T04:04:51Z</time>
      </trkpt>
      <trkpt lat="-20.98895" lon="55.37582">
        <ele>717.7</ele>
        <time>2013-09-06T04:04:59Z</time>
      </trkpt>
      <trkpt lat="-20.98892" lon="55.37574">
        <ele>714.7</ele>
        <time>2013-09-06T04:05:08Z</time>
      </trkpt>
      <trkpt lat="-20.98888" lon="55.37566">
        <ele>712</ele>
        <time>2013-09-06T04:05:18Z</time>
      </trkpt>
      <trkpt lat="-20.98894" lon="55.37571">
        <ele>706.3</ele>
        <time>2013-09-06T04:05:37Z</time>
      </trkpt>
      <trkpt lat="-20.98903" lon="55.37572">
        <ele>700.4</ele>
        <time>2013-09-06T04:05:56Z</time>
      </trkpt>
      <trkpt lat="-20.98902" lon="55.37563">
        <ele>693.3</ele>
        <time>2013-09-06T04:06:16Z</time>
      </trkpt>
      <trkpt lat="-20.98897" lon="55.37556">
        <ele>691.2</ele>
        <time>2013-09-06T04:06:26Z</time>
      </trkpt>
      <trkpt lat="-20.98906" lon="55.37554">
        <ele>683.3</ele>
        <time>2013-09-06T04:06:55Z</time>
      </trkpt>
      <trkpt lat="-20.98914" lon="55.37555">
        <ele>680</ele>
        <time>2013-09-06T04:07:07Z</time>
      </trkpt>
      <trkpt lat="-20.9891" lon="55.37546">
        <ele>672.7</ele>
        <time>2013-09-06T04:07:31Z</time>
      </trkpt>
      <trkpt lat="-20.98905" lon="55.37539">
        <ele>667.4</ele>
        <time>2013-09-06T04:07:51Z</time>
      </trkpt>
      <trkpt lat="-20.98896" lon="55.37537">
        <ele>664.3</ele>
        <time>2013-09-06T04:08:05Z</time>
      </trkpt>
      <trkpt lat="-20.98904" lon="55.37533">
        <ele>658.9</ele>
        <time>2013-09-06T04:08:29Z</time>
      </trkpt>
      <trkpt lat="-20.98912" lon="55.37531">
        <ele>655.7</ele>
        <time>2013-09-06T04:08:39Z</time>
      </trkpt>
      <trkpt lat="-20.98921" lon="55.3753">
        <ele>654.1</ele>
        <time>2013-09-06T04:08:47Z</time>
      </trkpt>
      <trkpt lat="-20.98928" lon="55.37532">
        <ele>652.2</ele>
        <time>2013-09-06T04:08:56Z</time>
      </trkpt>
      <trkpt lat="-20.98935" lon="55.37536">
        <ele>651</ele>
        <time>2013-09-06T04:09:04Z</time>
      </trkpt>
      <trkpt lat="-20.98939" lon="55.37545">
        <ele>644.6</ele>
        <time>2013-09-06T04:09:27Z</time>
      </trkpt>
      <trkpt lat="-20.98946" lon="55.3755">
        <ele>641.6</ele>
        <time>2013-09-06T04:09:38Z</time>
      </trkpt>
      <trkpt lat="-20.98947" lon="55.37559">
        <ele>635.5</ele>
        <time>2013-09-06T04:09:55Z</time>
      </trkpt>
      <trkpt lat="-20.9894" lon="55.37563">
        <ele>633.1</ele>
        <time>2013-09-06T04:10:02Z</time>
      </trkpt>
      <trkpt lat="-20.98933" lon="55.37566">
        <ele>630.8</ele>
        <time>2013-09-06T04:10:07Z</time>
      </trkpt>
      <trkpt lat="-20.9893" lon="55.37575">
        <ele>629.3</ele>
        <time>2013-09-06T04:10:13Z</time>
      </trkpt>
      <trkpt lat="-20.98932" lon="55.37583">
        <ele>628.7</ele>
        <time>2013-09-06T04:10:20Z</time>
      </trkpt>
      <trkpt lat="-20.98938" lon="55.37589">
        <ele>628.3</ele>
        <time>2013-09-06T04:10:25Z</time>
      </trkpt>
      <trkpt lat="-20.98943" lon="55.37595">
        <ele>627.8</ele>
        <time>2013-09-06T04:10:29Z</time>
      </trkpt>
      <trkpt lat="-20.9895" lon="55.376">
        <ele>627.1</ele>
        <time>2013-09-06T04:10:34Z</time>
      </trkpt>
      <trkpt lat="-20.98955" lon="55.37608">
        <ele>625.9</ele>
        <time>2013-09-06T04:10:41Z</time>
      </trkpt>
      <trkpt lat="-20.98958" lon="55.37616">
        <ele>625.4</ele>
        <time>2013-09-06T04:10:47Z</time>
      </trkpt>
      <trkpt lat="-20.98962" lon="55.37624">
        <ele>624</ele>
        <time>2013-09-06T04:10:54Z</time>
      </trkpt>
      <trkpt lat="-20.98966" lon="55.37632">
        <ele>623.6</ele>
        <time>2013-09-06T04:11:01Z</time>
      </trkpt>
      <trkpt lat="-20.98972" lon="55.37638">
        <ele>621.8</ele>
        <time>2013-09-06T04:11:11Z</time>
      </trkpt>
      <trkpt lat="-20.9898" lon="55.37642">
        <ele>621.3</ele>
        <time>2013-09-06T04:11:20Z</time>
      </trkpt>
      <trkpt lat="-20.98986" lon="55.37651">
        <ele>618</ele>
        <time>2013-09-06T04:11:32Z</time>
      </trkpt>
      <trkpt lat="-20.98989" lon="55.37659">
        <ele>617.7</ele>
        <time>2013-09-06T04:11:41Z</time>
      </trkpt>
      <trkpt lat="-20.98989" lon="55.37668">
        <ele>619.9</ele>
        <time>2013-09-06T04:11:52Z</time>
      </trkpt>
      <trkpt lat="-20.98985" lon="55.37676">
        <ele>622.8</ele>
        <time>2013-09-06T04:12:03Z</time>
      </trkpt>
      <trkpt lat="-20.98979" lon="55.37683">
        <ele>622.4</ele>
        <time>2013-09-06T04:12:13Z</time>
      </trkpt>
      <trkpt lat="-20.98984" lon="55.3769">
        <ele>622</ele>
        <time>2013-09-06T04:12:21Z</time>
      </trkpt>
      <trkpt lat="-20.98991" lon="55.37693">
        <ele>623.2</ele>
        <time>2013-09-06T04:12:26Z</time>
      </trkpt>
      <trkpt lat="-20.98999" lon="55.37691">
        <ele>622.2</ele>
        <time>2013-09-06T04:12:31Z</time>
      </trkpt>
      <trkpt lat="-20.99013" lon="55.37693">
        <ele>623</ele>
        <time>2013-09-06T04:12:40Z</time>
      </trkpt>
      <trkpt lat="-20.99021" lon="55.377">
        <ele>625</ele>
        <time>2013-09-06T04:12:48Z</time>
      </trkpt>
      <trkpt lat="-20.99031" lon="55.37701">
        <ele>627.1</ele>
        <time>2013-09-06T04:12:58Z</time>
      </trkpt>
      <trkpt lat="-20.99036" lon="55.37709">
        <ele>627.7</ele>
        <time>2013-09-06T04:13:16Z</time>
      </trkpt>
      <trkpt lat="-20.99043" lon="55.37715">
        <ele>626.7</ele>
        <time>2013-09-06T04:13:24Z</time>
      </trkpt>
      <trkpt lat="-20.99051" lon="55.37719">
        <ele>627</ele>
        <time>2013-09-06T04:13:33Z</time>
      </trkpt>
      <trkpt lat="-20.99055" lon="55.37728">
        <ele>626.9</ele>
        <time>2013-09-06T04:13:42Z</time>
      </trkpt>
      <trkpt lat="-20.99052" lon="55.37737">
        <ele>623.4</ele>
        <time>2013-09-06T04:14:03Z</time>
      </trkpt>
      <trkpt lat="-20.99054" lon="55.3775">
        <ele>621</ele>
        <time>2013-09-06T04:14:16Z</time>
      </trkpt>
      <trkpt lat="-20.99067" lon="55.37756">
        <ele>622</ele>
        <time>2013-09-06T04:14:24Z</time>
      </trkpt>
      <trkpt lat="-20.99076" lon="55.37763">
        <ele>623</ele>
        <time>2013-09-06T04:14:32Z</time>
      </trkpt>
      <trkpt lat="-20.99085" lon="55.3777">
        <ele>624</ele>
        <time>2013-09-06T04:14:44Z</time>
      </trkpt>
      <trkpt lat="-20.99096" lon="55.37771">
        <ele>624</ele>
        <time>2013-09-06T04:14:56Z</time>
      </trkpt>
      <trkpt lat="-20.99102" lon="55.3778">
        <ele>625</ele>
        <time>2013-09-06T04:15:04Z</time>
      </trkpt>
      <trkpt lat="-20.99115" lon="55.37778">
        <ele>629</ele>
        <time>2013-09-06T04:15:18Z</time>
      </trkpt>
      <trkpt lat="-20.99125" lon="55.37773">
        <ele>630</ele>
        <time>2013-09-06T04:15:31Z</time>
      </trkpt>
      <trkpt lat="-20.99134" lon="55.37773">
        <ele>632</ele>
        <time>2013-09-06T04:15:38Z</time>
      </trkpt>
      <trkpt lat="-20.99136" lon="55.37764">
        <ele>632.1</ele>
        <time>2013-09-06T04:15:44Z</time>
      </trkpt>
      <trkpt lat="-20.99145" lon="55.37764">
        <ele>634.2</ele>
        <time>2013-09-06T04:15:58Z</time>
      </trkpt>
      <trkpt lat="-20.99149" lon="55.37772">
        <ele>634.9</ele>
        <time>2013-09-06T04:16:05Z</time>
      </trkpt>
      <trkpt lat="-20.99156" lon="55.37777">
        <ele>636.3</ele>
        <time>2013-09-06T04:16:11Z</time>
      </trkpt>
      <trkpt lat="-20.99163" lon="55.37781">
        <ele>636.7</ele>
        <time>2013-09-06T04:16:17Z</time>
      </trkpt>
      <trkpt lat="-20.99172" lon="55.37782">
        <ele>636.4</ele>
        <time>2013-09-06T04:16:23Z</time>
      </trkpt>
      <trkpt lat="-20.99179" lon="55.37777">
        <ele>635.9</ele>
        <time>2013-09-06T04:16:31Z</time>
      </trkpt>
      <trkpt lat="-20.99186" lon="55.37772">
        <ele>635.9</ele>
        <time>2013-09-06T04:16:37Z</time>
      </trkpt>
      <trkpt lat="-20.99195" lon="55.37771">
        <ele>636.8</ele>
        <time>2013-09-06T04:16:46Z</time>
      </trkpt>
      <trkpt lat="-20.99203" lon="55.3777">
        <ele>636.3</ele>
        <time>2013-09-06T04:16:51Z</time>
      </trkpt>
      <trkpt lat="-20.9921" lon="55.37771">
        <ele>636.7</ele>
        <time>2013-09-06T04:16:57Z</time>
      </trkpt>
      <trkpt lat="-20.99218" lon="55.37771">
        <ele>637.3</ele>
        <time>2013-09-06T04:17:02Z</time>
      </trkpt>
      <trkpt lat="-20.99226" lon="55.37773">
        <ele>636.7</ele>
        <time>2013-09-06T04:17:08Z</time>
      </trkpt>
      <trkpt lat="-20.99234" lon="55.37773">
        <ele>638.7</ele>
        <time>2013-09-06T04:17:14Z</time>
      </trkpt>
      <trkpt lat="-20.99242" lon="55.3777">
        <ele>639.4</ele>
        <time>2013-09-06T04:17:20Z</time>
      </trkpt>
      <trkpt lat="-20.99251" lon="55.37769">
        <ele>640.3</ele>
        <time>2013-09-06T04:17:27Z</time>
      </trkpt>
      <trkpt lat="-20.99258" lon="55.37764">
        <ele>642.3</ele>
        <time>2013-09-06T04:17:34Z</time>
      </trkpt>
      <trkpt lat="-20.99266" lon="55.37761">
        <ele>645.4</ele>
        <time>2013-09-06T04:17:45Z</time>
      </trkpt>
      <trkpt lat="-20.99275" lon="55.37763">
        <ele>647.2</ele>
        <time>2013-09-06T04:17:58Z</time>
      </trkpt>
      <trkpt lat="-20.99281" lon="55.37769">
        <ele>642.7</ele>
        <time>2013-09-06T04:18:17Z</time>
      </trkpt>
      <trkpt lat="-20.99284" lon="55.37777">
        <ele>635.3</ele>
        <time>2013-09-06T04:18:45Z</time>
      </trkpt>
      <trkpt lat="-20.99289" lon="55.37785">
        <ele>635.7</ele>
        <time>2013-09-06T04:18:57Z</time>
      </trkpt>
      <trkpt lat="-20.99297" lon="55.37789">
        <ele>635.6</ele>
        <time>2013-09-06T04:19:04Z</time>
      </trkpt>
      <trkpt lat="-20.99304" lon="55.37794">
        <ele>635.4</ele>
        <time>2013-09-06T04:19:10Z</time>
      </trkpt>
      <trkpt lat="-20.99312" lon="55.37798">
        <ele>635.6</ele>
        <time>2013-09-06T04:19:16Z</time>
      </trkpt>
      <trkpt lat="-20.99317" lon="55.37806">
        <ele>633.8</ele>
        <time>2013-09-06T04:19:27Z</time>
      </trkpt>
      <trkpt lat="-20.99323" lon="55.37813">
        <ele>631.5</ele>
        <time>2013-09-06T04:19:36Z</time>
      </trkpt>
      <trkpt lat="-20.9933" lon="55.37819">
        <ele>629.6</ele>
        <time>2013-09-06T04:19:47Z</time>
      </trkpt>
      <trkpt lat="-20.99334" lon="55.37827">
        <ele>630.8</ele>
        <time>2013-09-06T04:19:58Z</time>
      </trkpt>
      <trkpt lat="-20.9934" lon="55.37832">
        <ele>631.7</ele>
        <time>2013-09-06T04:20:04Z</time>
      </trkpt>
      <trkpt lat="-20.99348" lon="55.37836">
        <ele>631.8</ele>
        <time>2013-09-06T04:20:12Z</time>
      </trkpt>
      <trkpt lat="-20.99355" lon="55.37841">
        <ele>628.7</ele>
        <time>2013-09-06T04:20:21Z</time>
      </trkpt>
      <trkpt lat="-20.99363" lon="55.37844">
        <ele>627.9</ele>
        <time>2013-09-06T04:20:29Z</time>
      </trkpt>
      <trkpt lat="-20.99371" lon="55.37844">
        <ele>626.5</ele>
        <time>2013-09-06T04:20:37Z</time>
      </trkpt>
      <trkpt lat="-20.9938" lon="55.37845">
        <ele>624.4</ele>
        <time>2013-09-06T04:20:45Z</time>
      </trkpt>
      <trkpt lat="-20.99389" lon="55.37845">
        <ele>623.5</ele>
        <time>2013-09-06T04:20:52Z</time>
      </trkpt>
      <trkpt lat="-20.99397" lon="55.37848">
        <ele>620.2</ele>
        <time>2013-09-06T04:21:06Z</time>
      </trkpt>
      <trkpt lat="-20.99402" lon="55.37841">
        <ele>616.2</ele>
        <time>2013-09-06T04:21:25Z</time>
      </trkpt>
      <trkpt lat="-20.99409" lon="55.37836">
        <ele>605.9</ele>
        <time>2013-09-06T04:22:01Z</time>
      </trkpt>
      <trkpt lat="-20.99411" lon="55.37845">
        <ele>600.5</ele>
        <time>2013-09-06T04:22:16Z</time>
      </trkpt>
      <trkpt lat="-20.9941" lon="55.37854">
        <ele>596.9</ele>
        <time>2013-09-06T04:22:29Z</time>
      </trkpt>
      <trkpt lat="-20.99417" lon="55.37859">
        <ele>594.6</ele>
        <time>2013-09-06T04:22:37Z</time>
      </trkpt>
      <trkpt lat="-20.99423" lon="55.37866">
        <ele>593.8</ele>
        <time>2013-09-06T04:22:45Z</time>
      </trkpt>
      <trkpt lat="-20.99427" lon="55.37875">
        <ele>590.2</ele>
        <time>2013-09-06T04:22:56Z</time>
      </trkpt>
      <trkpt lat="-20.99423" lon="55.37882">
        <ele>590.2</ele>
        <time>2013-09-06T04:23:07Z</time>
      </trkpt>
      <trkpt lat="-20.99415" lon="55.37885">
        <ele>590.1</ele>
        <time>2013-09-06T04:23:11Z</time>
      </trkpt>
      <trkpt lat="-20.99408" lon="55.37889">
        <ele>590.8</ele>
        <time>2013-09-06T04:23:16Z</time>
      </trkpt>
      <trkpt lat="-20.99403" lon="55.37897">
        <ele>590.3</ele>
        <time>2013-09-06T04:23:24Z</time>
      </trkpt>
      <trkpt lat="-20.99406" lon="55.37905">
        <ele>588.3</ele>
        <time>2013-09-06T04:23:33Z</time>
      </trkpt>
      <trkpt lat="-20.99411" lon="55.37913">
        <ele>585.7</ele>
        <time>2013-09-06T04:23:42Z</time>
      </trkpt>
      <trkpt lat="-20.99414" lon="55.37921">
        <ele>584.5</ele>
        <time>2013-09-06T04:23:48Z</time>
      </trkpt>
      <trkpt lat="-20.99407" lon="55.37926">
        <ele>583.2</ele>
        <time>2013-09-06T04:23:53Z</time>
      </trkpt>
      <trkpt lat="-20.99401" lon="55.37929">
        <ele>582.9</ele>
        <time>2013-09-06T04:23:55Z</time>
      </trkpt>
      <trkpt lat="-20.99394" lon="55.37933">
        <ele>582.3</ele>
        <time>2013-09-06T04:23:58Z</time>
      </trkpt>
      <trkpt lat="-20.99388" lon="55.3794">
        <ele>582.2</ele>
        <time>2013-09-06T04:24:02Z</time>
      </trkpt>
      <trkpt lat="-20.99392" lon="55.37947">
        <ele>582.8</ele>
        <time>2013-09-06T04:24:08Z</time>
      </trkpt>
      <trkpt lat="-20.99397" lon="55.37954">
        <ele>582.6</ele>
        <time>2013-09-06T04:24:14Z</time>
      </trkpt>
      <trkpt lat="-20.99395" lon="55.37963">
        <ele>582.9</ele>
        <time>2013-09-06T04:24:21Z</time>
      </trkpt>
      <trkpt lat="-20.99391" lon="55.3797">
        <ele>583.7</ele>
        <time>2013-09-06T04:24:25Z</time>
      </trkpt>
      <trkpt lat="-20.99389" lon="55.3798">
        <ele>582.5</ele>
        <time>2013-09-06T04:24:31Z</time>
      </trkpt>
      <trkpt lat="-20.9939" lon="55.37989">
        <ele>582.7</ele>
        <time>2013-09-06T04:24:42Z</time>
      </trkpt>
      <trkpt lat="-20.99387" lon="55.37997">
        <ele>583.6</ele>
        <time>2013-09-06T04:24:50Z</time>
      </trkpt>
      <trkpt lat="-20.99384" lon="55.38006">
        <ele>584.5</ele>
        <time>2013-09-06T04:24:58Z</time>
      </trkpt>
      <trkpt lat="-20.99387" lon="55.38015">
        <ele>584.9</ele>
        <time>2013-09-06T04:25:09Z</time>
      </trkpt>
      <trkpt lat="-20.99389" lon="55.38024">
        <ele>584.4</ele>
        <time>2013-09-06T04:25:20Z</time>
      </trkpt>
      <trkpt lat="-20.99386" lon="55.38032">
        <ele>585.5</ele>
        <time>2013-09-06T04:25:27Z</time>
      </trkpt>
      <trkpt lat="-20.99384" lon="55.3804">
        <ele>585.8</ele>
        <time>2013-09-06T04:25:36Z</time>
      </trkpt>
      <trkpt lat="-20.99387" lon="55.38048">
        <ele>584.6</ele>
        <time>2013-09-06T04:25:45Z</time>
      </trkpt>
      <trkpt lat="-20.9939" lon="55.38057">
        <ele>583.8</ele>
        <time>2013-09-06T04:25:52Z</time>
      </trkpt>
      <trkpt lat="-20.9939" lon="55.38066">
        <ele>583.2</ele>
        <time>2013-09-06T04:26:03Z</time>
      </trkpt>
      <trkpt lat="-20.99386" lon="55.38074">
        <ele>583.7</ele>
        <time>2013-09-06T04:26:14Z</time>
      </trkpt>
      <trkpt lat="-20.99384" lon="55.38084">
        <ele>585</ele>
        <time>2013-09-06T04:26:25Z</time>
      </trkpt>
      <trkpt lat="-20.99385" lon="55.38093">
        <ele>586.7</ele>
        <time>2013-09-06T04:26:32Z</time>
      </trkpt>
      <trkpt lat="-20.99391" lon="55.38099">
        <ele>586.7</ele>
        <time>2013-09-06T04:26:41Z</time>
      </trkpt>
      <trkpt lat="-20.994" lon="55.38103">
        <ele>586.9</ele>
        <time>2013-09-06T04:26:48Z</time>
      </trkpt>
      <trkpt lat="-20.99407" lon="55.38106">
        <ele>587.4</ele>
        <time>2013-09-06T04:26:57Z</time>
      </trkpt>
      <trkpt lat="-20.99412" lon="55.38113">
        <ele>589.1</ele>
        <time>2013-09-06T04:27:08Z</time>
      </trkpt>
      <trkpt lat="-20.9942" lon="55.38111">
        <ele>591.4</ele>
        <time>2013-09-06T04:27:18Z</time>
      </trkpt>
      <trkpt lat="-20.99425" lon="55.38118">
        <ele>593.5</ele>
        <time>2013-09-06T04:27:25Z</time>
      </trkpt>
      <trkpt lat="-20.99418" lon="55.38123">
        <ele>594.1</ele>
        <time>2013-09-06T04:27:30Z</time>
      </trkpt>
      <trkpt lat="-20.99422" lon="55.38131">
        <ele>594.7</ele>
        <time>2013-09-06T04:27:39Z</time>
      </trkpt>
      <trkpt lat="-20.99429" lon="55.38136">
        <ele>592.7</ele>
        <time>2013-09-06T04:27:48Z</time>
      </trkpt>
      <trkpt lat="-20.99436" lon="55.38142">
        <ele>589.6</ele>
        <time>2013-09-06T04:27:59Z</time>
      </trkpt>
      <trkpt lat="-20.99441" lon="55.38148">
        <ele>588.5</ele>
        <time>2013-09-06T04:28:06Z</time>
      </trkpt>
      <trkpt lat="-20.99448" lon="55.38152">
        <ele>588.4</ele>
        <time>2013-09-06T04:28:12Z</time>
      </trkpt>
      <trkpt lat="-20.99455" lon="55.38157">
        <ele>588.7</ele>
        <time>2013-09-06T04:29:24Z</time>
      </trkpt>
      <trkpt lat="-20.99464" lon="55.38157">
        <ele>569.6</ele>
        <time>2013-09-06T04:31:41Z</time>
      </trkpt>
      <trkpt lat="-20.99472" lon="55.38153">
        <ele>565.1</ele>
        <time>2013-09-06T04:31:59Z</time>
      </trkpt>
      <trkpt lat="-20.99477" lon="55.38146">
        <ele>560.6</ele>
        <time>2013-09-06T04:32:25Z</time>
      </trkpt>
      <trkpt lat="-20.99481" lon="55.38154">
        <ele>552.1</ele>
        <time>2013-09-06T04:33:07Z</time>
      </trkpt>
      <trkpt lat="-20.9948" lon="55.38163">
        <ele>548.1</ele>
        <time>2013-09-06T04:33:24Z</time>
      </trkpt>
      <trkpt lat="-20.99477" lon="55.38173">
        <ele>542</ele>
        <time>2013-09-06T04:33:43Z</time>
      </trkpt>
      <trkpt lat="-20.9949" lon="55.38178">
        <ele>539</ele>
        <time>2013-09-06T04:33:55Z</time>
      </trkpt>
      <trkpt lat="-20.99499" lon="55.38185">
        <ele>537</ele>
        <time>2013-09-06T04:34:03Z</time>
      </trkpt>
      <trkpt lat="-20.99507" lon="55.38187">
        <ele>531.1</ele>
        <time>2013-09-06T04:34:22Z</time>
      </trkpt>
      <trkpt lat="-20.99516" lon="55.38191">
        <ele>526</ele>
        <time>2013-09-06T04:34:33Z</time>
      </trkpt>
      <trkpt lat="-20.99515" lon="55.382">
        <ele>520</ele>
        <time>2013-09-06T04:34:55Z</time>
      </trkpt>
      <trkpt lat="-20.99523" lon="55.38202">
        <ele>516.9</ele>
        <time>2013-09-06T04:35:04Z</time>
      </trkpt>
      <trkpt lat="-20.99517" lon="55.38204">
        <ele>511.6</ele>
        <time>2013-09-06T04:35:21Z</time>
      </trkpt>
      <trkpt lat="-20.99508" lon="55.38206">
        <ele>510.5</ele>
        <time>2013-09-06T04:35:24Z</time>
      </trkpt>
      <trkpt lat="-20.995" lon="55.38206">
        <ele>509.6</ele>
        <time>2013-09-06T04:35:27Z</time>
      </trkpt>
      <trkpt lat="-20.9949" lon="55.38207">
        <ele>508</ele>
        <time>2013-09-06T04:35:31Z</time>
      </trkpt>
      <trkpt lat="-20.99505" lon="55.38216">
        <ele>504</ele>
        <time>2013-09-06T04:35:43Z</time>
      </trkpt>
      <trkpt lat="-20.99515" lon="55.38221">
        <ele>502</ele>
        <time>2013-09-06T04:35:47Z</time>
      </trkpt>
      <trkpt lat="-20.9953" lon="55.38229">
        <ele>499</ele>
        <time>2013-09-06T04:35:55Z</time>
      </trkpt>
      <trkpt lat="-20.99537" lon="55.38236">
        <ele>493</ele>
        <time>2013-09-06T04:36:11Z</time>
      </trkpt>
      <trkpt lat="-20.99546" lon="55.38243">
        <ele>489</ele>
        <time>2013-09-06T04:36:23Z</time>
      </trkpt>
      <trkpt lat="-20.99549" lon="55.38253">
        <ele>485</ele>
        <time>2013-09-06T04:36:35Z</time>
      </trkpt>
      <trkpt lat="-20.99554" lon="55.38261">
        <ele>483</ele>
        <time>2013-09-06T04:36:47Z</time>
      </trkpt>
      <trkpt lat="-20.99565" lon="55.38269">
        <ele>482</ele>
        <time>2013-09-06T04:36:55Z</time>
      </trkpt>
      <trkpt lat="-20.9956" lon="55.38275">
        <ele>481.2</ele>
        <time>2013-09-06T04:37:01Z</time>
      </trkpt>
      <trkpt lat="-20.99551" lon="55.38277">
        <ele>481.1</ele>
        <time>2013-09-06T04:37:04Z</time>
      </trkpt>
      <trkpt lat="-20.99545" lon="55.38277">
        <ele>481</ele>
        <time>2013-09-06T04:37:06Z</time>
      </trkpt>
      <trkpt lat="-20.99536" lon="55.38277">
        <ele>481.4</ele>
        <time>2013-09-06T04:37:09Z</time>
      </trkpt>
      <trkpt lat="-20.99528" lon="55.3828">
        <ele>481.5</ele>
        <time>2013-09-06T04:37:12Z</time>
      </trkpt>
      <trkpt lat="-20.99522" lon="55.38283">
        <ele>481.7</ele>
        <time>2013-09-06T04:37:15Z</time>
      </trkpt>
      <trkpt lat="-20.99513" lon="55.38287">
        <ele>481.8</ele>
        <time>2013-09-06T04:37:20Z</time>
      </trkpt>
      <trkpt lat="-20.99508" lon="55.38293">
        <ele>482.9</ele>
        <time>2013-09-06T04:37:29Z</time>
      </trkpt>
      <trkpt lat="-20.99501" lon="55.38296">
        <ele>483.4</ele>
        <time>2013-09-06T04:37:32Z</time>
      </trkpt>
      <trkpt lat="-20.99495" lon="55.383">
        <ele>483</ele>
        <time>2013-09-06T04:37:35Z</time>
      </trkpt>
      <trkpt lat="-20.99486" lon="55.38303">
        <ele>483.4</ele>
        <time>2013-09-06T04:37:39Z</time>
      </trkpt>
      <trkpt lat="-20.9948" lon="55.3831">
        <ele>482.3</ele>
        <time>2013-09-06T04:37:43Z</time>
      </trkpt>
      <trkpt lat="-20.99477" lon="55.38318">
        <ele>481.4</ele>
        <time>2013-09-06T04:37:49Z</time>
      </trkpt>
      <trkpt lat="-20.99482" lon="55.38326">
        <ele>481.2</ele>
        <time>2013-09-06T04:37:57Z</time>
      </trkpt>
      <trkpt lat="-20.99483" lon="55.38334">
        <ele>479.2</ele>
        <time>2013-09-06T04:38:05Z</time>
      </trkpt>
      <trkpt lat="-20.99483" lon="55.38344">
        <ele>474</ele>
        <time>2013-09-06T04:38:23Z</time>
      </trkpt>
      <trkpt lat="-20.99473" lon="55.3835">
        <ele>470</ele>
        <time>2013-09-06T04:38:34Z</time>
      </trkpt>
      <trkpt lat="-20.9947" lon="55.3836">
        <ele>466</ele>
        <time>2013-09-06T04:38:50Z</time>
      </trkpt>
      <trkpt lat="-20.99464" lon="55.38373">
        <ele>458</ele>
        <time>2013-09-06T04:39:17Z</time>
      </trkpt>
      <trkpt lat="-20.9947" lon="55.38383">
        <ele>454</ele>
        <time>2013-09-06T04:39:35Z</time>
      </trkpt>
      <trkpt lat="-20.9946" lon="55.38379">
        <ele>449</ele>
        <time>2013-09-06T04:40:15Z</time>
      </trkpt>
      <trkpt lat="-20.99459" lon="55.38393">
        <ele>452</ele>
        <time>2013-09-06T04:40:27Z</time>
      </trkpt>
      <trkpt lat="-20.99461" lon="55.38405">
        <ele>456</ele>
        <time>2013-09-06T04:40:50Z</time>
      </trkpt>
      <trkpt lat="-20.99467" lon="55.38399">
        <ele>460.4</ele>
        <time>2013-09-06T04:41:26Z</time>
      </trkpt>
      <trkpt lat="-20.99476" lon="55.38394">
        <ele>461</ele>
        <time>2013-09-06T04:41:32Z</time>
      </trkpt>
      <trkpt lat="-20.99489" lon="55.38398">
        <ele>463</ele>
        <time>2013-09-06T04:41:40Z</time>
      </trkpt>
      <trkpt lat="-20.9948" lon="55.38407">
        <ele>466</ele>
        <time>2013-09-06T04:41:48Z</time>
      </trkpt>
      <trkpt lat="-20.99475" lon="55.38412">
        <ele>467.2</ele>
        <time>2013-09-06T04:41:53Z</time>
      </trkpt>
      <trkpt lat="-20.99473" lon="55.38421">
        <ele>468.3</ele>
        <time>2013-09-06T04:41:57Z</time>
      </trkpt>
      <trkpt lat="-20.9947" lon="55.3843">
        <ele>469.3</ele>
        <time>2013-09-06T04:42:02Z</time>
      </trkpt>
      <trkpt lat="-20.9948" lon="55.38428">
        <ele>469</ele>
        <time>2013-09-06T04:42:08Z</time>
      </trkpt>
      <trkpt lat="-20.99488" lon="55.38415">
        <ele>470</ele>
        <time>2013-09-06T04:42:13Z</time>
      </trkpt>
      <trkpt lat="-20.99497" lon="55.38407">
        <ele>472</ele>
        <time>2013-09-06T04:42:21Z</time>
      </trkpt>
      <trkpt lat="-20.99463" lon="55.38467">
        <ele>475</ele>
        <time>2013-09-06T04:42:33Z</time>
      </trkpt>
      <trkpt lat="-20.99485" lon="55.3846">
        <ele>475.4</ele>
        <time>2013-09-06T04:42:36Z</time>
      </trkpt>
      <trkpt lat="-20.99493" lon="55.38456">
        <ele>474.9</ele>
        <time>2013-09-06T04:42:41Z</time>
      </trkpt>
      <trkpt lat="-20.99499" lon="55.38451">
        <ele>473.8</ele>
        <time>2013-09-06T04:42:45Z</time>
      </trkpt>
      <trkpt lat="-20.99506" lon="55.38447">
        <ele>472.4</ele>
        <time>2013-09-06T04:42:51Z</time>
      </trkpt>
      <trkpt lat="-20.99514" lon="55.38448">
        <ele>470.6</ele>
        <time>2013-09-06T04:42:58Z</time>
      </trkpt>
      <trkpt lat="-20.9952" lon="55.38453">
        <ele>469.3</ele>
        <time>2013-09-06T04:43:04Z</time>
      </trkpt>
      <trkpt lat="-20.99525" lon="55.3846">
        <ele>468.8</ele>
        <time>2013-09-06T04:43:10Z</time>
      </trkpt>
      <trkpt lat="-20.99531" lon="55.38467">
        <ele>468.4</ele>
        <time>2013-09-06T04:43:18Z</time>
      </trkpt>
      <trkpt lat="-20.99539" lon="55.38469">
        <ele>467.8</ele>
        <time>2013-09-06T04:43:23Z</time>
      </trkpt>
      <trkpt lat="-20.99547" lon="55.38473">
        <ele>465.3</ele>
        <time>2013-09-06T04:43:31Z</time>
      </trkpt>
      <trkpt lat="-20.99551" lon="55.3848">
        <ele>462.5</ele>
        <time>2013-09-06T04:43:39Z</time>
      </trkpt>
      <trkpt lat="-20.99555" lon="55.38486">
        <ele>461.2</ele>
        <time>2013-09-06T04:43:43Z</time>
      </trkpt>
      <trkpt lat="-20.99561" lon="55.38491">
        <ele>461</ele>
        <time>2013-09-06T04:43:46Z</time>
      </trkpt>
      <trkpt lat="-20.99568" lon="55.38495">
        <ele>460.5</ele>
        <time>2013-09-06T04:43:50Z</time>
      </trkpt>
      <trkpt lat="-20.99569" lon="55.38485">
        <ele>454.3</ele>
        <time>2013-09-06T04:44:20Z</time>
      </trkpt>
      <trkpt lat="-20.99577" lon="55.38483">
        <ele>453.5</ele>
        <time>2013-09-06T04:44:24Z</time>
      </trkpt>
      <trkpt lat="-20.99585" lon="55.38481">
        <ele>451.5</ele>
        <time>2013-09-06T04:44:32Z</time>
      </trkpt>
      <trkpt lat="-20.99594" lon="55.38482">
        <ele>447.9</ele>
        <time>2013-09-06T04:44:44Z</time>
      </trkpt>
      <trkpt lat="-20.99601" lon="55.38485">
        <ele>444.4</ele>
        <time>2013-09-06T04:44:56Z</time>
      </trkpt>
      <trkpt lat="-20.99608" lon="55.38489">
        <ele>442.8</ele>
        <time>2013-09-06T04:45:03Z</time>
      </trkpt>
      <trkpt lat="-20.99615" lon="55.38491">
        <ele>441.8</ele>
        <time>2013-09-06T04:45:07Z</time>
      </trkpt>
      <trkpt lat="-20.99622" lon="55.38494">
        <ele>440.9</ele>
        <time>2013-09-06T04:45:10Z</time>
      </trkpt>
      <trkpt lat="-20.99629" lon="55.38497">
        <ele>439.8</ele>
        <time>2013-09-06T04:45:14Z</time>
      </trkpt>
      <trkpt lat="-20.9963" lon="55.38506">
        <ele>439</ele>
        <time>2013-09-06T04:45:22Z</time>
      </trkpt>
      <trkpt lat="-20.99629" lon="55.38515">
        <ele>437.3</ele>
        <time>2013-09-06T04:45:28Z</time>
      </trkpt>
      <trkpt lat="-20.99633" lon="55.38523">
        <ele>436.6</ele>
        <time>2013-09-06T04:45:38Z</time>
      </trkpt>
      <trkpt lat="-20.99639" lon="55.38529">
        <ele>435.4</ele>
        <time>2013-09-06T04:45:50Z</time>
      </trkpt>
      <trkpt lat="-20.99646" lon="55.38534">
        <ele>433.8</ele>
        <time>2013-09-06T04:45:57Z</time>
      </trkpt>
      <trkpt lat="-20.99652" lon="55.38538">
        <ele>434.5</ele>
        <time>2013-09-06T04:46:02Z</time>
      </trkpt>
      <trkpt lat="-20.99661" lon="55.38542">
        <ele>434.7</ele>
        <time>2013-09-06T04:46:06Z</time>
      </trkpt>
      <trkpt lat="-20.99665" lon="55.3855">
        <ele>435.1</ele>
        <time>2013-09-06T04:46:13Z</time>
      </trkpt>
      <trkpt lat="-20.99664" lon="55.38559">
        <ele>433.1</ele>
        <time>2013-09-06T04:46:18Z</time>
      </trkpt>
      <trkpt lat="-20.99668" lon="55.38567">
        <ele>432.3</ele>
        <time>2013-09-06T04:46:23Z</time>
      </trkpt>
      <trkpt lat="-20.99672" lon="55.38576">
        <ele>431.3</ele>
        <time>2013-09-06T04:46:34Z</time>
      </trkpt>
      <trkpt lat="-20.99677" lon="55.38582">
        <ele>431.1</ele>
        <time>2013-09-06T04:46:40Z</time>
      </trkpt>
      <trkpt lat="-20.99684" lon="55.38588">
        <ele>430.8</ele>
        <time>2013-09-06T04:46:46Z</time>
      </trkpt>
      <trkpt lat="-20.99688" lon="55.38595">
        <ele>429.5</ele>
        <time>2013-09-06T04:46:54Z</time>
      </trkpt>
      <trkpt lat="-20.99697" lon="55.38597">
        <ele>428.4</ele>
        <time>2013-09-06T04:47:03Z</time>
      </trkpt>
      <trkpt lat="-20.99704" lon="55.38602">
        <ele>425.7</ele>
        <time>2013-09-06T04:47:14Z</time>
      </trkpt>
      <trkpt lat="-20.99711" lon="55.38605">
        <ele>424.9</ele>
        <time>2013-09-06T04:47:19Z</time>
      </trkpt>
      <trkpt lat="-20.99718" lon="55.38608">
        <ele>425.5</ele>
        <time>2013-09-06T04:47:24Z</time>
      </trkpt>
      <trkpt lat="-20.99724" lon="55.38613">
        <ele>423.7</ele>
        <time>2013-09-06T04:47:32Z</time>
      </trkpt>
      <trkpt lat="-20.99726" lon="55.38622">
        <ele>422.3</ele>
        <time>2013-09-06T04:47:40Z</time>
      </trkpt>
      <trkpt lat="-20.99727" lon="55.38632">
        <ele>421.4</ele>
        <time>2013-09-06T04:47:48Z</time>
      </trkpt>
      <trkpt lat="-20.99723" lon="55.3864">
        <ele>420.7</ele>
        <time>2013-09-06T04:47:55Z</time>
      </trkpt>
      <trkpt lat="-20.99718" lon="55.38647">
        <ele>420.5</ele>
        <time>2013-09-06T04:48:00Z</time>
      </trkpt>
      <trkpt lat="-20.99714" lon="55.38657">
        <ele>419</ele>
        <time>2013-09-06T04:48:07Z</time>
      </trkpt>
      <trkpt lat="-20.99713" lon="55.38666">
        <ele>417.1</ele>
        <time>2013-09-06T04:48:15Z</time>
      </trkpt>
      <trkpt lat="-20.99708" lon="55.38673">
        <ele>416.2</ele>
        <time>2013-09-06T04:48:20Z</time>
      </trkpt>
      <trkpt lat="-20.99712" lon="55.38682">
        <ele>414.5</ele>
        <time>2013-09-06T04:48:26Z</time>
      </trkpt>
      <trkpt lat="-20.99714" lon="55.38689">
        <ele>414.9</ele>
        <time>2013-09-06T04:48:32Z</time>
      </trkpt>
      <trkpt lat="-20.99721" lon="55.38695">
        <ele>415.4</ele>
        <time>2013-09-06T04:48:37Z</time>
      </trkpt>
      <trkpt lat="-20.99727" lon="55.387">
        <ele>416</ele>
        <time>2013-09-06T04:48:42Z</time>
      </trkpt>
      <trkpt lat="-20.99735" lon="55.38703">
        <ele>417.7</ele>
        <time>2013-09-06T04:48:50Z</time>
      </trkpt>
      <trkpt lat="-20.99742" lon="55.38709">
        <ele>417.7</ele>
        <time>2013-09-06T04:48:58Z</time>
      </trkpt>
      <trkpt lat="-20.99744" lon="55.38718">
        <ele>415.5</ele>
        <time>2013-09-06T04:49:06Z</time>
      </trkpt>
      <trkpt lat="-20.99744" lon="55.38727">
        <ele>414.1</ele>
        <time>2013-09-06T04:49:14Z</time>
      </trkpt>
      <trkpt lat="-20.9975" lon="55.38734">
        <ele>412.3</ele>
        <time>2013-09-06T04:49:25Z</time>
      </trkpt>
      <trkpt lat="-20.9976" lon="55.38737">
        <ele>408</ele>
        <time>2013-09-06T04:49:35Z</time>
      </trkpt>
      <trkpt lat="-20.99767" lon="55.3874">
        <ele>405.2</ele>
        <time>2013-09-06T04:49:48Z</time>
      </trkpt>
      <trkpt lat="-20.99775" lon="55.38744">
        <ele>401.6</ele>
        <time>2013-09-06T04:49:58Z</time>
      </trkpt>
      <trkpt lat="-20.99775" lon="55.38754">
        <ele>398.2</ele>
        <time>2013-09-06T04:50:14Z</time>
      </trkpt>
      <trkpt lat="-20.99774" lon="55.38763">
        <ele>395.7</ele>
        <time>2013-09-06T04:50:23Z</time>
      </trkpt>
      <trkpt lat="-20.9978" lon="55.3877">
        <ele>393.2</ele>
        <time>2013-09-06T04:50:34Z</time>
      </trkpt>
      <trkpt lat="-20.99777" lon="55.38778">
        <ele>391.1</ele>
        <time>2013-09-06T04:50:45Z</time>
      </trkpt>
      <trkpt lat="-20.99781" lon="55.38786">
        <ele>386.3</ele>
        <time>2013-09-06T04:51:11Z</time>
      </trkpt>
      <trkpt lat="-20.9979" lon="55.38785">
        <ele>381.8</ele>
        <time>2013-09-06T04:51:40Z</time>
      </trkpt>
      <trkpt lat="-20.99798" lon="55.38781">
        <ele>379</ele>
        <time>2013-09-06T04:51:58Z</time>
      </trkpt>
      <trkpt lat="-20.99802" lon="55.38772">
        <ele>374.5</ele>
        <time>2013-09-06T04:52:44Z</time>
      </trkpt>
      <trkpt lat="-20.99805" lon="55.38781">
        <ele>368.7</ele>
        <time>2013-09-06T04:53:27Z</time>
      </trkpt>
      <trkpt lat="-20.99805" lon="55.38791">
        <ele>365.7</ele>
        <time>2013-09-06T04:53:43Z</time>
      </trkpt>
      <trkpt lat="-20.99796" lon="55.38795">
        <ele>361.5</ele>
        <time>2013-09-06T04:54:00Z</time>
      </trkpt>
      <trkpt lat="-20.99802" lon="55.38801">
        <ele>355.5</ele>
        <time>2013-09-06T04:54:23Z</time>
      </trkpt>
      <trkpt lat="-20.9981" lon="55.38797">
        <ele>353</ele>
        <time>2013-09-06T04:54:33Z</time>
      </trkpt>
      <trkpt lat="-20.99818" lon="55.38794">
        <ele>349.3</ele>
        <time>2013-09-06T04:54:44Z</time>
      </trkpt>
      <trkpt lat="-20.99825" lon="55.388">
        <ele>341.6</ele>
        <time>2013-09-06T04:55:12Z</time>
      </trkpt>
      <trkpt lat="-20.99831" lon="55.38806">
        <ele>336.1</ele>
        <time>2013-09-06T04:55:30Z</time>
      </trkpt>
      <trkpt lat="-20.99836" lon="55.38814">
        <ele>332.3</ele>
        <time>2013-09-06T04:55:43Z</time>
      </trkpt>
      <trkpt lat="-20.99842" lon="55.3882">
        <ele>328.8</ele>
        <time>2013-09-06T04:55:55Z</time>
      </trkpt>
      <trkpt lat="-20.99851" lon="55.38822">
        <ele>326.8</ele>
        <time>2013-09-06T04:56:02Z</time>
      </trkpt>
      <trkpt lat="-20.9985" lon="55.38831">
        <ele>325.1</ele>
        <time>2013-09-06T04:56:11Z</time>
      </trkpt>
      <trkpt lat="-20.99851" lon="55.3884">
        <ele>325</ele>
        <time>2013-09-06T04:56:20Z</time>
      </trkpt>
      <trkpt lat="-20.99855" lon="55.38848">
        <ele>324.5</ele>
        <time>2013-09-06T04:56:28Z</time>
      </trkpt>
      <trkpt lat="-20.99861" lon="55.38855">
        <ele>323.8</ele>
        <time>2013-09-06T04:56:33Z</time>
      </trkpt>
      <trkpt lat="-20.99865" lon="55.38863">
        <ele>323</ele>
        <time>2013-09-06T04:56:42Z</time>
      </trkpt>
      <trkpt lat="-20.99867" lon="55.38871">
        <ele>323.2</ele>
        <time>2013-09-06T04:56:49Z</time>
      </trkpt>
      <trkpt lat="-20.99874" lon="55.38878">
        <ele>323.9</ele>
        <time>2013-09-06T04:56:56Z</time>
      </trkpt>
      <trkpt lat="-20.99881" lon="55.38881">
        <ele>321.9</ele>
        <time>2013-09-06T04:57:04Z</time>
      </trkpt>
      <trkpt lat="-20.99888" lon="55.38885">
        <ele>320.9</ele>
        <time>2013-09-06T04:57:09Z</time>
      </trkpt>
      <trkpt lat="-20.99895" lon="55.38891">
        <ele>316.9</ele>
        <time>2013-09-06T04:57:21Z</time>
      </trkpt>
      <trkpt lat="-20.99897" lon="55.389">
        <ele>313.3</ele>
        <time>2013-09-06T04:57:38Z</time>
      </trkpt>
      <trkpt lat="-20.99905" lon="55.38904">
        <ele>311.1</ele>
        <time>2013-09-06T04:57:47Z</time>
      </trkpt>
      <trkpt lat="-20.99909" lon="55.38913">
        <ele>310.6</ele>
        <time>2013-09-06T04:57:56Z</time>
      </trkpt>
      <trkpt lat="-20.99917" lon="55.38917">
        <ele>310</ele>
        <time>2013-09-06T04:58:04Z</time>
      </trkpt>
      <trkpt lat="-20.99923" lon="55.38923">
        <ele>307.2</ele>
        <time>2013-09-06T04:58:15Z</time>
      </trkpt>
      <trkpt lat="-20.99932" lon="55.38925">
        <ele>304.2</ele>
        <time>2013-09-06T04:58:27Z</time>
      </trkpt>
      <trkpt lat="-20.9994" lon="55.38925">
        <ele>302</ele>
        <time>2013-09-06T04:58:32Z</time>
      </trkpt>
      <trkpt lat="-20.99947" lon="55.38931">
        <ele>301.7</ele>
        <time>2013-09-06T04:58:39Z</time>
      </trkpt>
      <trkpt lat="-20.99955" lon="55.38935">
        <ele>302.1</ele>
        <time>2013-09-06T04:58:45Z</time>
      </trkpt>
      <trkpt lat="-20.99963" lon="55.38939">
        <ele>302.4</ele>
        <time>2013-09-06T04:58:52Z</time>
      </trkpt>
      <trkpt lat="-20.99967" lon="55.38946">
        <ele>302</ele>
        <time>2013-09-06T04:59:07Z</time>
      </trkpt>
      <trkpt lat="-20.99975" lon="55.38947">
        <ele>301.5</ele>
        <time>2013-09-06T04:59:12Z</time>
      </trkpt>
      <trkpt lat="-20.99983" lon="55.3895">
        <ele>301.6</ele>
        <time>2013-09-06T04:59:18Z</time>
      </trkpt>
      <trkpt lat="-20.99988" lon="55.38957">
        <ele>301.9</ele>
        <time>2013-09-06T04:59:22Z</time>
      </trkpt>
      <trkpt lat="-20.99995" lon="55.38961">
        <ele>302.5</ele>
        <time>2013-09-06T04:59:26Z</time>
      </trkpt>
      <trkpt lat="-21.00003" lon="55.3896">
        <ele>302.6</ele>
        <time>2013-09-06T04:59:31Z</time>
      </trkpt>
      <trkpt lat="-21.00011" lon="55.38959">
        <ele>302.8</ele>
        <time>2013-09-06T04:59:36Z</time>
      </trkpt>
      <trkpt lat="-21.00019" lon="55.38957">
        <ele>301</ele>
        <time>2013-09-06T04:59:45Z</time>
      </trkpt>
      <trkpt lat="-21.00027" lon="55.38959">
        <ele>301.1</ele>
        <time>2013-09-06T04:59:49Z</time>
      </trkpt>
      <trkpt lat="-21.00035" lon="55.38957">
        <ele>302</ele>
        <time>2013-09-06T04:59:57Z</time>
      </trkpt>
      <trkpt lat="-21.00044" lon="55.38958">
        <ele>297</ele>
        <time>2013-09-06T05:00:12Z</time>
      </trkpt>
      <trkpt lat="-21.00049" lon="55.3895">
        <ele>296.3</ele>
        <time>2013-09-06T05:00:18Z</time>
      </trkpt>
      <trkpt lat="-21.00047" lon="55.38942">
        <ele>292.5</ele>
        <time>2013-09-06T05:00:31Z</time>
      </trkpt>
      <trkpt lat="-21.00038" lon="55.38935">
        <ele>290</ele>
        <time>2013-09-06T05:00:35Z</time>
      </trkpt>
      <trkpt lat="-21.00047" lon="55.38935">
        <ele>286.4</ele>
        <time>2013-09-06T05:00:48Z</time>
      </trkpt>
      <trkpt lat="-21.00054" lon="55.38937">
        <ele>285.5</ele>
        <time>2013-09-06T05:00:53Z</time>
      </trkpt>
      <trkpt lat="-21.00062" lon="55.38935">
        <ele>282.2</ele>
        <time>2013-09-06T05:01:04Z</time>
      </trkpt>
      <trkpt lat="-21.0007" lon="55.38933">
        <ele>281.3</ele>
        <time>2013-09-06T05:01:10Z</time>
      </trkpt>
      <trkpt lat="-21.00077" lon="55.38937">
        <ele>280.6</ele>
        <time>2013-09-06T05:01:14Z</time>
      </trkpt>
      <trkpt lat="-21.00083" lon="55.38943">
        <ele>277.8</ele>
        <time>2013-09-06T05:01:22Z</time>
      </trkpt>
      <trkpt lat="-21.00091" lon="55.38943">
        <ele>276.6</ele>
        <time>2013-09-06T05:01:26Z</time>
      </trkpt>
      <trkpt lat="-21.00097" lon="55.38945">
        <ele>276.7</ele>
        <time>2013-09-06T05:01:29Z</time>
      </trkpt>
      <trkpt lat="-21.00104" lon="55.38951">
        <ele>275.8</ele>
        <time>2013-09-06T05:01:34Z</time>
      </trkpt>
      <trkpt lat="-21.00107" lon="55.38957">
        <ele>274.6</ele>
        <time>2013-09-06T05:02:03Z</time>
      </trkpt>
      <trkpt lat="-21.00107" lon="55.38957">
        <ele>274.6</ele>
        <time>2013-09-06T05:02:03Z</time>
      </trkpt>
      <trkpt lat="-21.00109" lon="55.38958">
        <ele>274.9</ele>
        <time>2013-09-06T05:02:09Z</time>
      </trkpt>
      <trkpt lat="-21.00108" lon="55.38963">
        <ele>274.1</ele>
        <time>2013-09-06T05:03:07Z</time>
      </trkpt>
      <trkpt lat="-21.0011" lon="55.38972">
        <ele>273.3</ele>
        <time>2013-09-06T05:03:30Z</time>
      </trkpt>
      <trkpt lat="-21.00111" lon="55.38981">
        <ele>272.7</ele>
        <time>2013-09-06T05:03:43Z</time>
      </trkpt>
      <trkpt lat="-21.00114" lon="55.3899">
        <ele>274.9</ele>
        <time>2013-09-06T05:04:03Z</time>
      </trkpt>
      <trkpt lat="-21.00116" lon="55.38999">
        <ele>276.8</ele>
        <time>2013-09-06T05:04:15Z</time>
      </trkpt>
      <trkpt lat="-21.00116" lon="55.39007">
        <ele>278.9</ele>
        <time>2013-09-06T05:04:31Z</time>
      </trkpt>
      <trkpt lat="-21.0012" lon="55.39015">
        <ele>278.4</ele>
        <time>2013-09-06T05:04:39Z</time>
      </trkpt>
      <trkpt lat="-21.00112" lon="55.39015">
        <ele>279.5</ele>
        <time>2013-09-06T05:06:30Z</time>
      </trkpt>
      <trkpt lat="-21.00105" lon="55.39019">
        <ele>280.1</ele>
        <time>2013-09-06T05:06:37Z</time>
      </trkpt>
      <trkpt lat="-21.00098" lon="55.39024">
        <ele>280.2</ele>
        <time>2013-09-06T05:06:44Z</time>
      </trkpt>
      <trkpt lat="-21.00091" lon="55.39029">
        <ele>280.5</ele>
        <time>2013-09-06T05:06:51Z</time>
      </trkpt>
      <trkpt lat="-21.00084" lon="55.39034">
        <ele>282.5</ele>
        <time>2013-09-06T05:07:01Z</time>
      </trkpt>
      <trkpt lat="-21.00079" lon="55.39042">
        <ele>282.5</ele>
        <time>2013-09-06T05:07:08Z</time>
      </trkpt>
      <trkpt lat="-21.00072" lon="55.39046">
        <ele>283.3</ele>
        <time>2013-09-06T05:07:15Z</time>
      </trkpt>
      <trkpt lat="-21.00065" lon="55.39051">
        <ele>284.1</ele>
        <time>2013-09-06T05:07:20Z</time>
      </trkpt>
      <trkpt lat="-21.00058" lon="55.39056">
        <ele>285.4</ele>
        <time>2013-09-06T05:07:26Z</time>
      </trkpt>
      <trkpt lat="-21.00052" lon="55.3906">
        <ele>285.7</ele>
        <time>2013-09-06T05:07:31Z</time>
      </trkpt>
      <trkpt lat="-21.00045" lon="55.39066">
        <ele>286.4</ele>
        <time>2013-09-06T05:07:37Z</time>
      </trkpt>
      <trkpt lat="-21.0004" lon="55.39073">
        <ele>287.2</ele>
        <time>2013-09-06T05:07:43Z</time>
      </trkpt>
      <trkpt lat="-21.00035" lon="55.39081">
        <ele>287.5</ele>
        <time>2013-09-06T05:07:49Z</time>
      </trkpt>
      <trkpt lat="-21.00031" lon="55.39089">
        <ele>287.8</ele>
        <time>2013-09-06T05:07:55Z</time>
      </trkpt>
      <trkpt lat="-21.00026" lon="55.39097">
        <ele>288.6</ele>
        <time>2013-09-06T05:08:01Z</time>
      </trkpt>
      <trkpt lat="-21.00022" lon="55.39104">
        <ele>289.3</ele>
        <time>2013-09-06T05:08:07Z</time>
      </trkpt>
      <trkpt lat="-21.00017" lon="55.39111">
        <ele>289</ele>
        <time>2013-09-06T05:08:13Z</time>
      </trkpt>
      <trkpt lat="-21.00012" lon="55.39117">
        <ele>288.7</ele>
        <time>2013-09-06T05:08:18Z</time>
      </trkpt>
      <trkpt lat="-21.00007" lon="55.39124">
        <ele>288.5</ele>
        <time>2013-09-06T05:08:25Z</time>
      </trkpt>
      <trkpt lat="-21.00003" lon="55.39131">
        <ele>289</ele>
        <time>2013-09-06T05:08:32Z</time>
      </trkpt>
      <trkpt lat="-20.99996" lon="55.39134">
        <ele>289</ele>
        <time>2013-09-06T05:08:38Z</time>
      </trkpt>
      <trkpt lat="-20.99989" lon="55.39139">
        <ele>287.9</ele>
        <time>2013-09-06T05:08:45Z</time>
      </trkpt>
      <trkpt lat="-20.99982" lon="55.39144">
        <ele>287.2</ele>
        <time>2013-09-06T05:08:50Z</time>
      </trkpt>
      <trkpt lat="-20.99975" lon="55.3915">
        <ele>286.3</ele>
        <time>2013-09-06T05:08:55Z</time>
      </trkpt>
      <trkpt lat="-20.99971" lon="55.39157">
        <ele>285.8</ele>
        <time>2013-09-06T05:09:00Z</time>
      </trkpt>
      <trkpt lat="-20.99969" lon="55.39165">
        <ele>285</ele>
        <time>2013-09-06T05:09:05Z</time>
      </trkpt>
      <trkpt lat="-20.99967" lon="55.39174">
        <ele>285.4</ele>
        <time>2013-09-06T05:09:10Z</time>
      </trkpt>
      <trkpt lat="-20.99968" lon="55.39183">
        <ele>285.5</ele>
        <time>2013-09-06T05:09:15Z</time>
      </trkpt>
      <trkpt lat="-20.99967" lon="55.39192">
        <ele>285</ele>
        <time>2013-09-06T05:09:20Z</time>
      </trkpt>
      <trkpt lat="-20.99966" lon="55.392">
        <ele>284.4</ele>
        <time>2013-09-06T05:09:25Z</time>
      </trkpt>
      <trkpt lat="-20.99964" lon="55.39208">
        <ele>284.3</ele>
        <time>2013-09-06T05:09:31Z</time>
      </trkpt>
      <trkpt lat="-20.99959" lon="55.39216">
        <ele>283.9</ele>
        <time>2013-09-06T05:09:39Z</time>
      </trkpt>
      <trkpt lat="-20.99955" lon="55.39224">
        <ele>283.9</ele>
        <time>2013-09-06T05:09:53Z</time>
      </trkpt>
      <trkpt lat="-20.99952" lon="55.39233">
        <ele>283.9</ele>
        <time>2013-09-06T05:10:31Z</time>
      </trkpt>
      <trkpt lat="-20.99949" lon="55.39241">
        <ele>283.2</ele>
        <time>2013-09-06T05:11:08Z</time>
      </trkpt>
      <trkpt lat="-20.99954" lon="55.39248">
        <ele>284.6</ele>
        <time>2013-09-06T05:11:24Z</time>
      </trkpt>
      <trkpt lat="-20.99957" lon="55.39257">
        <ele>285.2</ele>
        <time>2013-09-06T05:11:50Z</time>
      </trkpt>
      <trkpt lat="-20.99955" lon="55.39266">
        <ele>284.5</ele>
        <time>2013-09-06T05:12:16Z</time>
      </trkpt>
      <trkpt lat="-20.99958" lon="55.39274">
        <ele>285.2</ele>
        <time>2013-09-06T05:12:31Z</time>
      </trkpt>
      <trkpt lat="-20.99962" lon="55.39282">
        <ele>285.5</ele>
        <time>2013-09-06T05:12:40Z</time>
      </trkpt>
      <trkpt lat="-20.99966" lon="55.3929">
        <ele>286.3</ele>
        <time>2013-09-06T05:12:50Z</time>
      </trkpt>
      <trkpt lat="-20.99965" lon="55.39299">
        <ele>286.4</ele>
        <time>2013-09-06T05:13:25Z</time>
      </trkpt>
      <trkpt lat="-20.99958" lon="55.39304">
        <ele>286</ele>
        <time>2013-09-06T05:14:19Z</time>
      </trkpt>
      <trkpt lat="-20.99949" lon="55.39302">
        <ele>286.4</ele>
        <time>2013-09-06T05:14:29Z</time>
      </trkpt>
      <trkpt lat="-20.99941" lon="55.39304">
        <ele>286.5</ele>
        <time>2013-09-06T05:14:42Z</time>
      </trkpt>
      <trkpt lat="-20.99932" lon="55.39307">
        <ele>287.2</ele>
        <time>2013-09-06T05:14:57Z</time>
      </trkpt>
      <trkpt lat="-20.99927" lon="55.39315">
        <ele>287.1</ele>
        <time>2013-09-06T05:15:38Z</time>
      </trkpt>
      <trkpt lat="-20.99934" lon="55.39321">
        <ele>288.1</ele>
        <time>2013-09-06T05:18:34Z</time>
      </trkpt>
      <trkpt lat="-20.99936" lon="55.3933">
        <ele>288.7</ele>
        <time>2013-09-06T05:19:49Z</time>
      </trkpt>
      <trkpt lat="-20.99937" lon="55.39339">
        <ele>288.8</ele>
        <time>2013-09-06T05:19:59Z</time>
      </trkpt>
      <trkpt lat="-20.99933" lon="55.39348">
        <ele>289.6</ele>
        <time>2013-09-06T05:20:11Z</time>
      </trkpt>
      <trkpt lat="-20.99927" lon="55.39354">
        <ele>289.9</ele>
        <time>2013-09-06T05:20:30Z</time>
      </trkpt>
      <trkpt lat="-20.99921" lon="55.39361">
        <ele>290.3</ele>
        <time>2013-09-06T05:20:58Z</time>
      </trkpt>
      <trkpt lat="-20.99913" lon="55.39364">
        <ele>291.9</ele>
        <time>2013-09-06T05:21:17Z</time>
      </trkpt>
      <trkpt lat="-20.99907" lon="55.39371">
        <ele>292.3</ele>
        <time>2013-09-06T05:21:35Z</time>
      </trkpt>
      <trkpt lat="-20.99901" lon="55.39377">
        <ele>292.2</ele>
        <time>2013-09-06T05:21:45Z</time>
      </trkpt>
      <trkpt lat="-20.99895" lon="55.39384">
        <ele>292.5</ele>
        <time>2013-09-06T05:21:56Z</time>
      </trkpt>
      <trkpt lat="-20.99889" lon="55.3939">
        <ele>293.5</ele>
        <time>2013-09-06T05:22:04Z</time>
      </trkpt>
      <trkpt lat="-20.99881" lon="55.39392">
        <ele>293.5</ele>
        <time>2013-09-06T05:22:12Z</time>
      </trkpt>
      <trkpt lat="-20.99874" lon="55.39396">
        <ele>292.9</ele>
        <time>2013-09-06T05:22:19Z</time>
      </trkpt>
      <trkpt lat="-20.99866" lon="55.39399">
        <ele>293.9</ele>
        <time>2013-09-06T05:22:27Z</time>
      </trkpt>
      <trkpt lat="-20.99858" lon="55.39402">
        <ele>293.8</ele>
        <time>2013-09-06T05:22:34Z</time>
      </trkpt>
      <trkpt lat="-20.99849" lon="55.39401">
        <ele>293.9</ele>
        <time>2013-09-06T05:22:45Z</time>
      </trkpt>
      <trkpt lat="-20.99841" lon="55.39397">
        <ele>293.7</ele>
        <time>2013-09-06T05:23:03Z</time>
      </trkpt>
      <trkpt lat="-20.99833" lon="55.39397">
        <ele>293.5</ele>
        <time>2013-09-06T05:24:52Z</time>
      </trkpt>
      <trkpt lat="-20.99833" lon="55.39406">
        <ele>294</ele>
        <time>2013-09-06T05:27:14Z</time>
      </trkpt>
      <trkpt lat="-20.99828" lon="55.39413">
        <ele>294.3</ele>
        <time>2013-09-06T05:28:32Z</time>
      </trkpt>
      <trkpt lat="-20.99822" lon="55.39421">
        <ele>294.5</ele>
        <time>2013-09-06T05:30:17Z</time>
      </trkpt>
      <trkpt lat="-20.99824" lon="55.3943">
        <ele>295.3</ele>
        <time>2013-09-06T05:32:19Z</time>
      </trkpt>
      <trkpt lat="-20.99825" lon="55.39439">
        <ele>296.3</ele>
        <time>2013-09-06T05:33:19Z</time>
      </trkpt>
      <trkpt lat="-20.99818" lon="55.39445">
        <ele>295.7</ele>
        <time>2013-09-06T05:34:11Z</time>
      </trkpt>
      <trkpt lat="-20.99812" lon="55.39452">
        <ele>296.5</ele>
        <time>2013-09-06T05:35:06Z</time>
      </trkpt>
      <trkpt lat="-20.9981" lon="55.39461">
        <ele>296.5</ele>
        <time>2013-09-06T05:35:46Z</time>
      </trkpt>
      <trkpt lat="-20.99804" lon="55.39468">
        <ele>297</ele>
        <time>2013-09-06T05:36:26Z</time>
      </trkpt>
      <trkpt lat="-20.99802" lon="55.39477">
        <ele>296.1</ele>
        <time>2013-09-06T05:36:49Z</time>
      </trkpt>
      <trkpt lat="-20.99799" lon="55.39486">
        <ele>296.7</ele>
        <time>2013-09-06T05:37:06Z</time>
      </trkpt>
      <trkpt lat="-20.99795" lon="55.39495">
        <ele>296.6</ele>
        <time>2013-09-06T05:37:56Z</time>
      </trkpt>
      <trkpt lat="-20.99799" lon="55.39503">
        <ele>296.9</ele>
        <time>2013-09-06T05:38:26Z</time>
      </trkpt>
      <trkpt lat="-20.99798" lon="55.39513">
        <ele>297.4</ele>
        <time>2013-09-06T05:38:52Z</time>
      </trkpt>
      <trkpt lat="-20.99802" lon="55.39521">
        <ele>297.5</ele>
        <time>2013-09-06T05:39:08Z</time>
      </trkpt>
      <trkpt lat="-20.998" lon="55.3953">
        <ele>297.3</ele>
        <time>2013-09-06T05:39:35Z</time>
      </trkpt>
      <trkpt lat="-20.99799" lon="55.3954">
        <ele>298.2</ele>
        <time>2013-09-06T05:40:04Z</time>
      </trkpt>
      <trkpt lat="-20.99802" lon="55.39548">
        <ele>297.6</ele>
        <time>2013-09-06T05:41:09Z</time>
      </trkpt>
      <trkpt lat="-20.99799" lon="55.39558">
        <ele>298.1</ele>
        <time>2013-09-06T05:41:30Z</time>
      </trkpt>
      <trkpt lat="-20.99801" lon="55.39567">
        <ele>297.7</ele>
        <time>2013-09-06T05:42:14Z</time>
      </trkpt>
      <trkpt lat="-20.99799" lon="55.39576">
        <ele>297.9</ele>
        <time>2013-09-06T05:42:57Z</time>
      </trkpt>
      <trkpt lat="-20.99797" lon="55.39585">
        <ele>298.1</ele>
        <time>2013-09-06T05:43:41Z</time>
      </trkpt>
      <trkpt lat="-20.99798" lon="55.39595">
        <ele>298.9</ele>
        <time>2013-09-06T05:44:47Z</time>
      </trkpt>
      <trkpt lat="-20.99795" lon="55.39603">
        <ele>299.6</ele>
        <time>2013-09-06T05:45:26Z</time>
      </trkpt>
      <trkpt lat="-20.99787" lon="55.39606">
        <ele>300.3</ele>
        <time>2013-09-06T05:45:52Z</time>
      </trkpt>
      <trkpt lat="-20.99784" lon="55.39616">
        <ele>302.3</ele>
        <time>2013-09-06T05:46:29Z</time>
      </trkpt>
      <trkpt lat="-20.99785" lon="55.39625">
        <ele>304.6</ele>
        <time>2013-09-06T05:46:51Z</time>
      </trkpt>
      <trkpt lat="-20.99784" lon="55.39634">
        <ele>304.9</ele>
        <time>2013-09-06T05:47:06Z</time>
      </trkpt>
      <trkpt lat="-20.99785" lon="55.39643">
        <ele>305.3</ele>
        <time>2013-09-06T05:47:19Z</time>
      </trkpt>
      <trkpt lat="-20.99784" lon="55.39652">
        <ele>305.6</ele>
        <time>2013-09-06T05:47:28Z</time>
      </trkpt>
      <trkpt lat="-20.99783" lon="55.39661">
        <ele>306</ele>
        <time>2013-09-06T05:47:37Z</time>
      </trkpt>
      <trkpt lat="-20.99779" lon="55.3967">
        <ele>307.2</ele>
        <time>2013-09-06T05:47:48Z</time>
      </trkpt>
      <trkpt lat="-20.99778" lon="55.39679">
        <ele>306.2</ele>
        <time>2013-09-06T05:48:00Z</time>
      </trkpt>
      <trkpt lat="-20.99776" lon="55.39688">
        <ele>306.3</ele>
        <time>2013-09-06T05:48:09Z</time>
      </trkpt>
      <trkpt lat="-20.99772" lon="55.39697">
        <ele>307.5</ele>
        <time>2013-09-06T05:48:22Z</time>
      </trkpt>
      <trkpt lat="-20.99769" lon="55.39705">
        <ele>308.1</ele>
        <time>2013-09-06T05:48:34Z</time>
      </trkpt>
      <trkpt lat="-20.99769" lon="55.39715">
        <ele>308.9</ele>
        <time>2013-09-06T05:48:49Z</time>
      </trkpt>
      <trkpt lat="-20.99767" lon="55.39724">
        <ele>310</ele>
        <time>2013-09-06T05:50:01Z</time>
      </trkpt>
      <trkpt lat="-20.99759" lon="55.39724">
        <ele>309.9</ele>
        <time>2013-09-06T05:50:54Z</time>
      </trkpt>
      <trkpt lat="-20.9975" lon="55.39723">
        <ele>310.2</ele>
        <time>2013-09-06T05:51:36Z</time>
      </trkpt>
      <trkpt lat="-20.99741" lon="55.39723">
        <ele>310.1</ele>
        <time>2013-09-06T05:51:56Z</time>
      </trkpt>
      <trkpt lat="-20.99733" lon="55.39725">
        <ele>310.2</ele>
        <time>2013-09-06T05:52:30Z</time>
      </trkpt>
      <trkpt lat="-20.99724" lon="55.39725">
        <ele>310.3</ele>
        <time>2013-09-06T05:53:05Z</time>
      </trkpt>
      <trkpt lat="-20.99731" lon="55.39731">
        <ele>311.5</ele>
        <time>2013-09-06T05:55:50Z</time>
      </trkpt>
      <trkpt lat="-20.99739" lon="55.39733">
        <ele>310.9</ele>
        <time>2013-09-06T05:56:23Z</time>
      </trkpt>
      <trkpt lat="-20.99744" lon="55.39741">
        <ele>310.9</ele>
        <time>2013-09-06T05:56:45Z</time>
      </trkpt>
      <trkpt lat="-20.99736" lon="55.39744">
        <ele>312.9</ele>
        <time>2013-09-06T05:57:12Z</time>
      </trkpt>
      <trkpt lat="-20.99727" lon="55.39743">
        <ele>313.7</ele>
        <time>2013-09-06T05:57:23Z</time>
      </trkpt>
      <trkpt lat="-20.9972" lon="55.39748">
        <ele>315.5</ele>
        <time>2013-09-06T05:57:42Z</time>
      </trkpt>
      <trkpt lat="-20.99727" lon="55.39744">
        <ele>313.7</ele>
        <time>2013-09-06T05:58:45Z</time>
      </trkpt>
      <trkpt lat="-20.99735" lon="55.39743">
        <ele>312.9</ele>
        <time>2013-09-06T05:58:52Z</time>
      </trkpt>
      <trkpt lat="-20.99743" lon="55.39744">
        <ele>312.5</ele>
        <time>2013-09-06T05:58:59Z</time>
      </trkpt>
      <trkpt lat="-20.99752" lon="55.39743">
        <ele>312.9</ele>
        <time>2013-09-06T05:59:06Z</time>
      </trkpt>
      <trkpt lat="-20.9976" lon="55.3974">
        <ele>311.5</ele>
        <time>2013-09-06T05:59:16Z</time>
      </trkpt>
      <trkpt lat="-20.99768" lon="55.39742">
        <ele>311</ele>
        <time>2013-09-06T05:59:33Z</time>
      </trkpt>
      <trkpt lat="-20.99777" lon="55.39744">
        <ele>310.3</ele>
        <time>2013-09-06T05:59:52Z</time>
      </trkpt>
      <trkpt lat="-20.99785" lon="55.39748">
        <ele>311</ele>
        <time>2013-09-06T06:01:14Z</time>
      </trkpt>
      <trkpt lat="-20.99788" lon="55.39757">
        <ele>311.9</ele>
        <time>2013-09-06T06:01:38Z</time>
      </trkpt>
      <trkpt lat="-20.99794" lon="55.39764">
        <ele>313.1</ele>
        <time>2013-09-06T06:01:57Z</time>
      </trkpt>
      <trkpt lat="-20.99801" lon="55.39769">
        <ele>313.2</ele>
        <time>2013-09-06T06:02:21Z</time>
      </trkpt>
      <trkpt lat="-20.99804" lon="55.39778">
        <ele>315</ele>
        <time>2013-09-06T06:02:34Z</time>
      </trkpt>
      <trkpt lat="-20.99811" lon="55.39784">
        <ele>315</ele>
        <time>2013-09-06T06:03:06Z</time>
      </trkpt>
      <trkpt lat="-20.99818" lon="55.39789">
        <ele>318.6</ele>
        <time>2013-09-06T06:03:36Z</time>
      </trkpt>
      <trkpt lat="-20.99822" lon="55.39797">
        <ele>320.8</ele>
        <time>2013-09-06T06:03:50Z</time>
      </trkpt>
      <trkpt lat="-20.99828" lon="55.39803">
        <ele>323</ele>
        <time>2013-09-06T06:04:09Z</time>
      </trkpt>
      <trkpt lat="-20.99835" lon="55.39807">
        <ele>322.6</ele>
        <time>2013-09-06T06:04:16Z</time>
      </trkpt>
      <trkpt lat="-20.9984" lon="55.39814">
        <ele>323.6</ele>
        <time>2013-09-06T06:04:23Z</time>
      </trkpt>
      <trkpt lat="-20.99843" lon="55.39823">
        <ele>323.1</ele>
        <time>2013-09-06T06:04:52Z</time>
      </trkpt>
      <trkpt lat="-20.99851" lon="55.39823">
        <ele>322.6</ele>
        <time>2013-09-06T06:05:00Z</time>
      </trkpt>
      <trkpt lat="-20.99859" lon="55.39822">
        <ele>323.2</ele>
        <time>2013-09-06T06:05:09Z</time>
      </trkpt>
      <trkpt lat="-20.99868" lon="55.3982">
        <ele>325</ele>
        <time>2013-09-06T06:05:48Z</time>
      </trkpt>
      <trkpt lat="-20.99876" lon="55.39821">
        <ele>325.3</ele>
        <time>2013-09-06T06:06:06Z</time>
      </trkpt>
      <trkpt lat="-20.99881" lon="55.39829">
        <ele>324.6</ele>
        <time>2013-09-06T06:06:24Z</time>
      </trkpt>
      <trkpt lat="-20.99888" lon="55.39834">
        <ele>326.1</ele>
        <time>2013-09-06T06:06:50Z</time>
      </trkpt>
      <trkpt lat="-20.99896" lon="55.39833">
        <ele>326.9</ele>
        <time>2013-09-06T06:06:57Z</time>
      </trkpt>
      <trkpt lat="-20.99903" lon="55.39838">
        <ele>327.9</ele>
        <time>2013-09-06T06:07:11Z</time>
      </trkpt>
      <trkpt lat="-20.999" lon="55.39846">
        <ele>329.1</ele>
        <time>2013-09-06T06:07:18Z</time>
      </trkpt>
      <trkpt lat="-20.99901" lon="55.39856">
        <ele>329.3</ele>
        <time>2013-09-06T06:07:31Z</time>
      </trkpt>
      <trkpt lat="-20.99903" lon="55.39865">
        <ele>330</ele>
        <time>2013-09-06T06:07:57Z</time>
      </trkpt>
      <trkpt lat="-20.99908" lon="55.39873">
        <ele>332.4</ele>
        <time>2013-09-06T06:08:33Z</time>
      </trkpt>
      <trkpt lat="-20.99917" lon="55.39873">
        <ele>332.8</ele>
        <time>2013-09-06T06:10:33Z</time>
      </trkpt>
      <trkpt lat="-20.9991" lon="55.39879">
        <ele>332.7</ele>
        <time>2013-09-06T06:12:09Z</time>
      </trkpt>
      <trkpt lat="-20.99914" lon="55.39888">
        <ele>333.2</ele>
        <time>2013-09-06T06:12:28Z</time>
      </trkpt>
      <trkpt lat="-20.99922" lon="55.39892">
        <ele>333.8</ele>
        <time>2013-09-06T06:12:40Z</time>
      </trkpt>
      <trkpt lat="-20.99928" lon="55.39898">
        <ele>334.6</ele>
        <time>2013-09-06T06:12:52Z</time>
      </trkpt>
      <trkpt lat="-20.99934" lon="55.39904">
        <ele>336.8</ele>
        <time>2013-09-06T06:13:10Z</time>
      </trkpt>
      <trkpt lat="-20.99939" lon="55.39912">
        <ele>338.8</ele>
        <time>2013-09-06T06:13:22Z</time>
      </trkpt>
      <trkpt lat="-20.99943" lon="55.3992">
        <ele>340.8</ele>
        <time>2013-09-06T06:13:36Z</time>
      </trkpt>
      <trkpt lat="-20.99948" lon="55.39927">
        <ele>340.4</ele>
        <time>2013-09-06T06:13:46Z</time>
      </trkpt>
      <trkpt lat="-20.9995" lon="55.39936">
        <ele>340.7</ele>
        <time>2013-09-06T06:13:57Z</time>
      </trkpt>
      <trkpt lat="-20.99956" lon="55.39943">
        <ele>341.5</ele>
        <time>2013-09-06T06:14:13Z</time>
      </trkpt>
      <trkpt lat="-20.99957" lon="55.39952">
        <ele>341.8</ele>
        <time>2013-09-06T06:14:27Z</time>
      </trkpt>
      <trkpt lat="-20.99962" lon="55.39959">
        <ele>341.4</ele>
        <time>2013-09-06T06:14:40Z</time>
      </trkpt>
      <trkpt lat="-20.99965" lon="55.39967">
        <ele>342.3</ele>
        <time>2013-09-06T06:14:52Z</time>
      </trkpt>
      <trkpt lat="-20.99971" lon="55.39974">
        <ele>343.3</ele>
        <time>2013-09-06T06:15:05Z</time>
      </trkpt>
      <trkpt lat="-20.99972" lon="55.39983">
        <ele>343.1</ele>
        <time>2013-09-06T06:15:14Z</time>
      </trkpt>
      <trkpt lat="-20.99975" lon="55.39992">
        <ele>344.2</ele>
        <time>2013-09-06T06:15:29Z</time>
      </trkpt>
      <trkpt lat="-20.9998" lon="55.39999">
        <ele>345.3</ele>
        <time>2013-09-06T06:15:38Z</time>
      </trkpt>
      <trkpt lat="-20.99986" lon="55.40005">
        <ele>345.7</ele>
        <time>2013-09-06T06:15:46Z</time>
      </trkpt>
      <trkpt lat="-20.99994" lon="55.40009">
        <ele>346.8</ele>
        <time>2013-09-06T06:15:54Z</time>
      </trkpt>
      <trkpt lat="-21" lon="55.40016">
        <ele>348.2</ele>
        <time>2013-09-06T06:16:10Z</time>
      </trkpt>
      <trkpt lat="-21.00008" lon="55.40019">
        <ele>347.4</ele>
        <time>2013-09-06T06:16:43Z</time>
      </trkpt>
      <trkpt lat="-21.00016" lon="55.40016">
        <ele>348.2</ele>
        <time>2013-09-06T06:16:58Z</time>
      </trkpt>
      <trkpt lat="-21.00023" lon="55.40019">
        <ele>348.4</ele>
        <time>2013-09-06T06:17:06Z</time>
      </trkpt>
      <trkpt lat="-21.00032" lon="55.40022">
        <ele>348.4</ele>
        <time>2013-09-06T06:17:14Z</time>
      </trkpt>
      <trkpt lat="-21.0004" lon="55.40025">
        <ele>348.2</ele>
        <time>2013-09-06T06:17:24Z</time>
      </trkpt>
      <trkpt lat="-21.00049" lon="55.40025">
        <ele>347.7</ele>
        <time>2013-09-06T06:17:34Z</time>
      </trkpt>
      <trkpt lat="-21.00058" lon="55.40027">
        <ele>349.2</ele>
        <time>2013-09-06T06:17:47Z</time>
      </trkpt>
      <trkpt lat="-21.00064" lon="55.40032">
        <ele>348.4</ele>
        <time>2013-09-06T06:18:12Z</time>
      </trkpt>
      <trkpt lat="-21.00068" lon="55.4004">
        <ele>349.4</ele>
        <time>2013-09-06T06:18:24Z</time>
      </trkpt>
      <trkpt lat="-21.00073" lon="55.40048">
        <ele>349.7</ele>
        <time>2013-09-06T06:18:32Z</time>
      </trkpt>
      <trkpt lat="-21.00079" lon="55.40054">
        <ele>351.4</ele>
        <time>2013-09-06T06:18:42Z</time>
      </trkpt>
      <trkpt lat="-21.00087" lon="55.40058">
        <ele>352.2</ele>
        <time>2013-09-06T06:18:55Z</time>
      </trkpt>
      <trkpt lat="-21.00093" lon="55.40065">
        <ele>354.8</ele>
        <time>2013-09-06T06:19:20Z</time>
      </trkpt>
      <trkpt lat="-21.00095" lon="55.40073">
        <ele>354.9</ele>
        <time>2013-09-06T06:19:31Z</time>
      </trkpt>
      <trkpt lat="-21.001" lon="55.40081">
        <ele>356.3</ele>
        <time>2013-09-06T06:19:44Z</time>
      </trkpt>
      <trkpt lat="-21.00106" lon="55.40087">
        <ele>358</ele>
        <time>2013-09-06T06:19:56Z</time>
      </trkpt>
      <trkpt lat="-21.00101" lon="55.40094">
        <ele>358.6</ele>
        <time>2013-09-06T06:20:12Z</time>
      </trkpt>
      <trkpt lat="-21.00096" lon="55.40102">
        <ele>358.8</ele>
        <time>2013-09-06T06:20:22Z</time>
      </trkpt>
      <trkpt lat="-21.00093" lon="55.40111">
        <ele>358.6</ele>
        <time>2013-09-06T06:20:30Z</time>
      </trkpt>
      <trkpt lat="-21.0009" lon="55.4012">
        <ele>359.1</ele>
        <time>2013-09-06T06:20:39Z</time>
      </trkpt>
      <trkpt lat="-21.00087" lon="55.40128">
        <ele>358.6</ele>
        <time>2013-09-06T06:20:47Z</time>
      </trkpt>
      <trkpt lat="-21.00087" lon="55.40137">
        <ele>359.1</ele>
        <time>2013-09-06T06:20:54Z</time>
      </trkpt>
      <trkpt lat="-21.00087" lon="55.40146">
        <ele>359</ele>
        <time>2013-09-06T06:21:05Z</time>
      </trkpt>
      <trkpt lat="-21.00087" lon="55.40154">
        <ele>359.4</ele>
        <time>2013-09-06T06:21:14Z</time>
      </trkpt>
      <trkpt lat="-21.00089" lon="55.40163">
        <ele>361.1</ele>
        <time>2013-09-06T06:21:21Z</time>
      </trkpt>
      <trkpt lat="-21.00092" lon="55.40171">
        <ele>361.8</ele>
        <time>2013-09-06T06:21:29Z</time>
      </trkpt>
      <trkpt lat="-21.00091" lon="55.4018">
        <ele>363.7</ele>
        <time>2013-09-06T06:21:42Z</time>
      </trkpt>
      <trkpt lat="-21.00086" lon="55.40187">
        <ele>366.2</ele>
        <time>2013-09-06T06:21:54Z</time>
      </trkpt>
      <trkpt lat="-21.00083" lon="55.40196">
        <ele>366</ele>
        <time>2013-09-06T06:22:00Z</time>
      </trkpt>
      <trkpt lat="-21.00084" lon="55.40205">
        <ele>365.9</ele>
        <time>2013-09-06T06:22:07Z</time>
      </trkpt>
      <trkpt lat="-21.00079" lon="55.40213">
        <ele>366.4</ele>
        <time>2013-09-06T06:22:15Z</time>
      </trkpt>
      <trkpt lat="-21.0008" lon="55.40223">
        <ele>367.6</ele>
        <time>2013-09-06T06:22:23Z</time>
      </trkpt>
      <trkpt lat="-21.0008" lon="55.40232">
        <ele>367.3</ele>
        <time>2013-09-06T06:22:33Z</time>
      </trkpt>
      <trkpt lat="-21.00084" lon="55.4024">
        <ele>370.9</ele>
        <time>2013-09-06T06:22:44Z</time>
      </trkpt>
      <trkpt lat="-21.00086" lon="55.40249">
        <ele>372.3</ele>
        <time>2013-09-06T06:22:54Z</time>
      </trkpt>
      <trkpt lat="-21.00092" lon="55.40255">
        <ele>371.6</ele>
        <time>2013-09-06T06:23:11Z</time>
      </trkpt>
      <trkpt lat="-21.00098" lon="55.40263">
        <ele>371.9</ele>
        <time>2013-09-06T06:23:28Z</time>
      </trkpt>
      <trkpt lat="-21.00103" lon="55.40271">
        <ele>373</ele>
        <time>2013-09-06T06:23:41Z</time>
      </trkpt>
      <trkpt lat="-21.0011" lon="55.40277">
        <ele>373.8</ele>
        <time>2013-09-06T06:24:09Z</time>
      </trkpt>
      <trkpt lat="-21.00116" lon="55.40282">
        <ele>374</ele>
        <time>2013-09-06T06:24:40Z</time>
      </trkpt>
      <trkpt lat="-21.00124" lon="55.40285">
        <ele>374.3</ele>
        <time>2013-09-06T06:24:54Z</time>
      </trkpt>
      <trkpt lat="-21.00132" lon="55.40289">
        <ele>374.4</ele>
        <time>2013-09-06T06:25:08Z</time>
      </trkpt>
      <trkpt lat="-21.00141" lon="55.40291">
        <ele>374.1</ele>
        <time>2013-09-06T06:25:17Z</time>
      </trkpt>
      <trkpt lat="-21.0015" lon="55.40291">
        <ele>374.6</ele>
        <time>2013-09-06T06:25:26Z</time>
      </trkpt>
      <trkpt lat="-21.00158" lon="55.4029">
        <ele>374.5</ele>
        <time>2013-09-06T06:25:49Z</time>
      </trkpt>
      <trkpt lat="-21.00163" lon="55.40297">
        <ele>376.4</ele>
        <time>2013-09-06T06:26:02Z</time>
      </trkpt>
      <trkpt lat="-21.00166" lon="55.40306">
        <ele>377.1</ele>
        <time>2013-09-06T06:26:15Z</time>
      </trkpt>
      <trkpt lat="-21.00171" lon="55.40313">
        <ele>377.9</ele>
        <time>2013-09-06T06:26:43Z</time>
      </trkpt>
      <trkpt lat="-21.00178" lon="55.40318">
        <ele>377.8</ele>
        <time>2013-09-06T06:26:55Z</time>
      </trkpt>
      <trkpt lat="-21.00175" lon="55.40327">
        <ele>378.1</ele>
        <time>2013-09-06T06:27:09Z</time>
      </trkpt>
      <trkpt lat="-21.00181" lon="55.40333">
        <ele>379</ele>
        <time>2013-09-06T06:27:25Z</time>
      </trkpt>
      <trkpt lat="-21.00189" lon="55.40336">
        <ele>380.3</ele>
        <time>2013-09-06T06:27:34Z</time>
      </trkpt>
      <trkpt lat="-21.00197" lon="55.40338">
        <ele>380.3</ele>
        <time>2013-09-06T06:27:38Z</time>
      </trkpt>
      <trkpt lat="-21.00202" lon="55.40345">
        <ele>381.7</ele>
        <time>2013-09-06T06:27:50Z</time>
      </trkpt>
      <trkpt lat="-21.0021" lon="55.4035">
        <ele>382.6</ele>
        <time>2013-09-06T06:28:01Z</time>
      </trkpt>
      <trkpt lat="-21.00202" lon="55.40354">
        <ele>382.2</ele>
        <time>2013-09-06T06:28:48Z</time>
      </trkpt>
      <trkpt lat="-21.0021" lon="55.40357">
        <ele>381.7</ele>
        <time>2013-09-06T06:29:21Z</time>
      </trkpt>
      <trkpt lat="-21.00218" lon="55.40356">
        <ele>382.4</ele>
        <time>2013-09-06T06:30:06Z</time>
      </trkpt>
      <trkpt lat="-21.00225" lon="55.40363">
        <ele>382.4</ele>
        <time>2013-09-06T06:30:55Z</time>
      </trkpt>
      <trkpt lat="-21.00221" lon="55.40371">
        <ele>382.6</ele>
        <time>2013-09-06T06:31:13Z</time>
      </trkpt>
      <trkpt lat="-21.00229" lon="55.40369">
        <ele>383.9</ele>
        <time>2013-09-06T06:31:45Z</time>
      </trkpt>
      <trkpt lat="-21.00238" lon="55.40369">
        <ele>385</ele>
        <time>2013-09-06T06:32:04Z</time>
      </trkpt>
      <trkpt lat="-21.00246" lon="55.40373">
        <ele>385.8</ele>
        <time>2013-09-06T06:32:15Z</time>
      </trkpt>
      <trkpt lat="-21.00247" lon="55.40382">
        <ele>385.1</ele>
        <time>2013-09-06T06:32:36Z</time>
      </trkpt>
      <trkpt lat="-21.00254" lon="55.40388">
        <ele>386.2</ele>
        <time>2013-09-06T06:33:04Z</time>
      </trkpt>
      <trkpt lat="-21.00262" lon="55.4039">
        <ele>386.1</ele>
        <time>2013-09-06T06:33:18Z</time>
      </trkpt>
      <trkpt lat="-21.0027" lon="55.40391">
        <ele>386.9</ele>
        <time>2013-09-06T06:33:28Z</time>
      </trkpt>
      <trkpt lat="-21.00263" lon="55.4039">
        <ele>388.7</ele>
        <time>2013-09-06T06:33:41Z</time>
      </trkpt>
      <trkpt lat="-21.00255" lon="55.40388">
        <ele>388.4</ele>
        <time>2013-09-06T06:33:47Z</time>
      </trkpt>
      <trkpt lat="-21.00247" lon="55.40385">
        <ele>388.6</ele>
        <time>2013-09-06T06:33:52Z</time>
      </trkpt>
      <trkpt lat="-21.00232" lon="55.40379">
        <ele>390</ele>
        <time>2013-09-06T06:34:04Z</time>
      </trkpt>
      <trkpt lat="-21.00229" lon="55.40388">
        <ele>391</ele>
        <time>2013-09-06T06:34:19Z</time>
      </trkpt>
      <trkpt lat="-21.00233" lon="55.40398">
        <ele>392</ele>
        <time>2013-09-06T06:34:27Z</time>
      </trkpt>
      <trkpt lat="-21.00225" lon="55.404">
        <ele>392.8</ele>
        <time>2013-09-06T06:34:35Z</time>
      </trkpt>
      <trkpt lat="-21.00217" lon="55.40397">
        <ele>393.1</ele>
        <time>2013-09-06T06:34:38Z</time>
      </trkpt>
      <trkpt lat="-21.0021" lon="55.40396">
        <ele>393.6</ele>
        <time>2013-09-06T06:34:40Z</time>
      </trkpt>
      <trkpt lat="-21.00203" lon="55.40394">
        <ele>394</ele>
        <time>2013-09-06T06:34:42Z</time>
      </trkpt>
      <trkpt lat="-21.00195" lon="55.40392">
        <ele>394.2</ele>
        <time>2013-09-06T06:34:44Z</time>
      </trkpt>
      <trkpt lat="-21.00188" lon="55.4039">
        <ele>394.2</ele>
        <time>2013-09-06T06:34:46Z</time>
      </trkpt>
      <trkpt lat="-21.00181" lon="55.40389">
        <ele>394.8</ele>
        <time>2013-09-06T06:34:49Z</time>
      </trkpt>
      <trkpt lat="-21.00173" lon="55.40388">
        <ele>395.2</ele>
        <time>2013-09-06T06:34:54Z</time>
      </trkpt>
      <trkpt lat="-21.00165" lon="55.40388">
        <ele>394.5</ele>
        <time>2013-09-06T06:35:00Z</time>
      </trkpt>
      <trkpt lat="-21.00158" lon="55.40394">
        <ele>396.6</ele>
        <time>2013-09-06T06:35:19Z</time>
      </trkpt>
      <trkpt lat="-21.00163" lon="55.40401">
        <ele>397.7</ele>
        <time>2013-09-06T06:35:56Z</time>
      </trkpt>
      <trkpt lat="-21.00171" lon="55.40404">
        <ele>396.6</ele>
        <time>2013-09-06T06:36:11Z</time>
      </trkpt>
      <trkpt lat="-21.00179" lon="55.40401">
        <ele>396.9</ele>
        <time>2013-09-06T06:36:22Z</time>
      </trkpt>
      <trkpt lat="-21.00176" lon="55.40392">
        <ele>396.6</ele>
        <time>2013-09-06T06:36:32Z</time>
      </trkpt>
      <trkpt lat="-21.0017" lon="55.40386">
        <ele>394.8</ele>
        <time>2013-09-06T06:36:48Z</time>
      </trkpt>
      <trkpt lat="-21.00162" lon="55.40383">
        <ele>394.6</ele>
        <time>2013-09-06T06:37:04Z</time>
      </trkpt>
      <trkpt lat="-21.00171" lon="55.40383">
        <ele>394.5</ele>
        <time>2013-09-06T06:37:45Z</time>
      </trkpt>
      <trkpt lat="-21.00163" lon="55.40387">
        <ele>396</ele>
        <time>2013-09-06T06:38:33Z</time>
      </trkpt>
      <trkpt lat="-21.00156" lon="55.40393">
        <ele>396.5</ele>
        <time>2013-09-06T06:38:42Z</time>
      </trkpt>
      <trkpt lat="-21.00155" lon="55.40402">
        <ele>400</ele>
        <time>2013-09-06T06:39:09Z</time>
      </trkpt>
      <trkpt lat="-21.00148" lon="55.40408">
        <ele>402.2</ele>
        <time>2013-09-06T06:39:19Z</time>
      </trkpt>
      <trkpt lat="-21.00147" lon="55.40418">
        <ele>403</ele>
        <time>2013-09-06T06:39:26Z</time>
      </trkpt>
      <trkpt lat="-21.00143" lon="55.40424">
        <ele>405.8</ele>
        <time>2013-09-06T06:39:36Z</time>
      </trkpt>
      <trkpt lat="-21.00144" lon="55.40434">
        <ele>405.6</ele>
        <time>2013-09-06T06:39:41Z</time>
      </trkpt>
      <trkpt lat="-21.00146" lon="55.40443">
        <ele>405.9</ele>
        <time>2013-09-06T06:39:45Z</time>
      </trkpt>
      <trkpt lat="-21.00149" lon="55.40449">
        <ele>405.9</ele>
        <time>2013-09-06T06:39:48Z</time>
      </trkpt>
      <trkpt lat="-21.00153" lon="55.40455">
        <ele>406.8</ele>
        <time>2013-09-06T06:39:50Z</time>
      </trkpt>
      <trkpt lat="-21.00156" lon="55.40462">
        <ele>406.1</ele>
        <time>2013-09-06T06:39:52Z</time>
      </trkpt>
      <trkpt lat="-21.0016" lon="55.40469">
        <ele>406</ele>
        <time>2013-09-06T06:39:54Z</time>
      </trkpt>
      <trkpt lat="-21.00165" lon="55.40476">
        <ele>406.3</ele>
        <time>2013-09-06T06:39:56Z</time>
      </trkpt>
      <trkpt lat="-21.0017" lon="55.40481">
        <ele>406.7</ele>
        <time>2013-09-06T06:39:58Z</time>
      </trkpt>
      <trkpt lat="-21.00176" lon="55.40487">
        <ele>406.6</ele>
        <time>2013-09-06T06:40:01Z</time>
      </trkpt>
      <trkpt lat="-21.00182" lon="55.40492">
        <ele>406.4</ele>
        <time>2013-09-06T06:40:04Z</time>
      </trkpt>
      <trkpt lat="-21.00188" lon="55.40498">
        <ele>406.4</ele>
        <time>2013-09-06T06:40:08Z</time>
      </trkpt>
      <trkpt lat="-21.00194" lon="55.40505">
        <ele>406.4</ele>
        <time>2013-09-06T06:40:14Z</time>
      </trkpt>
      <trkpt lat="-21.00201" lon="55.4051">
        <ele>407.8</ele>
        <time>2013-09-06T06:40:21Z</time>
      </trkpt>
      <trkpt lat="-21.00209" lon="55.4051">
        <ele>408.9</ele>
        <time>2013-09-06T06:40:28Z</time>
      </trkpt>
      <trkpt lat="-21.00217" lon="55.4051">
        <ele>407.6</ele>
        <time>2013-09-06T06:40:36Z</time>
      </trkpt>
      <trkpt lat="-21.00226" lon="55.4051">
        <ele>407.9</ele>
        <time>2013-09-06T06:40:46Z</time>
      </trkpt>
      <trkpt lat="-21.00232" lon="55.40516">
        <ele>407.9</ele>
        <time>2013-09-06T06:41:06Z</time>
      </trkpt>
      <trkpt lat="-21.00224" lon="55.40514">
        <ele>408.4</ele>
        <time>2013-09-06T06:41:43Z</time>
      </trkpt>
      <trkpt lat="-21.00231" lon="55.40518">
        <ele>409.1</ele>
        <time>2013-09-06T06:41:58Z</time>
      </trkpt>
      <trkpt lat="-21.00226" lon="55.40505">
        <ele>409</ele>
        <time>2013-09-06T06:42:28Z</time>
      </trkpt>
      <trkpt lat="-21.00232" lon="55.4051">
        <ele>409.8</ele>
        <time>2013-09-06T06:42:36Z</time>
      </trkpt>
      <trkpt lat="-21.0024" lon="55.40508">
        <ele>410.3</ele>
        <time>2013-09-06T06:42:41Z</time>
      </trkpt>
      <trkpt lat="-21.00249" lon="55.40507">
        <ele>410</ele>
        <time>2013-09-06T06:42:47Z</time>
      </trkpt>
      <trkpt lat="-21.00258" lon="55.40512">
        <ele>410</ele>
        <time>2013-09-06T06:42:53Z</time>
      </trkpt>
      <trkpt lat="-21.00264" lon="55.40517">
        <ele>410</ele>
        <time>2013-09-06T06:42:57Z</time>
      </trkpt>
      <trkpt lat="-21.00273" lon="55.40514">
        <ele>411</ele>
        <time>2013-09-06T06:43:24Z</time>
      </trkpt>
      <trkpt lat="-21.00269" lon="55.40521">
        <ele>411.8</ele>
        <time>2013-09-06T06:43:34Z</time>
      </trkpt>
      <trkpt lat="-21.00277" lon="55.40522">
        <ele>411.2</ele>
        <time>2013-09-06T06:43:51Z</time>
      </trkpt>
      <trkpt lat="-21.00283" lon="55.40528">
        <ele>413.2</ele>
        <time>2013-09-06T06:44:00Z</time>
      </trkpt>
      <trkpt lat="-21.00287" lon="55.40537">
        <ele>412.6</ele>
        <time>2013-09-06T06:44:08Z</time>
      </trkpt>
      <trkpt lat="-21.00295" lon="55.4054">
        <ele>413.1</ele>
        <time>2013-09-06T06:44:15Z</time>
      </trkpt>
      <trkpt lat="-21.00301" lon="55.40547">
        <ele>414.5</ele>
        <time>2013-09-06T06:44:23Z</time>
      </trkpt>
      <trkpt lat="-21.00307" lon="55.40554">
        <ele>413.8</ele>
        <time>2013-09-06T06:44:30Z</time>
      </trkpt>
      <trkpt lat="-21.00313" lon="55.40558">
        <ele>414.6</ele>
        <time>2013-09-06T06:44:35Z</time>
      </trkpt>
      <trkpt lat="-21.00321" lon="55.40562">
        <ele>415</ele>
        <time>2013-09-06T06:44:59Z</time>
      </trkpt>
      <trkpt lat="-21.00325" lon="55.4057">
        <ele>415.7</ele>
        <time>2013-09-06T06:45:08Z</time>
      </trkpt>
      <trkpt lat="-21.00332" lon="55.40569">
        <ele>415.3</ele>
        <time>2013-09-06T06:45:13Z</time>
      </trkpt>
      <trkpt lat="-21.00337" lon="55.40562">
        <ele>416</ele>
        <time>2013-09-06T06:45:29Z</time>
      </trkpt>
      <trkpt lat="-21.00344" lon="55.4056">
        <ele>416.7</ele>
        <time>2013-09-06T06:45:32Z</time>
      </trkpt>
      <trkpt lat="-21.0035" lon="55.40556">
        <ele>416.6</ele>
        <time>2013-09-06T06:45:34Z</time>
      </trkpt>
      <trkpt lat="-21.00354" lon="55.40553">
        <ele>416.6</ele>
        <time>2013-09-06T06:45:35Z</time>
      </trkpt>
      <trkpt lat="-21.0037" lon="55.40542">
        <ele>417</ele>
        <time>2013-09-06T06:45:38Z</time>
      </trkpt>
      <trkpt lat="-21.00367" lon="55.40551">
        <ele>418</ele>
        <time>2013-09-06T06:45:46Z</time>
      </trkpt>
      <trkpt lat="-21.00362" lon="55.40557">
        <ele>419</ele>
        <time>2013-09-06T06:45:49Z</time>
      </trkpt>
      <trkpt lat="-21.00361" lon="55.40567">
        <ele>419.7</ele>
        <time>2013-09-06T06:45:56Z</time>
      </trkpt>
      <trkpt lat="-21.00362" lon="55.40575">
        <ele>419.7</ele>
        <time>2013-09-06T06:46:01Z</time>
      </trkpt>
      <trkpt lat="-21.00358" lon="55.40583">
        <ele>419.6</ele>
        <time>2013-09-06T06:46:09Z</time>
      </trkpt>
      <trkpt lat="-21.00354" lon="55.40592">
        <ele>419.6</ele>
        <time>2013-09-06T06:46:19Z</time>
      </trkpt>
      <trkpt lat="-21.00356" lon="55.406">
        <ele>418.6</ele>
        <time>2013-09-06T06:46:45Z</time>
      </trkpt>
      <trkpt lat="-21.00356" lon="55.40609">
        <ele>418.5</ele>
        <time>2013-09-06T06:46:52Z</time>
      </trkpt>
      <trkpt lat="-21.00355" lon="55.40619">
        <ele>420</ele>
        <time>2013-09-06T06:47:08Z</time>
      </trkpt>
      <trkpt lat="-21.00356" lon="55.40628">
        <ele>421.6</ele>
        <time>2013-09-06T06:48:02Z</time>
      </trkpt>
      <trkpt lat="-21.00363" lon="55.40633">
        <ele>422.4</ele>
        <time>2013-09-06T06:48:56Z</time>
      </trkpt>
      <trkpt lat="-21.00359" lon="55.40642">
        <ele>422.7</ele>
        <time>2013-09-06T06:49:17Z</time>
      </trkpt>
      <trkpt lat="-21.00358" lon="55.40633">
        <ele>422.8</ele>
        <time>2013-09-06T06:50:28Z</time>
      </trkpt>
      <trkpt lat="-21.0035" lon="55.40638">
        <ele>422.7</ele>
        <time>2013-09-06T06:50:47Z</time>
      </trkpt>
      <trkpt lat="-21.00349" lon="55.40647">
        <ele>423.2</ele>
        <time>2013-09-06T06:50:56Z</time>
      </trkpt>
      <trkpt lat="-21.00346" lon="55.40656">
        <ele>425.7</ele>
        <time>2013-09-06T06:51:26Z</time>
      </trkpt>
      <trkpt lat="-21.00338" lon="55.40653">
        <ele>427.2</ele>
        <time>2013-09-06T06:51:37Z</time>
      </trkpt>
      <trkpt lat="-21.00331" lon="55.40648">
        <ele>428</ele>
        <time>2013-09-06T06:51:46Z</time>
      </trkpt>
      <trkpt lat="-21.00326" lon="55.40641">
        <ele>428.1</ele>
        <time>2013-09-06T06:51:55Z</time>
      </trkpt>
      <trkpt lat="-21.00322" lon="55.40633">
        <ele>428.8</ele>
        <time>2013-09-06T06:52:04Z</time>
      </trkpt>
      <trkpt lat="-21.00314" lon="55.40629">
        <ele>430.3</ele>
        <time>2013-09-06T06:52:15Z</time>
      </trkpt>
      <trkpt lat="-21.00307" lon="55.40625">
        <ele>432.3</ele>
        <time>2013-09-06T06:52:28Z</time>
      </trkpt>
      <trkpt lat="-21.00304" lon="55.40617">
        <ele>431.1</ele>
        <time>2013-09-06T06:52:40Z</time>
      </trkpt>
      <trkpt lat="-21.00296" lon="55.40611">
        <ele>433.2</ele>
        <time>2013-09-06T06:52:57Z</time>
      </trkpt>
      <trkpt lat="-21.00302" lon="55.40616">
        <ele>435.1</ele>
        <time>2013-09-06T06:53:12Z</time>
      </trkpt>
      <trkpt lat="-21.00307" lon="55.40623">
        <ele>435.2</ele>
        <time>2013-09-06T06:53:16Z</time>
      </trkpt>
      <trkpt lat="-21.0031" lon="55.4063">
        <ele>435.3</ele>
        <time>2013-09-06T06:53:20Z</time>
      </trkpt>
      <trkpt lat="-21.00311" lon="55.40639">
        <ele>436.3</ele>
        <time>2013-09-06T06:53:29Z</time>
      </trkpt>
      <trkpt lat="-21.0031" lon="55.40648">
        <ele>438.4</ele>
        <time>2013-09-06T06:53:37Z</time>
      </trkpt>
      <trkpt lat="-21.0031" lon="55.40657">
        <ele>438.8</ele>
        <time>2013-09-06T06:53:42Z</time>
      </trkpt>
      <trkpt lat="-21.00311" lon="55.40666">
        <ele>440.2</ele>
        <time>2013-09-06T06:53:46Z</time>
      </trkpt>
      <trkpt lat="-21.00311" lon="55.40674">
        <ele>441.5</ele>
        <time>2013-09-06T06:53:49Z</time>
      </trkpt>
      <trkpt lat="-21.00312" lon="55.40683">
        <ele>442.1</ele>
        <time>2013-09-06T06:53:52Z</time>
      </trkpt>
      <trkpt lat="-21.00314" lon="55.40691">
        <ele>442.4</ele>
        <time>2013-09-06T06:53:55Z</time>
      </trkpt>
      <trkpt lat="-21.00318" lon="55.40699">
        <ele>443.4</ele>
        <time>2013-09-06T06:53:59Z</time>
      </trkpt>
      <trkpt lat="-21.00324" lon="55.40705">
        <ele>443.7</ele>
        <time>2013-09-06T06:54:04Z</time>
      </trkpt>
      <trkpt lat="-21.00333" lon="55.40707">
        <ele>444.1</ele>
        <time>2013-09-06T06:54:10Z</time>
      </trkpt>
      <trkpt lat="-21.00341" lon="55.40709">
        <ele>442.9</ele>
        <time>2013-09-06T06:54:17Z</time>
      </trkpt>
      <trkpt lat="-21.00348" lon="55.40712">
        <ele>440.2</ele>
        <time>2013-09-06T06:54:27Z</time>
      </trkpt>
      <trkpt lat="-21.00354" lon="55.40717">
        <ele>438.2</ele>
        <time>2013-09-06T06:54:34Z</time>
      </trkpt>
      <trkpt lat="-21.0036" lon="55.40724">
        <ele>438.1</ele>
        <time>2013-09-06T06:54:41Z</time>
      </trkpt>
      <trkpt lat="-21.00366" lon="55.4073">
        <ele>439.1</ele>
        <time>2013-09-06T06:54:50Z</time>
      </trkpt>
      <trkpt lat="-21.00368" lon="55.40739">
        <ele>443</ele>
        <time>2013-09-06T06:55:04Z</time>
      </trkpt>
      <trkpt lat="-21.00371" lon="55.40747">
        <ele>443.7</ele>
        <time>2013-09-06T06:55:13Z</time>
      </trkpt>
      <trkpt lat="-21.00377" lon="55.40752">
        <ele>443.7</ele>
        <time>2013-09-06T06:55:18Z</time>
      </trkpt>
      <trkpt lat="-21.00384" lon="55.40757">
        <ele>445.8</ele>
        <time>2013-09-06T06:55:23Z</time>
      </trkpt>
      <trkpt lat="-21.00388" lon="55.40765">
        <ele>446.9</ele>
        <time>2013-09-06T06:55:31Z</time>
      </trkpt>
      <trkpt lat="-21.0039" lon="55.40774">
        <ele>448</ele>
        <time>2013-09-06T06:55:38Z</time>
      </trkpt>
      <trkpt lat="-21.00393" lon="55.40783">
        <ele>450.9</ele>
        <time>2013-09-06T06:55:49Z</time>
      </trkpt>
      <trkpt lat="-21.00401" lon="55.40783">
        <ele>453.2</ele>
        <time>2013-09-06T06:56:02Z</time>
      </trkpt>
      <trkpt lat="-21.00409" lon="55.40787">
        <ele>454.2</ele>
        <time>2013-09-06T06:56:09Z</time>
      </trkpt>
      <trkpt lat="-21.00417" lon="55.40788">
        <ele>454</ele>
        <time>2013-09-06T06:56:16Z</time>
      </trkpt>
      <trkpt lat="-21.00425" lon="55.40787">
        <ele>455</ele>
        <time>2013-09-06T06:56:30Z</time>
      </trkpt>
      <trkpt lat="-21.00433" lon="55.40784">
        <ele>454</ele>
        <time>2013-09-06T06:56:34Z</time>
      </trkpt>
      <trkpt lat="-21.00441" lon="55.40784">
        <ele>453.9</ele>
        <time>2013-09-06T06:56:43Z</time>
      </trkpt>
      <trkpt lat="-21.00449" lon="55.40788">
        <ele>452</ele>
        <time>2013-09-06T06:56:50Z</time>
      </trkpt>
      <trkpt lat="-21.00458" lon="55.4079">
        <ele>452.1</ele>
        <time>2013-09-06T06:56:56Z</time>
      </trkpt>
      <trkpt lat="-21.00466" lon="55.40789">
        <ele>453.3</ele>
        <time>2013-09-06T06:57:02Z</time>
      </trkpt>
      <trkpt lat="-21.00474" lon="55.40787">
        <ele>452</ele>
        <time>2013-09-06T06:57:10Z</time>
      </trkpt>
      <trkpt lat="-21.00481" lon="55.40781">
        <ele>452.5</ele>
        <time>2013-09-06T06:57:27Z</time>
      </trkpt>
      <trkpt lat="-21.00488" lon="55.40776">
        <ele>455.4</ele>
        <time>2013-09-06T06:57:54Z</time>
      </trkpt>
      <trkpt lat="-21.00495" lon="55.4078">
        <ele>456.6</ele>
        <time>2013-09-06T06:58:13Z</time>
      </trkpt>
      <trkpt lat="-21.00497" lon="55.40789">
        <ele>457.9</ele>
        <time>2013-09-06T06:58:30Z</time>
      </trkpt>
      <trkpt lat="-21.00496" lon="55.40799">
        <ele>458.6</ele>
        <time>2013-09-06T06:58:45Z</time>
      </trkpt>
      <trkpt lat="-21.00499" lon="55.40807">
        <ele>459.6</ele>
        <time>2013-09-06T06:58:55Z</time>
      </trkpt>
      <trkpt lat="-21.00498" lon="55.40816">
        <ele>459.1</ele>
        <time>2013-09-06T06:59:07Z</time>
      </trkpt>
      <trkpt lat="-21.00493" lon="55.40824">
        <ele>461.3</ele>
        <time>2013-09-06T06:59:29Z</time>
      </trkpt>
      <trkpt lat="-21.00485" lon="55.40826">
        <ele>462.7</ele>
        <time>2013-09-06T06:59:37Z</time>
      </trkpt>
      <trkpt lat="-21.00488" lon="55.40835">
        <ele>465.6</ele>
        <time>2013-09-06T06:59:57Z</time>
      </trkpt>
      <trkpt lat="-21.00491" lon="55.40843">
        <ele>466.4</ele>
        <time>2013-09-06T07:00:05Z</time>
      </trkpt>
      <trkpt lat="-21.00496" lon="55.40851">
        <ele>466.8</ele>
        <time>2013-09-06T07:00:13Z</time>
      </trkpt>
      <trkpt lat="-21.00513" lon="55.40855">
        <ele>473</ele>
        <time>2013-09-06T07:00:55Z</time>
      </trkpt>
      <trkpt lat="-21.00533" lon="55.40876">
        <ele>476</ele>
        <time>2013-09-06T07:01:08Z</time>
      </trkpt>
      <trkpt lat="-21.00526" lon="55.40877">
        <ele>481</ele>
        <time>2013-09-06T07:01:22Z</time>
      </trkpt>
      <trkpt lat="-21.00533" lon="55.40874">
        <ele>481.2</ele>
        <time>2013-09-06T07:01:29Z</time>
      </trkpt>
      <trkpt lat="-21.00542" lon="55.40874">
        <ele>481.8</ele>
        <time>2013-09-06T07:01:37Z</time>
      </trkpt>
      <trkpt lat="-21.00548" lon="55.40881">
        <ele>482.6</ele>
        <time>2013-09-06T07:01:48Z</time>
      </trkpt>
      <trkpt lat="-21.00556" lon="55.40885">
        <ele>484</ele>
        <time>2013-09-06T07:01:56Z</time>
      </trkpt>
      <trkpt lat="-21.00562" lon="55.40891">
        <ele>484.4</ele>
        <time>2013-09-06T07:02:05Z</time>
      </trkpt>
      <trkpt lat="-21.00567" lon="55.40899">
        <ele>484</ele>
        <time>2013-09-06T07:02:19Z</time>
      </trkpt>
      <trkpt lat="-21.00572" lon="55.40907">
        <ele>481.6</ele>
        <time>2013-09-06T07:02:40Z</time>
      </trkpt>
      <trkpt lat="-21.00575" lon="55.40916">
        <ele>479.2</ele>
        <time>2013-09-06T07:02:49Z</time>
      </trkpt>
      <trkpt lat="-21.00575" lon="55.40925">
        <ele>479.6</ele>
        <time>2013-09-06T07:02:59Z</time>
      </trkpt>
      <trkpt lat="-21.00575" lon="55.40934">
        <ele>477.3</ele>
        <time>2013-09-06T07:03:14Z</time>
      </trkpt>
      <trkpt lat="-21.0058" lon="55.40942">
        <ele>474.4</ele>
        <time>2013-09-06T07:03:34Z</time>
      </trkpt>
      <trkpt lat="-21.00578" lon="55.40951">
        <ele>475.6</ele>
        <time>2013-09-06T07:03:46Z</time>
      </trkpt>
      <trkpt lat="-21.00572" lon="55.40958">
        <ele>475.4</ele>
        <time>2013-09-06T07:04:05Z</time>
      </trkpt>
      <trkpt lat="-21.00565" lon="55.40961">
        <ele>476.9</ele>
        <time>2013-09-06T07:04:21Z</time>
      </trkpt>
      <trkpt lat="-21.00561" lon="55.4097">
        <ele>479</ele>
        <time>2013-09-06T07:04:32Z</time>
      </trkpt>
      <trkpt lat="-21.00565" lon="55.40978">
        <ele>479</ele>
        <time>2013-09-06T07:04:38Z</time>
      </trkpt>
      <trkpt lat="-21.00568" lon="55.40987">
        <ele>479.7</ele>
        <time>2013-09-06T07:04:44Z</time>
      </trkpt>
      <trkpt lat="-21.00571" lon="55.40994">
        <ele>480.5</ele>
        <time>2013-09-06T07:04:48Z</time>
      </trkpt>
      <trkpt lat="-21.00576" lon="55.41002">
        <ele>481.9</ele>
        <time>2013-09-06T07:04:55Z</time>
      </trkpt>
      <trkpt lat="-21.00581" lon="55.4101">
        <ele>483.6</ele>
        <time>2013-09-06T07:05:04Z</time>
      </trkpt>
      <trkpt lat="-21.00582" lon="55.41017">
        <ele>483.6</ele>
        <time>2013-09-06T07:05:12Z</time>
      </trkpt>
      <trkpt lat="-21.00583" lon="55.41027">
        <ele>484.4</ele>
        <time>2013-09-06T07:05:16Z</time>
      </trkpt>
      <trkpt lat="-21.00591" lon="55.41029">
        <ele>486.1</ele>
        <time>2013-09-06T07:05:24Z</time>
      </trkpt>
      <trkpt lat="-21.00599" lon="55.4103">
        <ele>487.6</ele>
        <time>2013-09-06T07:05:32Z</time>
      </trkpt>
      <trkpt lat="-21.00607" lon="55.41028">
        <ele>488.5</ele>
        <time>2013-09-06T07:05:47Z</time>
      </trkpt>
      <trkpt lat="-21.00616" lon="55.41028">
        <ele>488.8</ele>
        <time>2013-09-06T07:05:54Z</time>
      </trkpt>
      <trkpt lat="-21.00624" lon="55.41031">
        <ele>486.8</ele>
        <time>2013-09-06T07:06:11Z</time>
      </trkpt>
      <trkpt lat="-21.00622" lon="55.41039">
        <ele>487.3</ele>
        <time>2013-09-06T07:06:30Z</time>
      </trkpt>
      <trkpt lat="-21.00628" lon="55.4105">
        <ele>487</ele>
        <time>2013-09-06T07:06:35Z</time>
      </trkpt>
      <trkpt lat="-21.00644" lon="55.41045">
        <ele>492</ele>
        <time>2013-09-06T07:06:55Z</time>
      </trkpt>
      <trkpt lat="-21.00643" lon="55.41054">
        <ele>499.9</ele>
        <time>2013-09-06T07:07:26Z</time>
      </trkpt>
      <trkpt lat="-21.0065" lon="55.41058">
        <ele>506.6</ele>
        <time>2013-09-06T07:07:53Z</time>
      </trkpt>
      <trkpt lat="-21.00656" lon="55.41065">
        <ele>508.9</ele>
        <time>2013-09-06T07:08:06Z</time>
      </trkpt>
      <trkpt lat="-21.00663" lon="55.41071">
        <ele>510.6</ele>
        <time>2013-09-06T07:08:16Z</time>
      </trkpt>
      <trkpt lat="-21.00672" lon="55.41068">
        <ele>513</ele>
        <time>2013-09-06T07:08:35Z</time>
      </trkpt>
      <trkpt lat="-21.0068" lon="55.41071">
        <ele>516.6</ele>
        <time>2013-09-06T07:09:17Z</time>
      </trkpt>
      <trkpt lat="-21.00688" lon="55.41069">
        <ele>520.5</ele>
        <time>2013-09-06T07:09:31Z</time>
      </trkpt>
      <trkpt lat="-21.00696" lon="55.41072">
        <ele>519</ele>
        <time>2013-09-06T07:09:39Z</time>
      </trkpt>
      <trkpt lat="-21.00704" lon="55.41075">
        <ele>518.5</ele>
        <time>2013-09-06T07:09:48Z</time>
      </trkpt>
      <trkpt lat="-21.00711" lon="55.41076">
        <ele>518.7</ele>
        <time>2013-09-06T07:09:54Z</time>
      </trkpt>
      <trkpt lat="-21.00718" lon="55.41081">
        <ele>518.1</ele>
        <time>2013-09-06T07:10:00Z</time>
      </trkpt>
      <trkpt lat="-21.00726" lon="55.41084">
        <ele>517.2</ele>
        <time>2013-09-06T07:10:08Z</time>
      </trkpt>
      <trkpt lat="-21.00733" lon="55.41088">
        <ele>516.5</ele>
        <time>2013-09-06T07:10:14Z</time>
      </trkpt>
      <trkpt lat="-21.00739" lon="55.41095">
        <ele>515.2</ele>
        <time>2013-09-06T07:10:23Z</time>
      </trkpt>
      <trkpt lat="-21.00739" lon="55.41104">
        <ele>511.6</ele>
        <time>2013-09-06T07:10:42Z</time>
      </trkpt>
      <trkpt lat="-21.00743" lon="55.41112">
        <ele>509.6</ele>
        <time>2013-09-06T07:10:50Z</time>
      </trkpt>
      <trkpt lat="-21.00753" lon="55.41114">
        <ele>508</ele>
        <time>2013-09-06T07:10:59Z</time>
      </trkpt>
      <trkpt lat="-21.00756" lon="55.41122">
        <ele>509.2</ele>
        <time>2013-09-06T07:11:04Z</time>
      </trkpt>
      <trkpt lat="-21.00759" lon="55.41131">
        <ele>508.9</ele>
        <time>2013-09-06T07:11:10Z</time>
      </trkpt>
      <trkpt lat="-21.0076" lon="55.4114">
        <ele>510</ele>
        <time>2013-09-06T07:11:19Z</time>
      </trkpt>
      <trkpt lat="-21.00757" lon="55.41148">
        <ele>509.4</ele>
        <time>2013-09-06T07:11:41Z</time>
      </trkpt>
      <trkpt lat="-21.00768" lon="55.41147">
        <ele>510</ele>
        <time>2013-09-06T07:11:48Z</time>
      </trkpt>
      <trkpt lat="-21.00774" lon="55.41144">
        <ele>510.9</ele>
        <time>2013-09-06T07:11:50Z</time>
      </trkpt>
      <trkpt lat="-21.00778" lon="55.41142">
        <ele>511.1</ele>
        <time>2013-09-06T07:11:51Z</time>
      </trkpt>
      <trkpt lat="-21.00782" lon="55.4114">
        <ele>511.4</ele>
        <time>2013-09-06T07:11:52Z</time>
      </trkpt>
      <trkpt lat="-21.00794" lon="55.41134">
        <ele>511</ele>
        <time>2013-09-06T07:11:55Z</time>
      </trkpt>
      <trkpt lat="-21.00792" lon="55.41143">
        <ele>513.1</ele>
        <time>2013-09-06T07:12:05Z</time>
      </trkpt>
      <trkpt lat="-21.00789" lon="55.4115">
        <ele>513.5</ele>
        <time>2013-09-06T07:12:08Z</time>
      </trkpt>
      <trkpt lat="-21.00786" lon="55.41157">
        <ele>513.4</ele>
        <time>2013-09-06T07:12:12Z</time>
      </trkpt>
      <trkpt lat="-21.00782" lon="55.41165">
        <ele>513.9</ele>
        <time>2013-09-06T07:12:16Z</time>
      </trkpt>
      <trkpt lat="-21.00778" lon="55.41171">
        <ele>514.6</ele>
        <time>2013-09-06T07:12:21Z</time>
      </trkpt>
      <trkpt lat="-21.00781" lon="55.41179">
        <ele>515.1</ele>
        <time>2013-09-06T07:12:32Z</time>
      </trkpt>
      <trkpt lat="-21.0078" lon="55.41191">
        <ele>514.6</ele>
        <time>2013-09-06T07:12:44Z</time>
      </trkpt>
      <trkpt lat="-21.00783" lon="55.412">
        <ele>514.3</ele>
        <time>2013-09-06T07:12:52Z</time>
      </trkpt>
      <trkpt lat="-21.00786" lon="55.41209">
        <ele>515.1</ele>
        <time>2013-09-06T07:13:05Z</time>
      </trkpt>
      <trkpt lat="-21.00785" lon="55.41218">
        <ele>515.5</ele>
        <time>2013-09-06T07:13:21Z</time>
      </trkpt>
      <trkpt lat="-21.00788" lon="55.41227">
        <ele>517.6</ele>
        <time>2013-09-06T07:13:33Z</time>
      </trkpt>
      <trkpt lat="-21.00793" lon="55.41234">
        <ele>518.5</ele>
        <time>2013-09-06T07:13:41Z</time>
      </trkpt>
      <trkpt lat="-21.00797" lon="55.41242">
        <ele>520.4</ele>
        <time>2013-09-06T07:13:52Z</time>
      </trkpt>
      <trkpt lat="-21.00802" lon="55.4125">
        <ele>520.1</ele>
        <time>2013-09-06T07:14:02Z</time>
      </trkpt>
      <trkpt lat="-21.00809" lon="55.41256">
        <ele>519.6</ele>
        <time>2013-09-06T07:14:29Z</time>
      </trkpt>
      <trkpt lat="-21.00813" lon="55.41264">
        <ele>520.8</ele>
        <time>2013-09-06T07:15:02Z</time>
      </trkpt>
      <trkpt lat="-21.00816" lon="55.41273">
        <ele>520.8</ele>
        <time>2013-09-06T07:15:09Z</time>
      </trkpt>
      <trkpt lat="-21.00817" lon="55.41282">
        <ele>522.6</ele>
        <time>2013-09-06T07:15:17Z</time>
      </trkpt>
      <trkpt lat="-21.00822" lon="55.41288">
        <ele>522.1</ele>
        <time>2013-09-06T07:15:28Z</time>
      </trkpt>
      <trkpt lat="-21.00827" lon="55.41295">
        <ele>523.1</ele>
        <time>2013-09-06T07:15:37Z</time>
      </trkpt>
      <trkpt lat="-21.00831" lon="55.41303">
        <ele>523.4</ele>
        <time>2013-09-06T07:15:47Z</time>
      </trkpt>
      <trkpt lat="-21.00838" lon="55.41309">
        <ele>524.2</ele>
        <time>2013-09-06T07:16:00Z</time>
      </trkpt>
      <trkpt lat="-21.00844" lon="55.41315">
        <ele>524.4</ele>
        <time>2013-09-06T07:16:13Z</time>
      </trkpt>
      <trkpt lat="-21.0085" lon="55.41322">
        <ele>526</ele>
        <time>2013-09-06T07:16:30Z</time>
      </trkpt>
      <trkpt lat="-21.00857" lon="55.41328">
        <ele>525.6</ele>
        <time>2013-09-06T07:16:44Z</time>
      </trkpt>
      <trkpt lat="-21.00864" lon="55.41334">
        <ele>527.1</ele>
        <time>2013-09-06T07:16:56Z</time>
      </trkpt>
      <trkpt lat="-21.00867" lon="55.41342">
        <ele>528</ele>
        <time>2013-09-06T07:17:08Z</time>
      </trkpt>
      <trkpt lat="-21.00859" lon="55.41347">
        <ele>528.5</ele>
        <time>2013-09-06T07:17:16Z</time>
      </trkpt>
      <trkpt lat="-21.00866" lon="55.41341">
        <ele>528.9</ele>
        <time>2013-09-06T07:18:54Z</time>
      </trkpt>
      <trkpt lat="-21.00874" lon="55.41354">
        <ele>531</ele>
        <time>2013-09-06T07:19:49Z</time>
      </trkpt>
      <trkpt lat="-21.00877" lon="55.41362">
        <ele>531.6</ele>
        <time>2013-09-06T07:20:03Z</time>
      </trkpt>
      <trkpt lat="-21.00875" lon="55.41371">
        <ele>532.4</ele>
        <time>2013-09-06T07:20:09Z</time>
      </trkpt>
      <trkpt lat="-21.00875" lon="55.41378">
        <ele>533</ele>
        <time>2013-09-06T07:20:26Z</time>
      </trkpt>
      <trkpt lat="-21.00876" lon="55.41391">
        <ele>533</ele>
        <time>2013-09-06T07:20:37Z</time>
      </trkpt>
      <trkpt lat="-21.00895" lon="55.41425">
        <ele>536</ele>
        <time>2013-09-06T07:21:33Z</time>
      </trkpt>
      <trkpt lat="-21.00904" lon="55.41424">
        <ele>537.3</ele>
        <time>2013-09-06T07:22:03Z</time>
      </trkpt>
      <trkpt lat="-21.00901" lon="55.41433">
        <ele>537.5</ele>
        <time>2013-09-06T07:22:11Z</time>
      </trkpt>
      <trkpt lat="-21.00904" lon="55.41441">
        <ele>538.1</ele>
        <time>2013-09-06T07:22:18Z</time>
      </trkpt>
      <trkpt lat="-21.00901" lon="55.41449">
        <ele>538.3</ele>
        <time>2013-09-06T07:22:28Z</time>
      </trkpt>
      <trkpt lat="-21.00908" lon="55.41453">
        <ele>539.3</ele>
        <time>2013-09-06T07:22:41Z</time>
      </trkpt>
      <trkpt lat="-21.00916" lon="55.41453">
        <ele>540.4</ele>
        <time>2013-09-06T07:22:47Z</time>
      </trkpt>
      <trkpt lat="-21.0091" lon="55.4146">
        <ele>541.9</ele>
        <time>2013-09-06T07:22:56Z</time>
      </trkpt>
      <trkpt lat="-21.00906" lon="55.41467">
        <ele>541.8</ele>
        <time>2013-09-06T07:23:04Z</time>
      </trkpt>
      <trkpt lat="-21.009" lon="55.41472">
        <ele>541.9</ele>
        <time>2013-09-06T07:23:08Z</time>
      </trkpt>
      <trkpt lat="-21.00902" lon="55.41481">
        <ele>542.2</ele>
        <time>2013-09-06T07:23:24Z</time>
      </trkpt>
      <trkpt lat="-21.00903" lon="55.41491">
        <ele>544.7</ele>
        <time>2013-09-06T07:23:41Z</time>
      </trkpt>
      <trkpt lat="-21.00898" lon="55.41498">
        <ele>544.8</ele>
        <time>2013-09-06T07:23:57Z</time>
      </trkpt>
      <trkpt lat="-21.00895" lon="55.41506">
        <ele>546.3</ele>
        <time>2013-09-06T07:24:09Z</time>
      </trkpt>
      <trkpt lat="-21.00892" lon="55.41515">
        <ele>546.3</ele>
        <time>2013-09-06T07:24:23Z</time>
      </trkpt>
      <trkpt lat="-21.00888" lon="55.41527">
        <ele>547</ele>
        <time>2013-09-06T07:24:40Z</time>
      </trkpt>
      <trkpt lat="-21.0089" lon="55.41537">
        <ele>548.5</ele>
        <time>2013-09-06T07:25:19Z</time>
      </trkpt>
      <trkpt lat="-21.00893" lon="55.41545">
        <ele>550.8</ele>
        <time>2013-09-06T07:25:37Z</time>
      </trkpt>
      <trkpt lat="-21.00885" lon="55.41548">
        <ele>553.4</ele>
        <time>2013-09-06T07:25:54Z</time>
      </trkpt>
      <trkpt lat="-21.00885" lon="55.41557">
        <ele>556.1</ele>
        <time>2013-09-06T07:26:09Z</time>
      </trkpt>
      <trkpt lat="-21.00885" lon="55.41566">
        <ele>555</ele>
        <time>2013-09-06T07:26:22Z</time>
      </trkpt>
      <trkpt lat="-21.00881" lon="55.41574">
        <ele>555.8</ele>
        <time>2013-09-06T07:26:30Z</time>
      </trkpt>
      <trkpt lat="-21.00887" lon="55.41581">
        <ele>555.7</ele>
        <time>2013-09-06T07:26:40Z</time>
      </trkpt>
      <trkpt lat="-21.00894" lon="55.41587">
        <ele>557</ele>
        <time>2013-09-06T07:26:50Z</time>
      </trkpt>
      <trkpt lat="-21.00896" lon="55.41596">
        <ele>556.9</ele>
        <time>2013-09-06T07:27:24Z</time>
      </trkpt>
      <trkpt lat="-21.00904" lon="55.41601">
        <ele>560</ele>
        <time>2013-09-06T07:27:43Z</time>
      </trkpt>
      <trkpt lat="-21.00912" lon="55.41602">
        <ele>560.9</ele>
        <time>2013-09-06T07:27:52Z</time>
      </trkpt>
      <trkpt lat="-21.0092" lon="55.41601">
        <ele>560.4</ele>
        <time>2013-09-06T07:28:01Z</time>
      </trkpt>
      <trkpt lat="-21.00929" lon="55.41603">
        <ele>560.1</ele>
        <time>2013-09-06T07:28:13Z</time>
      </trkpt>
      <trkpt lat="-21.00936" lon="55.41608">
        <ele>561.2</ele>
        <time>2013-09-06T07:28:29Z</time>
      </trkpt>
      <trkpt lat="-21.00941" lon="55.41615">
        <ele>560.1</ele>
        <time>2013-09-06T07:28:42Z</time>
      </trkpt>
      <trkpt lat="-21.00949" lon="55.4162">
        <ele>560.7</ele>
        <time>2013-09-06T07:28:54Z</time>
      </trkpt>
      <trkpt lat="-21.00953" lon="55.41628">
        <ele>561.5</ele>
        <time>2013-09-06T07:28:59Z</time>
      </trkpt>
      <trkpt lat="-21.00957" lon="55.41636">
        <ele>561.6</ele>
        <time>2013-09-06T07:29:06Z</time>
      </trkpt>
      <trkpt lat="-21.00964" lon="55.41644">
        <ele>563.9</ele>
        <time>2013-09-06T07:29:19Z</time>
      </trkpt>
      <trkpt lat="-21.00962" lon="55.4165">
        <ele>564.3</ele>
        <time>2013-09-06T07:29:21Z</time>
      </trkpt>
      <trkpt lat="-21.0096" lon="55.41657">
        <ele>564.5</ele>
        <time>2013-09-06T07:29:23Z</time>
      </trkpt>
      <trkpt lat="-21.00957" lon="55.41664">
        <ele>564.5</ele>
        <time>2013-09-06T07:29:25Z</time>
      </trkpt>
      <trkpt lat="-21.00954" lon="55.41672">
        <ele>564.7</ele>
        <time>2013-09-06T07:29:28Z</time>
      </trkpt>
      <trkpt lat="-21.00954" lon="55.41681">
        <ele>565.3</ele>
        <time>2013-09-06T07:29:32Z</time>
      </trkpt>
      <trkpt lat="-21.0096" lon="55.41672">
        <ele>566.3</ele>
        <time>2013-09-06T07:29:46Z</time>
      </trkpt>
      <trkpt lat="-21.00965" lon="55.41665">
        <ele>565.9</ele>
        <time>2013-09-06T07:29:52Z</time>
      </trkpt>
      <trkpt lat="-21.00969" lon="55.41658">
        <ele>565.7</ele>
        <time>2013-09-06T07:29:56Z</time>
      </trkpt>
      <trkpt lat="-21.00972" lon="55.41649">
        <ele>566.3</ele>
        <time>2013-09-06T07:30:03Z</time>
      </trkpt>
      <trkpt lat="-21.00975" lon="55.41642">
        <ele>565.8</ele>
        <time>2013-09-06T07:30:13Z</time>
      </trkpt>
      <trkpt lat="-21.00982" lon="55.41636">
        <ele>566.6</ele>
        <time>2013-09-06T07:30:25Z</time>
      </trkpt>
      <trkpt lat="-21.00988" lon="55.41628">
        <ele>568.6</ele>
        <time>2013-09-06T07:30:38Z</time>
      </trkpt>
      <trkpt lat="-21.00991" lon="55.41623">
        <ele>568.9</ele>
        <time>2013-09-06T07:30:40Z</time>
      </trkpt>
      <trkpt lat="-21.01003" lon="55.41609">
        <ele>569</ele>
        <time>2013-09-06T07:30:44Z</time>
      </trkpt>
      <trkpt lat="-21.0101" lon="55.41616">
        <ele>570</ele>
        <time>2013-09-06T07:30:56Z</time>
      </trkpt>
      <trkpt lat="-21.01006" lon="55.41624">
        <ele>570.9</ele>
        <time>2013-09-06T07:31:00Z</time>
      </trkpt>
      <trkpt lat="-21.01005" lon="55.41632">
        <ele>570.4</ele>
        <time>2013-09-06T07:31:05Z</time>
      </trkpt>
      <trkpt lat="-21.01003" lon="55.41641">
        <ele>569.4</ele>
        <time>2013-09-06T07:31:13Z</time>
      </trkpt>
      <trkpt lat="-21.01005" lon="55.41649">
        <ele>570.1</ele>
        <time>2013-09-06T07:31:25Z</time>
      </trkpt>
      <trkpt lat="-21.01005" lon="55.41658">
        <ele>569.1</ele>
        <time>2013-09-06T07:31:32Z</time>
      </trkpt>
      <trkpt lat="-21.01008" lon="55.41667">
        <ele>570.1</ele>
        <time>2013-09-06T07:31:40Z</time>
      </trkpt>
      <trkpt lat="-21.01012" lon="55.41675">
        <ele>570.7</ele>
        <time>2013-09-06T07:31:57Z</time>
      </trkpt>
      <trkpt lat="-21.0102" lon="55.41676">
        <ele>575.8</ele>
        <time>2013-09-06T07:33:01Z</time>
      </trkpt>
      <trkpt lat="-21.01025" lon="55.41684">
        <ele>577.2</ele>
        <time>2013-09-06T07:33:11Z</time>
      </trkpt>
      <trkpt lat="-21.01028" lon="55.41692">
        <ele>578</ele>
        <time>2013-09-06T07:33:23Z</time>
      </trkpt>
      <trkpt lat="-21.01033" lon="55.417">
        <ele>580.2</ele>
        <time>2013-09-06T07:33:34Z</time>
      </trkpt>
      <trkpt lat="-21.01036" lon="55.41709">
        <ele>580.7</ele>
        <time>2013-09-06T07:33:49Z</time>
      </trkpt>
      <trkpt lat="-21.01036" lon="55.41719">
        <ele>585.8</ele>
        <time>2013-09-06T07:34:17Z</time>
      </trkpt>
      <trkpt lat="-21.01039" lon="55.41728">
        <ele>587.2</ele>
        <time>2013-09-06T07:34:24Z</time>
      </trkpt>
      <trkpt lat="-21.01043" lon="55.41739">
        <ele>587</ele>
        <time>2013-09-06T07:34:32Z</time>
      </trkpt>
      <trkpt lat="-21.01049" lon="55.41745">
        <ele>588.2</ele>
        <time>2013-09-06T07:34:53Z</time>
      </trkpt>
      <trkpt lat="-21.01055" lon="55.41754">
        <ele>589.4</ele>
        <time>2013-09-06T07:35:09Z</time>
      </trkpt>
      <trkpt lat="-21.01061" lon="55.41761">
        <ele>589.6</ele>
        <time>2013-09-06T07:35:22Z</time>
      </trkpt>
      <trkpt lat="-21.01065" lon="55.4177">
        <ele>590.1</ele>
        <time>2013-09-06T07:35:29Z</time>
      </trkpt>
      <trkpt lat="-21.01072" lon="55.41775">
        <ele>591</ele>
        <time>2013-09-06T07:36:00Z</time>
      </trkpt>
      <trkpt lat="-21.0108" lon="55.41778">
        <ele>592</ele>
        <time>2013-09-06T07:36:21Z</time>
      </trkpt>
      <trkpt lat="-21.01088" lon="55.41773">
        <ele>592.5</ele>
        <time>2013-09-06T07:36:50Z</time>
      </trkpt>
      <trkpt lat="-21.01082" lon="55.4178">
        <ele>595.1</ele>
        <time>2013-09-06T07:37:19Z</time>
      </trkpt>
      <trkpt lat="-21.01085" lon="55.41789">
        <ele>597.9</ele>
        <time>2013-09-06T07:37:33Z</time>
      </trkpt>
      <trkpt lat="-21.01092" lon="55.41795">
        <ele>600.5</ele>
        <time>2013-09-06T07:37:48Z</time>
      </trkpt>
      <trkpt lat="-21.01093" lon="55.41804">
        <ele>602.6</ele>
        <time>2013-09-06T07:38:00Z</time>
      </trkpt>
      <trkpt lat="-21.01093" lon="55.41814">
        <ele>602.6</ele>
        <time>2013-09-06T07:38:09Z</time>
      </trkpt>
      <trkpt lat="-21.01093" lon="55.41805">
        <ele>603.7</ele>
        <time>2013-09-06T07:39:10Z</time>
      </trkpt>
      <trkpt lat="-21.01094" lon="55.41814">
        <ele>606.7</ele>
        <time>2013-09-06T07:39:27Z</time>
      </trkpt>
      <trkpt lat="-21.01101" lon="55.41819">
        <ele>609.1</ele>
        <time>2013-09-06T07:39:39Z</time>
      </trkpt>
      <trkpt lat="-21.01107" lon="55.41831">
        <ele>610</ele>
        <time>2013-09-06T07:39:48Z</time>
      </trkpt>
      <trkpt lat="-21.01115" lon="55.41834">
        <ele>610.2</ele>
        <time>2013-09-06T07:40:01Z</time>
      </trkpt>
      <trkpt lat="-21.01117" lon="55.41846">
        <ele>609.8</ele>
        <time>2013-09-06T07:40:11Z</time>
      </trkpt>
      <trkpt lat="-21.0112" lon="55.41841">
        <ele>610</ele>
        <time>2013-09-06T07:40:14Z</time>
      </trkpt>
      <trkpt lat="-21.01124" lon="55.41833">
        <ele>610.3</ele>
        <time>2013-09-06T07:40:16Z</time>
      </trkpt>
      <trkpt lat="-21.01129" lon="55.41824">
        <ele>610</ele>
        <time>2013-09-06T07:40:20Z</time>
      </trkpt>
      <trkpt lat="-21.01129" lon="55.41843">
        <ele>612</ele>
        <time>2013-09-06T07:40:37Z</time>
      </trkpt>
      <trkpt lat="-21.01135" lon="55.4185">
        <ele>612.9</ele>
        <time>2013-09-06T07:40:46Z</time>
      </trkpt>
      <trkpt lat="-21.0114" lon="55.41856">
        <ele>613.1</ele>
        <time>2013-09-06T07:40:53Z</time>
      </trkpt>
      <trkpt lat="-21.01145" lon="55.41863">
        <ele>614.1</ele>
        <time>2013-09-06T07:40:59Z</time>
      </trkpt>
      <trkpt lat="-21.0115" lon="55.41869">
        <ele>616</ele>
        <time>2013-09-06T07:41:07Z</time>
      </trkpt>
      <trkpt lat="-21.01158" lon="55.41872">
        <ele>615.7</ele>
        <time>2013-09-06T07:41:19Z</time>
      </trkpt>
      <trkpt lat="-21.01161" lon="55.41885">
        <ele>617</ele>
        <time>2013-09-06T07:41:36Z</time>
      </trkpt>
      <trkpt lat="-21.01165" lon="55.41893">
        <ele>618.5</ele>
        <time>2013-09-06T07:41:44Z</time>
      </trkpt>
      <trkpt lat="-21.01168" lon="55.41901">
        <ele>618.2</ele>
        <time>2013-09-06T07:41:54Z</time>
      </trkpt>
      <trkpt lat="-21.01176" lon="55.41903">
        <ele>620.5</ele>
        <time>2013-09-06T07:42:08Z</time>
      </trkpt>
      <trkpt lat="-21.01183" lon="55.41898">
        <ele>621.6</ele>
        <time>2013-09-06T07:42:16Z</time>
      </trkpt>
      <trkpt lat="-21.01192" lon="55.41897">
        <ele>622.7</ele>
        <time>2013-09-06T07:42:29Z</time>
      </trkpt>
      <trkpt lat="-21.01198" lon="55.41903">
        <ele>622.8</ele>
        <time>2013-09-06T07:42:36Z</time>
      </trkpt>
      <trkpt lat="-21.01203" lon="55.41911">
        <ele>624.6</ele>
        <time>2013-09-06T07:42:43Z</time>
      </trkpt>
      <trkpt lat="-21.01209" lon="55.41918">
        <ele>625</ele>
        <time>2013-09-06T07:43:01Z</time>
      </trkpt>
      <trkpt lat="-21.01216" lon="55.41912">
        <ele>631</ele>
        <time>2013-09-06T07:44:10Z</time>
      </trkpt>
      <trkpt lat="-21.01218" lon="55.41933">
        <ele>633</ele>
        <time>2013-09-06T07:44:20Z</time>
      </trkpt>
      <trkpt lat="-21.01219" lon="55.41943">
        <ele>633</ele>
        <time>2013-09-06T07:44:24Z</time>
      </trkpt>
      <trkpt lat="-21.01213" lon="55.41924">
        <ele>636</ele>
        <time>2013-09-06T07:44:37Z</time>
      </trkpt>
      <trkpt lat="-21.01209" lon="55.41954">
        <ele>639</ele>
        <time>2013-09-06T07:44:55Z</time>
      </trkpt>
      <trkpt lat="-21.01216" lon="55.41983">
        <ele>640</ele>
        <time>2013-09-06T07:45:05Z</time>
      </trkpt>
      <trkpt lat="-21.01223" lon="55.41996">
        <ele>642</ele>
        <time>2013-09-06T07:45:17Z</time>
      </trkpt>
      <trkpt lat="-21.01234" lon="55.42001">
        <ele>647</ele>
        <time>2013-09-06T07:45:37Z</time>
      </trkpt>
      <trkpt lat="-21.01235" lon="55.42015">
        <ele>649</ele>
        <time>2013-09-06T07:45:57Z</time>
      </trkpt>
      <trkpt lat="-21.01247" lon="55.42023">
        <ele>650</ele>
        <time>2013-09-06T07:46:09Z</time>
      </trkpt>
      <trkpt lat="-21.0126" lon="55.42026">
        <ele>652</ele>
        <time>2013-09-06T07:46:21Z</time>
      </trkpt>
      <trkpt lat="-21.01271" lon="55.42026">
        <ele>654</ele>
        <time>2013-09-06T07:46:33Z</time>
      </trkpt>
      <trkpt lat="-21.01282" lon="55.4203">
        <ele>656</ele>
        <time>2013-09-06T07:46:49Z</time>
      </trkpt>
      <trkpt lat="-21.0129" lon="55.42039">
        <ele>659</ele>
        <time>2013-09-06T07:47:06Z</time>
      </trkpt>
      <trkpt lat="-21.01298" lon="55.42048">
        <ele>660</ele>
        <time>2013-09-06T07:47:14Z</time>
      </trkpt>
      <trkpt lat="-21.01303" lon="55.42058">
        <ele>663</ele>
        <time>2013-09-06T07:47:27Z</time>
      </trkpt>
      <trkpt lat="-21.01307" lon="55.42049">
        <ele>667</ele>
        <time>2013-09-06T07:47:51Z</time>
      </trkpt>
      <trkpt lat="-21.01301" lon="55.42059">
        <ele>670</ele>
        <time>2013-09-06T07:48:08Z</time>
      </trkpt>
      <trkpt lat="-21.01313" lon="55.4207">
        <ele>672</ele>
        <time>2013-09-06T07:48:16Z</time>
      </trkpt>
      <trkpt lat="-21.01323" lon="55.4207">
        <ele>676</ele>
        <time>2013-09-06T07:48:40Z</time>
      </trkpt>
      <trkpt lat="-21.01328" lon="55.4208">
        <ele>679</ele>
        <time>2013-09-06T07:49:15Z</time>
      </trkpt>
      <trkpt lat="-21.01328" lon="55.42091">
        <ele>679</ele>
        <time>2013-09-06T07:49:23Z</time>
      </trkpt>
      <trkpt lat="-21.01338" lon="55.42093">
        <ele>679</ele>
        <time>2013-09-06T07:49:55Z</time>
      </trkpt>
      <trkpt lat="-21.01341" lon="55.42103">
        <ele>681</ele>
        <time>2013-09-06T07:50:07Z</time>
      </trkpt>
      <trkpt lat="-21.01358" lon="55.42094">
        <ele>687</ele>
        <time>2013-09-06T07:50:43Z</time>
      </trkpt>
      <trkpt lat="-21.01361" lon="55.42106">
        <ele>691</ele>
        <time>2013-09-06T07:50:59Z</time>
      </trkpt>
      <trkpt lat="-21.01361" lon="55.42116">
        <ele>694</ele>
        <time>2013-09-06T07:51:20Z</time>
      </trkpt>
      <trkpt lat="-21.01372" lon="55.42133">
        <ele>701</ele>
        <time>2013-09-06T07:51:59Z</time>
      </trkpt>
      <trkpt lat="-21.01376" lon="55.42141">
        <ele>706</ele>
        <time>2013-09-06T07:52:29Z</time>
      </trkpt>
      <trkpt lat="-21.01377" lon="55.42152">
        <ele>708</ele>
        <time>2013-09-06T07:52:51Z</time>
      </trkpt>
      <trkpt lat="-21.01374" lon="55.42162">
        <ele>709</ele>
        <time>2013-09-06T07:53:15Z</time>
      </trkpt>
      <trkpt lat="-21.01391" lon="55.42174">
        <ele>713</ele>
        <time>2013-09-06T07:53:37Z</time>
      </trkpt>
      <trkpt lat="-21.01397" lon="55.42183">
        <ele>716</ele>
        <time>2013-09-06T07:53:50Z</time>
      </trkpt>
      <trkpt lat="-21.01399" lon="55.42197">
        <ele>724</ele>
        <time>2013-09-06T07:54:33Z</time>
      </trkpt>
      <trkpt lat="-21.01392" lon="55.42191">
        <ele>725</ele>
        <time>2013-09-06T07:55:11Z</time>
      </trkpt>
      <trkpt lat="-21.01416" lon="55.42215">
        <ele>725</ele>
        <time>2013-09-06T07:55:23Z</time>
      </trkpt>
      <trkpt lat="-21.01407" lon="55.42206">
        <ele>725</ele>
        <time>2013-09-06T07:55:33Z</time>
      </trkpt>
      <trkpt lat="-21.01407" lon="55.42215">
        <ele>738.3</ele>
        <time>2013-09-06T07:57:12Z</time>
      </trkpt>
      <trkpt lat="-21.01411" lon="55.42223">
        <ele>739</ele>
        <time>2013-09-06T07:57:17Z</time>
      </trkpt>
      <trkpt lat="-21.01415" lon="55.42231">
        <ele>745.1</ele>
        <time>2013-09-06T07:57:54Z</time>
      </trkpt>
      <trkpt lat="-21.01423" lon="55.42234">
        <ele>747.1</ele>
        <time>2013-09-06T07:58:05Z</time>
      </trkpt>
      <trkpt lat="-21.01418" lon="55.42241">
        <ele>752.1</ele>
        <time>2013-09-06T07:58:30Z</time>
      </trkpt>
      <trkpt lat="-21.01414" lon="55.42248">
        <ele>753.6</ele>
        <time>2013-09-06T07:58:39Z</time>
      </trkpt>
      <trkpt lat="-21.01413" lon="55.42258">
        <ele>754</ele>
        <time>2013-09-06T07:58:46Z</time>
      </trkpt>
      <trkpt lat="-21.01418" lon="55.4227">
        <ele>755</ele>
        <time>2013-09-06T07:58:54Z</time>
      </trkpt>
      <trkpt lat="-21.01419" lon="55.42279">
        <ele>755.8</ele>
        <time>2013-09-06T07:59:00Z</time>
      </trkpt>
      <trkpt lat="-21.01418" lon="55.4229">
        <ele>756</ele>
        <time>2013-09-06T07:59:13Z</time>
      </trkpt>
      <trkpt lat="-21.01423" lon="55.42299">
        <ele>756</ele>
        <time>2013-09-06T07:59:26Z</time>
      </trkpt>
      <trkpt lat="-21.01423" lon="55.42308">
        <ele>757.9</ele>
        <time>2013-09-06T07:59:33Z</time>
      </trkpt>
      <trkpt lat="-21.01438" lon="55.42305">
        <ele>763</ele>
        <time>2013-09-06T08:00:00Z</time>
      </trkpt>
      <trkpt lat="-21.01447" lon="55.42309">
        <ele>767</ele>
        <time>2013-09-06T08:00:14Z</time>
      </trkpt>
      <trkpt lat="-21.01438" lon="55.42314">
        <ele>770</ele>
        <time>2013-09-06T08:00:34Z</time>
      </trkpt>
      <trkpt lat="-21.01447" lon="55.42314">
        <ele>774</ele>
        <time>2013-09-06T08:00:52Z</time>
      </trkpt>
      <trkpt lat="-21.01464" lon="55.42333">
        <ele>779</ele>
        <time>2013-09-06T08:01:15Z</time>
      </trkpt>
      <trkpt lat="-21.01474" lon="55.42331">
        <ele>785</ele>
        <time>2013-09-06T08:01:33Z</time>
      </trkpt>
      <trkpt lat="-21.01465" lon="55.4232">
        <ele>787</ele>
        <time>2013-09-06T08:01:42Z</time>
      </trkpt>
      <trkpt lat="-21.01468" lon="55.42329">
        <ele>796.7</ele>
        <time>2013-09-06T08:03:56Z</time>
      </trkpt>
      <trkpt lat="-21.01465" lon="55.42336">
        <ele>797.3</ele>
        <time>2013-09-06T08:04:00Z</time>
      </trkpt>
      <trkpt lat="-21.01473" lon="55.42345">
        <ele>799</ele>
        <time>2013-09-06T08:04:12Z</time>
      </trkpt>
      <trkpt lat="-21.01487" lon="55.42352">
        <ele>803</ele>
        <time>2013-09-06T08:04:37Z</time>
      </trkpt>
      <trkpt lat="-21.01496" lon="55.42357">
        <ele>806</ele>
        <time>2013-09-06T08:04:53Z</time>
      </trkpt>
      <trkpt lat="-21.01501" lon="55.42373">
        <ele>813</ele>
        <time>2013-09-06T08:05:29Z</time>
      </trkpt>
      <trkpt lat="-21.01501" lon="55.42384">
        <ele>817</ele>
        <time>2013-09-06T08:05:43Z</time>
      </trkpt>
      <trkpt lat="-21.01507" lon="55.42371">
        <ele>819</ele>
        <time>2013-09-06T08:05:56Z</time>
      </trkpt>
      <trkpt lat="-21.01508" lon="55.42385">
        <ele>824</ele>
        <time>2013-09-06T08:06:17Z</time>
      </trkpt>
      <trkpt lat="-21.01517" lon="55.42389">
        <ele>830</ele>
        <time>2013-09-06T08:06:47Z</time>
      </trkpt>
      <trkpt lat="-21.01528" lon="55.42395">
        <ele>835</ele>
        <time>2013-09-06T08:07:09Z</time>
      </trkpt>
      <trkpt lat="-21.01538" lon="55.42401">
        <ele>837</ele>
        <time>2013-09-06T08:07:24Z</time>
      </trkpt>
      <trkpt lat="-21.01546" lon="55.42411">
        <ele>838</ele>
        <time>2013-09-06T08:07:38Z</time>
      </trkpt>
      <trkpt lat="-21.01556" lon="55.42411">
        <ele>838</ele>
        <time>2013-09-06T08:07:46Z</time>
      </trkpt>
      <trkpt lat="-21.01567" lon="55.42415">
        <ele>834</ele>
        <time>2013-09-06T08:07:58Z</time>
      </trkpt>
      <trkpt lat="-21.01577" lon="55.42422">
        <ele>834</ele>
        <time>2013-09-06T08:08:14Z</time>
      </trkpt>
      <trkpt lat="-21.0159" lon="55.42425">
        <ele>837</ele>
        <time>2013-09-06T08:08:37Z</time>
      </trkpt>
      <trkpt lat="-21.01598" lon="55.42428">
        <ele>845</ele>
        <time>2013-09-06T08:09:09Z</time>
      </trkpt>
      <trkpt lat="-21.01602" lon="55.42409">
        <ele>853</ele>
        <time>2013-09-06T08:09:41Z</time>
      </trkpt>
      <trkpt lat="-21.01598" lon="55.42399">
        <ele>856</ele>
        <time>2013-09-06T08:09:57Z</time>
      </trkpt>
      <trkpt lat="-21.0161" lon="55.42404">
        <ele>859</ele>
        <time>2013-09-06T08:11:04Z</time>
      </trkpt>
      <trkpt lat="-21.01625" lon="55.42411">
        <ele>868</ele>
        <time>2013-09-06T08:12:47Z</time>
      </trkpt>
      <trkpt lat="-21.01627" lon="55.42395">
        <ele>873</ele>
        <time>2013-09-06T08:13:09Z</time>
      </trkpt>
      <trkpt lat="-21.01615" lon="55.42396">
        <ele>876</ele>
        <time>2013-09-06T08:13:23Z</time>
      </trkpt>
      <trkpt lat="-21.01615" lon="55.42383">
        <ele>876</ele>
        <time>2013-09-06T08:13:37Z</time>
      </trkpt>
      <trkpt lat="-21.01602" lon="55.42375">
        <ele>878</ele>
        <time>2013-09-06T08:13:45Z</time>
      </trkpt>
      <trkpt lat="-21.0159" lon="55.42377">
        <ele>880</ele>
        <time>2013-09-06T08:13:56Z</time>
      </trkpt>
      <trkpt lat="-21.01595" lon="55.42368">
        <ele>887.7</ele>
        <time>2013-09-06T08:14:26Z</time>
      </trkpt>
      <trkpt lat="-21.01602" lon="55.42365">
        <ele>891.8</ele>
        <time>2013-09-06T08:14:41Z</time>
      </trkpt>
      <trkpt lat="-21.01609" lon="55.42356">
        <ele>895</ele>
        <time>2013-09-06T08:15:00Z</time>
      </trkpt>
      <trkpt lat="-21.01619" lon="55.42352">
        <ele>899</ele>
        <time>2013-09-06T08:15:16Z</time>
      </trkpt>
      <trkpt lat="-21.01615" lon="55.4234">
        <ele>903</ele>
        <time>2013-09-06T08:15:32Z</time>
      </trkpt>
      <trkpt lat="-21.01623" lon="55.42345">
        <ele>910.4</ele>
        <time>2013-09-06T08:16:06Z</time>
      </trkpt>
      <trkpt lat="-21.01628" lon="55.42339">
        <ele>912.3</ele>
        <time>2013-09-06T08:16:20Z</time>
      </trkpt>
      <trkpt lat="-21.01636" lon="55.42347">
        <ele>923</ele>
        <time>2013-09-06T08:17:12Z</time>
      </trkpt>
      <trkpt lat="-21.01634" lon="55.42359">
        <ele>925</ele>
        <time>2013-09-06T08:17:22Z</time>
      </trkpt>
      <trkpt lat="-21.01631" lon="55.4237">
        <ele>928</ele>
        <time>2013-09-06T08:17:30Z</time>
      </trkpt>
      <trkpt lat="-21.01629" lon="55.42362">
        <ele>930.3</ele>
        <time>2013-09-06T08:17:37Z</time>
      </trkpt>
      <trkpt lat="-21.01625" lon="55.4235">
        <ele>930.8</ele>
        <time>2013-09-06T08:17:42Z</time>
      </trkpt>
      <trkpt lat="-21.01625" lon="55.42341">
        <ele>932.3</ele>
        <time>2013-09-06T08:17:48Z</time>
      </trkpt>
      <trkpt lat="-21.01628" lon="55.42349">
        <ele>940.7</ele>
        <time>2013-09-06T08:18:24Z</time>
      </trkpt>
      <trkpt lat="-21.01634" lon="55.42357">
        <ele>942.3</ele>
        <time>2013-09-06T08:18:37Z</time>
      </trkpt>
      <trkpt lat="-21.01634" lon="55.42366">
        <ele>941.9</ele>
        <time>2013-09-06T08:18:43Z</time>
      </trkpt>
      <trkpt lat="-21.01637" lon="55.42378">
        <ele>944.9</ele>
        <time>2013-09-06T08:19:13Z</time>
      </trkpt>
      <trkpt lat="-21.01641" lon="55.42385">
        <ele>944.7</ele>
        <time>2013-09-06T08:19:18Z</time>
      </trkpt>
      <trkpt lat="-21.01646" lon="55.42392">
        <ele>943.9</ele>
        <time>2013-09-06T08:19:23Z</time>
      </trkpt>
      <trkpt lat="-21.0165" lon="55.424">
        <ele>944.2</ele>
        <time>2013-09-06T08:19:28Z</time>
      </trkpt>
      <trkpt lat="-21.01655" lon="55.42408">
        <ele>944.4</ele>
        <time>2013-09-06T08:19:34Z</time>
      </trkpt>
      <trkpt lat="-21.01659" lon="55.42416">
        <ele>944.9</ele>
        <time>2013-09-06T08:19:39Z</time>
      </trkpt>
      <trkpt lat="-21.0166" lon="55.42425">
        <ele>946.1</ele>
        <time>2013-09-06T08:19:47Z</time>
      </trkpt>
      <trkpt lat="-21.01657" lon="55.42436">
        <ele>948</ele>
        <time>2013-09-06T08:19:59Z</time>
      </trkpt>
      <trkpt lat="-21.01657" lon="55.42446">
        <ele>951</ele>
        <time>2013-09-06T08:20:10Z</time>
      </trkpt>
      <trkpt lat="-21.01658" lon="55.42455">
        <ele>953.4</ele>
        <time>2013-09-06T08:20:22Z</time>
      </trkpt>
      <trkpt lat="-21.0166" lon="55.42463">
        <ele>955.4</ele>
        <time>2013-09-06T08:20:34Z</time>
      </trkpt>
      <trkpt lat="-21.0166" lon="55.42472">
        <ele>957.5</ele>
        <time>2013-09-06T08:20:42Z</time>
      </trkpt>
      <trkpt lat="-21.01661" lon="55.4248">
        <ele>959.4</ele>
        <time>2013-09-06T08:20:50Z</time>
      </trkpt>
      <trkpt lat="-21.0167" lon="55.42476">
        <ele>962</ele>
        <time>2013-09-06T08:21:08Z</time>
      </trkpt>
      <trkpt lat="-21.01677" lon="55.42481">
        <ele>962.9</ele>
        <time>2013-09-06T08:21:16Z</time>
      </trkpt>
      <trkpt lat="-21.01684" lon="55.42484">
        <ele>963.4</ele>
        <time>2013-09-06T08:21:21Z</time>
      </trkpt>
      <trkpt lat="-21.01692" lon="55.42488">
        <ele>963.1</ele>
        <time>2013-09-06T08:21:26Z</time>
      </trkpt>
      <trkpt lat="-21.01696" lon="55.42495">
        <ele>963.1</ele>
        <time>2013-09-06T08:21:31Z</time>
      </trkpt>
      <trkpt lat="-21.01703" lon="55.425">
        <ele>963.9</ele>
        <time>2013-09-06T08:21:37Z</time>
      </trkpt>
      <trkpt lat="-21.01708" lon="55.42508">
        <ele>965</ele>
        <time>2013-09-06T08:21:48Z</time>
      </trkpt>
      <trkpt lat="-21.01713" lon="55.42516">
        <ele>965.3</ele>
        <time>2013-09-06T08:23:00Z</time>
      </trkpt>
      <trkpt lat="-21.01722" lon="55.42517">
        <ele>964.8</ele>
        <time>2013-09-06T08:23:12Z</time>
      </trkpt>
      <trkpt lat="-21.01729" lon="55.42512">
        <ele>965.8</ele>
        <time>2013-09-06T08:23:23Z</time>
      </trkpt>
      <trkpt lat="-21.01735" lon="55.42506">
        <ele>967.6</ele>
        <time>2013-09-06T08:23:35Z</time>
      </trkpt>
      <trkpt lat="-21.01744" lon="55.42504">
        <ele>969.4</ele>
        <time>2013-09-06T08:23:47Z</time>
      </trkpt>
      <trkpt lat="-21.01752" lon="55.42503">
        <ele>969.3</ele>
        <time>2013-09-06T08:23:57Z</time>
      </trkpt>
      <trkpt lat="-21.01761" lon="55.42501">
        <ele>968.6</ele>
        <time>2013-09-06T08:24:05Z</time>
      </trkpt>
      <trkpt lat="-21.01767" lon="55.42496">
        <ele>968.5</ele>
        <time>2013-09-06T08:24:11Z</time>
      </trkpt>
      <trkpt lat="-21.01775" lon="55.42497">
        <ele>966.7</ele>
        <time>2013-09-06T08:24:17Z</time>
      </trkpt>
      <trkpt lat="-21.01784" lon="55.42498">
        <ele>966.4</ele>
        <time>2013-09-06T08:24:23Z</time>
      </trkpt>
      <trkpt lat="-21.01792" lon="55.42502">
        <ele>966.1</ele>
        <time>2013-09-06T08:24:30Z</time>
      </trkpt>
      <trkpt lat="-21.018" lon="55.42503">
        <ele>965.2</ele>
        <time>2013-09-06T08:24:37Z</time>
      </trkpt>
      <trkpt lat="-21.01809" lon="55.42505">
        <ele>964.1</ele>
        <time>2013-09-06T08:24:44Z</time>
      </trkpt>
      <trkpt lat="-21.01817" lon="55.42504">
        <ele>962.7</ele>
        <time>2013-09-06T08:24:50Z</time>
      </trkpt>
      <trkpt lat="-21.01825" lon="55.42505">
        <ele>960.9</ele>
        <time>2013-09-06T08:24:56Z</time>
      </trkpt>
      <trkpt lat="-21.01833" lon="55.42505">
        <ele>960</ele>
        <time>2013-09-06T08:25:03Z</time>
      </trkpt>
      <trkpt lat="-21.01842" lon="55.42505">
        <ele>957.8</ele>
        <time>2013-09-06T08:25:11Z</time>
      </trkpt>
      <trkpt lat="-21.0185" lon="55.42509">
        <ele>955.7</ele>
        <time>2013-09-06T08:25:18Z</time>
      </trkpt>
      <trkpt lat="-21.01857" lon="55.42514">
        <ele>953.7</ele>
        <time>2013-09-06T08:25:26Z</time>
      </trkpt>
      <trkpt lat="-21.01861" lon="55.42521">
        <ele>952.7</ele>
        <time>2013-09-06T08:25:33Z</time>
      </trkpt>
      <trkpt lat="-21.0187" lon="55.42524">
        <ele>952.3</ele>
        <time>2013-09-06T08:25:40Z</time>
      </trkpt>
      <trkpt lat="-21.01877" lon="55.42528">
        <ele>952.5</ele>
        <time>2013-09-06T08:25:46Z</time>
      </trkpt>
      <trkpt lat="-21.01884" lon="55.42531">
        <ele>952.7</ele>
        <time>2013-09-06T08:25:52Z</time>
      </trkpt>
      <trkpt lat="-21.01891" lon="55.42536">
        <ele>952.8</ele>
        <time>2013-09-06T08:25:59Z</time>
      </trkpt>
      <trkpt lat="-21.019" lon="55.42536">
        <ele>951.6</ele>
        <time>2013-09-06T08:26:07Z</time>
      </trkpt>
      <trkpt lat="-21.01909" lon="55.42536">
        <ele>949.8</ele>
        <time>2013-09-06T08:26:16Z</time>
      </trkpt>
      <trkpt lat="-21.01916" lon="55.4254">
        <ele>946.8</ele>
        <time>2013-09-06T08:26:24Z</time>
      </trkpt>
      <trkpt lat="-21.01922" lon="55.42534">
        <ele>945.8</ele>
        <time>2013-09-06T08:26:32Z</time>
      </trkpt>
      <trkpt lat="-21.01928" lon="55.42529">
        <ele>944</ele>
        <time>2013-09-06T08:26:38Z</time>
      </trkpt>
      <trkpt lat="-21.01936" lon="55.42524">
        <ele>943</ele>
        <time>2013-09-06T08:26:45Z</time>
      </trkpt>
      <trkpt lat="-21.01944" lon="55.42527">
        <ele>942.6</ele>
        <time>2013-09-06T08:26:55Z</time>
      </trkpt>
      <trkpt lat="-21.0195" lon="55.42521">
        <ele>942.9</ele>
        <time>2013-09-06T08:27:06Z</time>
      </trkpt>
      <trkpt lat="-21.01965" lon="55.42513">
        <ele>942</ele>
        <time>2013-09-06T08:27:24Z</time>
      </trkpt>
      <trkpt lat="-21.01961" lon="55.42502">
        <ele>943.4</ele>
        <time>2013-09-06T08:27:30Z</time>
      </trkpt>
      <trkpt lat="-21.01953" lon="55.42491">
        <ele>944.2</ele>
        <time>2013-09-06T08:27:38Z</time>
      </trkpt>
      <trkpt lat="-21.01953" lon="55.42491">
        <ele>944.2</ele>
        <time>2013-09-06T08:27:38Z</time>
      </trkpt>
      <trkpt lat="-21.01949" lon="55.42496">
        <ele>943.2</ele>
        <time>2013-09-06T08:27:49Z</time>
      </trkpt>
      <trkpt lat="-21.01935" lon="55.42508">
        <ele>944.7</ele>
        <time>2013-09-06T09:05:33Z</time>
      </trkpt>
      <trkpt lat="-21.01943" lon="55.4251">
        <ele>943.5</ele>
        <time>2013-09-06T09:05:41Z</time>
      </trkpt>
      <trkpt lat="-21.0195" lon="55.42506">
        <ele>944.2</ele>
        <time>2013-09-06T09:05:47Z</time>
      </trkpt>
      <trkpt lat="-21.01955" lon="55.42499">
        <ele>944.4</ele>
        <time>2013-09-06T09:05:53Z</time>
      </trkpt>
      <trkpt lat="-21.01962" lon="55.42493">
        <ele>942.9</ele>
        <time>2013-09-06T09:06:00Z</time>
      </trkpt>
      <trkpt lat="-21.01966" lon="55.42485">
        <ele>941.4</ele>
        <time>2013-09-06T09:06:06Z</time>
      </trkpt>
      <trkpt lat="-21.01969" lon="55.42477">
        <ele>940.2</ele>
        <time>2013-09-06T09:06:12Z</time>
      </trkpt>
      <trkpt lat="-21.01974" lon="55.4247">
        <ele>940.6</ele>
        <time>2013-09-06T09:06:18Z</time>
      </trkpt>
      <trkpt lat="-21.01979" lon="55.42462">
        <ele>940.7</ele>
        <time>2013-09-06T09:06:25Z</time>
      </trkpt>
      <trkpt lat="-21.01982" lon="55.42454">
        <ele>940.1</ele>
        <time>2013-09-06T09:06:31Z</time>
      </trkpt>
      <trkpt lat="-21.01985" lon="55.42446">
        <ele>939.9</ele>
        <time>2013-09-06T09:06:38Z</time>
      </trkpt>
      <trkpt lat="-21.0199" lon="55.42434">
        <ele>939</ele>
        <time>2013-09-06T09:06:46Z</time>
      </trkpt>
      <trkpt lat="-21.01993" lon="55.42425">
        <ele>940.4</ele>
        <time>2013-09-06T09:06:53Z</time>
      </trkpt>
      <trkpt lat="-21.01996" lon="55.42417">
        <ele>940.5</ele>
        <time>2013-09-06T09:06:59Z</time>
      </trkpt>
      <trkpt lat="-21.01999" lon="55.42408">
        <ele>940.1</ele>
        <time>2013-09-06T09:07:06Z</time>
      </trkpt>
      <trkpt lat="-21.02003" lon="55.424">
        <ele>939.9</ele>
        <time>2013-09-06T09:07:12Z</time>
      </trkpt>
      <trkpt lat="-21.02007" lon="55.42393">
        <ele>939.9</ele>
        <time>2013-09-06T09:07:17Z</time>
      </trkpt>
      <trkpt lat="-21.02011" lon="55.42385">
        <ele>940.6</ele>
        <time>2013-09-06T09:07:24Z</time>
      </trkpt>
      <trkpt lat="-21.02013" lon="55.42376">
        <ele>941.1</ele>
        <time>2013-09-06T09:07:30Z</time>
      </trkpt>
      <trkpt lat="-21.02014" lon="55.42367">
        <ele>942.1</ele>
        <time>2013-09-06T09:07:36Z</time>
      </trkpt>
      <trkpt lat="-21.02015" lon="55.42359">
        <ele>942.2</ele>
        <time>2013-09-06T09:07:41Z</time>
      </trkpt>
      <trkpt lat="-21.02017" lon="55.4235">
        <ele>942.6</ele>
        <time>2013-09-06T09:07:49Z</time>
      </trkpt>
      <trkpt lat="-21.02017" lon="55.42341">
        <ele>941.9</ele>
        <time>2013-09-06T09:07:55Z</time>
      </trkpt>
      <trkpt lat="-21.02016" lon="55.42332">
        <ele>943.6</ele>
        <time>2013-09-06T09:08:02Z</time>
      </trkpt>
      <trkpt lat="-21.02011" lon="55.42325">
        <ele>944.8</ele>
        <time>2013-09-06T09:08:09Z</time>
      </trkpt>
      <trkpt lat="-21.02006" lon="55.42319">
        <ele>945.6</ele>
        <time>2013-09-06T09:08:15Z</time>
      </trkpt>
      <trkpt lat="-21.02001" lon="55.42312">
        <ele>945.5</ele>
        <time>2013-09-06T09:08:21Z</time>
      </trkpt>
      <trkpt lat="-21.01998" lon="55.42304">
        <ele>945.5</ele>
        <time>2013-09-06T09:08:28Z</time>
      </trkpt>
      <trkpt lat="-21.01996" lon="55.42296">
        <ele>947.5</ele>
        <time>2013-09-06T09:08:34Z</time>
      </trkpt>
      <trkpt lat="-21.01996" lon="55.42288">
        <ele>947.6</ele>
        <time>2013-09-06T09:08:39Z</time>
      </trkpt>
      <trkpt lat="-21.01993" lon="55.4228">
        <ele>947.4</ele>
        <time>2013-09-06T09:08:44Z</time>
      </trkpt>
      <trkpt lat="-21.01989" lon="55.42273">
        <ele>947.6</ele>
        <time>2013-09-06T09:08:50Z</time>
      </trkpt>
      <trkpt lat="-21.01987" lon="55.42265">
        <ele>948.4</ele>
        <time>2013-09-06T09:08:56Z</time>
      </trkpt>
      <trkpt lat="-21.01986" lon="55.42256">
        <ele>948</ele>
        <time>2013-09-06T09:09:01Z</time>
      </trkpt>
      <trkpt lat="-21.01987" lon="55.42247">
        <ele>948.6</ele>
        <time>2013-09-06T09:09:07Z</time>
      </trkpt>
      <trkpt lat="-21.01989" lon="55.42238">
        <ele>949.2</ele>
        <time>2013-09-06T09:09:15Z</time>
      </trkpt>
      <trkpt lat="-21.01993" lon="55.42231">
        <ele>951.1</ele>
        <time>2013-09-06T09:09:24Z</time>
      </trkpt>
      <trkpt lat="-21.01997" lon="55.42222">
        <ele>951.9</ele>
        <time>2013-09-06T09:09:34Z</time>
      </trkpt>
      <trkpt lat="-21.02003" lon="55.42216">
        <ele>952.8</ele>
        <time>2013-09-06T09:09:43Z</time>
      </trkpt>
      <trkpt lat="-21.02005" lon="55.42207">
        <ele>954.5</ele>
        <time>2013-09-06T09:09:58Z</time>
      </trkpt>
      <trkpt lat="-21.02009" lon="55.42198">
        <ele>956.2</ele>
        <time>2013-09-06T09:10:10Z</time>
      </trkpt>
      <trkpt lat="-21.02015" lon="55.42192">
        <ele>957.9</ele>
        <time>2013-09-06T09:10:25Z</time>
      </trkpt>
      <trkpt lat="-21.02023" lon="55.42188">
        <ele>959.9</ele>
        <time>2013-09-06T09:10:33Z</time>
      </trkpt>
      <trkpt lat="-21.0203" lon="55.42183">
        <ele>960.9</ele>
        <time>2013-09-06T09:10:42Z</time>
      </trkpt>
      <trkpt lat="-21.02038" lon="55.42179">
        <ele>961.1</ele>
        <time>2013-09-06T09:11:01Z</time>
      </trkpt>
      <trkpt lat="-21.02045" lon="55.42173">
        <ele>961.4</ele>
        <time>2013-09-06T09:11:09Z</time>
      </trkpt>
      <trkpt lat="-21.02052" lon="55.42168">
        <ele>961</ele>
        <time>2013-09-06T09:11:16Z</time>
      </trkpt>
      <trkpt lat="-21.02058" lon="55.42163">
        <ele>961.5</ele>
        <time>2013-09-06T09:11:23Z</time>
      </trkpt>
      <trkpt lat="-21.02065" lon="55.42158">
        <ele>963.1</ele>
        <time>2013-09-06T09:11:33Z</time>
      </trkpt>
      <trkpt lat="-21.02071" lon="55.42151">
        <ele>965.2</ele>
        <time>2013-09-06T09:11:42Z</time>
      </trkpt>
      <trkpt lat="-21.02077" lon="55.42145">
        <ele>968</ele>
        <time>2013-09-06T09:11:52Z</time>
      </trkpt>
      <trkpt lat="-21.02086" lon="55.42139">
        <ele>969</ele>
        <time>2013-09-06T09:12:07Z</time>
      </trkpt>
      <trkpt lat="-21.02089" lon="55.4213">
        <ele>973</ele>
        <time>2013-09-06T09:12:27Z</time>
      </trkpt>
      <trkpt lat="-21.02093" lon="55.42117">
        <ele>976</ele>
        <time>2013-09-06T09:12:40Z</time>
      </trkpt>
      <trkpt lat="-21.02097" lon="55.42105">
        <ele>977</ele>
        <time>2013-09-06T09:12:53Z</time>
      </trkpt>
      <trkpt lat="-21.02097" lon="55.42092">
        <ele>980</ele>
        <time>2013-09-06T09:13:05Z</time>
      </trkpt>
      <trkpt lat="-21.02095" lon="55.42082">
        <ele>982</ele>
        <time>2013-09-06T09:13:17Z</time>
      </trkpt>
      <trkpt lat="-21.02093" lon="55.42093">
        <ele>980</ele>
        <time>2013-09-06T09:13:49Z</time>
      </trkpt>
      <trkpt lat="-21.02091" lon="55.42108">
        <ele>977</ele>
        <time>2013-09-06T09:14:04Z</time>
      </trkpt>
      <trkpt lat="-21.02084" lon="55.4212">
        <ele>974</ele>
        <time>2013-09-06T09:14:14Z</time>
      </trkpt>
      <trkpt lat="-21.0208" lon="55.42127">
        <ele>973.7</ele>
        <time>2013-09-06T09:14:22Z</time>
      </trkpt>
      <trkpt lat="-21.02077" lon="55.42135">
        <ele>971</ele>
        <time>2013-09-06T09:14:32Z</time>
      </trkpt>
      <trkpt lat="-21.02073" lon="55.42143">
        <ele>969.3</ele>
        <time>2013-09-06T09:14:41Z</time>
      </trkpt>
      <trkpt lat="-21.02066" lon="55.42149">
        <ele>966.8</ele>
        <time>2013-09-06T09:14:51Z</time>
      </trkpt>
      <trkpt lat="-21.0206" lon="55.42156">
        <ele>963.2</ele>
        <time>2013-09-06T09:15:00Z</time>
      </trkpt>
      <trkpt lat="-21.02054" lon="55.42161">
        <ele>961.2</ele>
        <time>2013-09-06T09:15:07Z</time>
      </trkpt>
      <trkpt lat="-21.02047" lon="55.42167">
        <ele>961.1</ele>
        <time>2013-09-06T09:15:13Z</time>
      </trkpt>
      <trkpt lat="-21.02041" lon="55.42174">
        <ele>960.9</ele>
        <time>2013-09-06T09:15:20Z</time>
      </trkpt>
      <trkpt lat="-21.02035" lon="55.42178">
        <ele>960.4</ele>
        <time>2013-09-06T09:15:26Z</time>
      </trkpt>
      <trkpt lat="-21.02028" lon="55.42183">
        <ele>960.8</ele>
        <time>2013-09-06T09:15:32Z</time>
      </trkpt>
      <trkpt lat="-21.0202" lon="55.42186">
        <ele>959.6</ele>
        <time>2013-09-06T09:15:38Z</time>
      </trkpt>
      <trkpt lat="-21.02013" lon="55.42191">
        <ele>957.5</ele>
        <time>2013-09-06T09:15:48Z</time>
      </trkpt>
      <trkpt lat="-21.02008" lon="55.42198">
        <ele>954.5</ele>
        <time>2013-09-06T09:15:58Z</time>
      </trkpt>
      <trkpt lat="-21.02015" lon="55.42203">
        <ele>954.8</ele>
        <time>2013-09-06T09:16:07Z</time>
      </trkpt>
      <trkpt lat="-21.02023" lon="55.42204">
        <ele>955.3</ele>
        <time>2013-09-06T09:16:15Z</time>
      </trkpt>
      <trkpt lat="-21.02032" lon="55.42201">
        <ele>956.4</ele>
        <time>2013-09-06T09:16:23Z</time>
      </trkpt>
      <trkpt lat="-21.0204" lon="55.42199">
        <ele>956.9</ele>
        <time>2013-09-06T09:16:30Z</time>
      </trkpt>
      <trkpt lat="-21.02047" lon="55.42196">
        <ele>957.2</ele>
        <time>2013-09-06T09:16:35Z</time>
      </trkpt>
      <trkpt lat="-21.02054" lon="55.42192">
        <ele>957.3</ele>
        <time>2013-09-06T09:16:40Z</time>
      </trkpt>
      <trkpt lat="-21.02062" lon="55.42188">
        <ele>957.4</ele>
        <time>2013-09-06T09:16:47Z</time>
      </trkpt>
      <trkpt lat="-21.0207" lon="55.42185">
        <ele>958.6</ele>
        <time>2013-09-06T09:16:53Z</time>
      </trkpt>
      <trkpt lat="-21.02078" lon="55.42184">
        <ele>958.7</ele>
        <time>2013-09-06T09:17:00Z</time>
      </trkpt>
      <trkpt lat="-21.02086" lon="55.42181">
        <ele>959.9</ele>
        <time>2013-09-06T09:17:08Z</time>
      </trkpt>
      <trkpt lat="-21.02092" lon="55.42177">
        <ele>960.6</ele>
        <time>2013-09-06T09:17:13Z</time>
      </trkpt>
      <trkpt lat="-21.02098" lon="55.42172">
        <ele>961.3</ele>
        <time>2013-09-06T09:17:18Z</time>
      </trkpt>
      <trkpt lat="-21.02106" lon="55.42165">
        <ele>962</ele>
        <time>2013-09-06T09:17:25Z</time>
      </trkpt>
      <trkpt lat="-21.02117" lon="55.42156">
        <ele>963</ele>
        <time>2013-09-06T09:17:33Z</time>
      </trkpt>
      <trkpt lat="-21.02127" lon="55.42153">
        <ele>963</ele>
        <time>2013-09-06T09:17:41Z</time>
      </trkpt>
      <trkpt lat="-21.02137" lon="55.42153">
        <ele>964</ele>
        <time>2013-09-06T09:17:49Z</time>
      </trkpt>
      <trkpt lat="-21.02149" lon="55.42155">
        <ele>964</ele>
        <time>2013-09-06T09:18:01Z</time>
      </trkpt>
      <trkpt lat="-21.02161" lon="55.4216">
        <ele>965</ele>
        <time>2013-09-06T09:18:09Z</time>
      </trkpt>
      <trkpt lat="-21.02172" lon="55.42165">
        <ele>965</ele>
        <time>2013-09-06T09:18:17Z</time>
      </trkpt>
      <trkpt lat="-21.02186" lon="55.42168">
        <ele>967</ele>
        <time>2013-09-06T09:18:29Z</time>
      </trkpt>
      <trkpt lat="-21.02201" lon="55.42171">
        <ele>968</ele>
        <time>2013-09-06T09:18:41Z</time>
      </trkpt>
      <trkpt lat="-21.02212" lon="55.42173">
        <ele>969</ele>
        <time>2013-09-06T09:18:49Z</time>
      </trkpt>
      <trkpt lat="-21.02226" lon="55.42171">
        <ele>969</ele>
        <time>2013-09-06T09:18:57Z</time>
      </trkpt>
      <trkpt lat="-21.02235" lon="55.42168">
        <ele>970</ele>
        <time>2013-09-06T09:19:05Z</time>
      </trkpt>
      <trkpt lat="-21.02247" lon="55.42169">
        <ele>971</ele>
        <time>2013-09-06T09:19:13Z</time>
      </trkpt>
      <trkpt lat="-21.02257" lon="55.42171">
        <ele>972</ele>
        <time>2013-09-06T09:19:21Z</time>
      </trkpt>
      <trkpt lat="-21.02269" lon="55.42173">
        <ele>972</ele>
        <time>2013-09-06T09:19:29Z</time>
      </trkpt>
      <trkpt lat="-21.02277" lon="55.42174">
        <ele>972.9</ele>
        <time>2013-09-06T09:19:34Z</time>
      </trkpt>
      <trkpt lat="-21.02285" lon="55.42175">
        <ele>973.4</ele>
        <time>2013-09-06T09:19:39Z</time>
      </trkpt>
      <trkpt lat="-21.02295" lon="55.42177">
        <ele>974.6</ele>
        <time>2013-09-06T09:19:46Z</time>
      </trkpt>
      <trkpt lat="-21.02302" lon="55.42176">
        <ele>975.7</ele>
        <time>2013-09-06T09:19:51Z</time>
      </trkpt>
      <trkpt lat="-21.02312" lon="55.42175">
        <ele>976</ele>
        <time>2013-09-06T09:19:57Z</time>
      </trkpt>
      <trkpt lat="-21.02325" lon="55.42174">
        <ele>977</ele>
        <time>2013-09-06T09:20:05Z</time>
      </trkpt>
      <trkpt lat="-21.02333" lon="55.42169">
        <ele>978</ele>
        <time>2013-09-06T09:20:12Z</time>
      </trkpt>
      <trkpt lat="-21.02341" lon="55.42168">
        <ele>979.2</ele>
        <time>2013-09-06T09:20:18Z</time>
      </trkpt>
      <trkpt lat="-21.0235" lon="55.42166">
        <ele>979.5</ele>
        <time>2013-09-06T09:20:24Z</time>
      </trkpt>
      <trkpt lat="-21.02358" lon="55.42163">
        <ele>980</ele>
        <time>2013-09-06T09:20:30Z</time>
      </trkpt>
      <trkpt lat="-21.02365" lon="55.4216">
        <ele>979.8</ele>
        <time>2013-09-06T09:20:36Z</time>
      </trkpt>
      <trkpt lat="-21.02373" lon="55.42159">
        <ele>981.6</ele>
        <time>2013-09-06T09:20:42Z</time>
      </trkpt>
      <trkpt lat="-21.02382" lon="55.42159">
        <ele>981.5</ele>
        <time>2013-09-06T09:20:54Z</time>
      </trkpt>
      <trkpt lat="-21.0239" lon="55.4216">
        <ele>981.3</ele>
        <time>2013-09-06T09:21:05Z</time>
      </trkpt>
      <trkpt lat="-21.02398" lon="55.42156">
        <ele>982.5</ele>
        <time>2013-09-06T09:21:12Z</time>
      </trkpt>
      <trkpt lat="-21.02405" lon="55.42151">
        <ele>981.9</ele>
        <time>2013-09-06T09:21:17Z</time>
      </trkpt>
      <trkpt lat="-21.02414" lon="55.42144">
        <ele>982</ele>
        <time>2013-09-06T09:21:23Z</time>
      </trkpt>
      <trkpt lat="-21.0242" lon="55.4214">
        <ele>983.3</ele>
        <time>2013-09-06T09:21:28Z</time>
      </trkpt>
      <trkpt lat="-21.02428" lon="55.42138">
        <ele>984</ele>
        <time>2013-09-06T09:21:33Z</time>
      </trkpt>
      <trkpt lat="-21.02435" lon="55.42133">
        <ele>983.7</ele>
        <time>2013-09-06T09:21:38Z</time>
      </trkpt>
      <trkpt lat="-21.02444" lon="55.42128">
        <ele>983</ele>
        <time>2013-09-06T09:21:44Z</time>
      </trkpt>
      <trkpt lat="-21.02451" lon="55.42125">
        <ele>984.7</ele>
        <time>2013-09-06T09:21:50Z</time>
      </trkpt>
      <trkpt lat="-21.02459" lon="55.42122">
        <ele>984.8</ele>
        <time>2013-09-06T09:21:55Z</time>
      </trkpt>
      <trkpt lat="-21.02467" lon="55.4212">
        <ele>984.9</ele>
        <time>2013-09-06T09:22:00Z</time>
      </trkpt>
      <trkpt lat="-21.02475" lon="55.42116">
        <ele>983.8</ele>
        <time>2013-09-06T09:22:07Z</time>
      </trkpt>
      <trkpt lat="-21.02483" lon="55.42112">
        <ele>983.8</ele>
        <time>2013-09-06T09:22:12Z</time>
      </trkpt>
      <trkpt lat="-21.0249" lon="55.42108">
        <ele>984.1</ele>
        <time>2013-09-06T09:22:18Z</time>
      </trkpt>
      <trkpt lat="-21.02497" lon="55.42103">
        <ele>983.3</ele>
        <time>2013-09-06T09:22:24Z</time>
      </trkpt>
      <trkpt lat="-21.02504" lon="55.42098">
        <ele>983.1</ele>
        <time>2013-09-06T09:22:28Z</time>
      </trkpt>
      <trkpt lat="-21.02511" lon="55.42093">
        <ele>983.2</ele>
        <time>2013-09-06T09:22:36Z</time>
      </trkpt>
      <trkpt lat="-21.02518" lon="55.42088">
        <ele>981.4</ele>
        <time>2013-09-06T09:22:43Z</time>
      </trkpt>
      <trkpt lat="-21.02524" lon="55.42082">
        <ele>981</ele>
        <time>2013-09-06T09:22:48Z</time>
      </trkpt>
      <trkpt lat="-21.02529" lon="55.42075">
        <ele>980.8</ele>
        <time>2013-09-06T09:22:53Z</time>
      </trkpt>
      <trkpt lat="-21.02534" lon="55.42067">
        <ele>980.9</ele>
        <time>2013-09-06T09:22:59Z</time>
      </trkpt>
      <trkpt lat="-21.02538" lon="55.4206">
        <ele>979.4</ele>
        <time>2013-09-06T09:23:05Z</time>
      </trkpt>
      <trkpt lat="-21.02544" lon="55.42054">
        <ele>978.3</ele>
        <time>2013-09-06T09:23:11Z</time>
      </trkpt>
      <trkpt lat="-21.02551" lon="55.4205">
        <ele>977.6</ele>
        <time>2013-09-06T09:23:18Z</time>
      </trkpt>
      <trkpt lat="-21.02557" lon="55.42045">
        <ele>977.1</ele>
        <time>2013-09-06T09:23:24Z</time>
      </trkpt>
      <trkpt lat="-21.02564" lon="55.42039">
        <ele>976.2</ele>
        <time>2013-09-06T09:23:31Z</time>
      </trkpt>
      <trkpt lat="-21.02568" lon="55.42032">
        <ele>975.6</ele>
        <time>2013-09-06T09:23:37Z</time>
      </trkpt>
      <trkpt lat="-21.02573" lon="55.42024">
        <ele>975.2</ele>
        <time>2013-09-06T09:23:44Z</time>
      </trkpt>
      <trkpt lat="-21.02578" lon="55.42018">
        <ele>974.4</ele>
        <time>2013-09-06T09:23:49Z</time>
      </trkpt>
      <trkpt lat="-21.02584" lon="55.42013">
        <ele>973.6</ele>
        <time>2013-09-06T09:23:53Z</time>
      </trkpt>
      <trkpt lat="-21.0259" lon="55.42007">
        <ele>973.5</ele>
        <time>2013-09-06T09:23:59Z</time>
      </trkpt>
      <trkpt lat="-21.02596" lon="55.42001">
        <ele>972.8</ele>
        <time>2013-09-06T09:24:04Z</time>
      </trkpt>
      <trkpt lat="-21.02602" lon="55.41994">
        <ele>973</ele>
        <time>2013-09-06T09:24:09Z</time>
      </trkpt>
      <trkpt lat="-21.02609" lon="55.41987">
        <ele>971.7</ele>
        <time>2013-09-06T09:24:15Z</time>
      </trkpt>
      <trkpt lat="-21.02611" lon="55.41979">
        <ele>971.3</ele>
        <time>2013-09-06T09:24:21Z</time>
      </trkpt>
      <trkpt lat="-21.02609" lon="55.41969">
        <ele>971</ele>
        <time>2013-09-06T09:24:54Z</time>
      </trkpt>
      <trkpt lat="-21.02605" lon="55.41961">
        <ele>970.9</ele>
        <time>2013-09-06T09:25:29Z</time>
      </trkpt>
      <trkpt lat="-21.026" lon="55.41953">
        <ele>967.1</ele>
        <time>2013-09-06T09:25:59Z</time>
      </trkpt>
      <trkpt lat="-21.02592" lon="55.41951">
        <ele>963.5</ele>
        <time>2013-09-06T09:26:09Z</time>
      </trkpt>
      <trkpt lat="-21.02581" lon="55.4195">
        <ele>958</ele>
        <time>2013-09-06T09:26:19Z</time>
      </trkpt>
      <trkpt lat="-21.02573" lon="55.41944">
        <ele>954</ele>
        <time>2013-09-06T09:26:27Z</time>
      </trkpt>
      <trkpt lat="-21.02572" lon="55.41934">
        <ele>952</ele>
        <time>2013-09-06T09:26:35Z</time>
      </trkpt>
      <trkpt lat="-21.02584" lon="55.41928">
        <ele>946</ele>
        <time>2013-09-06T09:26:56Z</time>
      </trkpt>
      <trkpt lat="-21.02592" lon="55.4192">
        <ele>944</ele>
        <time>2013-09-06T09:27:12Z</time>
      </trkpt>
      <trkpt lat="-21.02579" lon="55.41929">
        <ele>937</ele>
        <time>2013-09-06T09:28:08Z</time>
      </trkpt>
      <trkpt lat="-21.02567" lon="55.41927">
        <ele>933</ele>
        <time>2013-09-06T09:28:20Z</time>
      </trkpt>
      <trkpt lat="-21.02564" lon="55.41911">
        <ele>929</ele>
        <time>2013-09-06T09:28:36Z</time>
      </trkpt>
      <trkpt lat="-21.02558" lon="55.41904">
        <ele>925.2</ele>
        <time>2013-09-06T09:28:51Z</time>
      </trkpt>
      <trkpt lat="-21.02563" lon="55.41886">
        <ele>914</ele>
        <time>2013-09-06T09:29:19Z</time>
      </trkpt>
      <trkpt lat="-21.02573" lon="55.41883">
        <ele>911</ele>
        <time>2013-09-06T09:29:26Z</time>
      </trkpt>
      <trkpt lat="-21.02586" lon="55.41877">
        <ele>903</ele>
        <time>2013-09-06T09:29:50Z</time>
      </trkpt>
      <trkpt lat="-21.02591" lon="55.41868">
        <ele>899</ele>
        <time>2013-09-06T09:29:58Z</time>
      </trkpt>
      <trkpt lat="-21.02589" lon="55.41849">
        <ele>897</ele>
        <time>2013-09-06T09:30:06Z</time>
      </trkpt>
      <trkpt lat="-21.02584" lon="55.41833">
        <ele>895</ele>
        <time>2013-09-06T09:30:14Z</time>
      </trkpt>
      <trkpt lat="-21.02571" lon="55.41837">
        <ele>887</ele>
        <time>2013-09-06T09:30:36Z</time>
      </trkpt>
      <trkpt lat="-21.02557" lon="55.41842">
        <ele>885</ele>
        <time>2013-09-06T09:30:42Z</time>
      </trkpt>
      <trkpt lat="-21.02561" lon="55.41852">
        <ele>881</ele>
        <time>2013-09-06T09:30:52Z</time>
      </trkpt>
      <trkpt lat="-21.02565" lon="55.41861">
        <ele>876</ele>
        <time>2013-09-06T09:31:04Z</time>
      </trkpt>
      <trkpt lat="-21.02562" lon="55.41846">
        <ele>856</ele>
        <time>2013-09-06T09:31:55Z</time>
      </trkpt>
      <trkpt lat="-21.02576" lon="55.41816">
        <ele>853</ele>
        <time>2013-09-06T09:32:03Z</time>
      </trkpt>
      <trkpt lat="-21.02596" lon="55.41781">
        <ele>850</ele>
        <time>2013-09-06T09:32:11Z</time>
      </trkpt>
      <trkpt lat="-21.02613" lon="55.41754">
        <ele>848</ele>
        <time>2013-09-06T09:32:19Z</time>
      </trkpt>
      <trkpt lat="-21.02618" lon="55.41746">
        <ele>847.6</ele>
        <time>2013-09-06T09:32:23Z</time>
      </trkpt>
      <trkpt lat="-21.02621" lon="55.41738">
        <ele>846.6</ele>
        <time>2013-09-06T09:32:27Z</time>
      </trkpt>
      <trkpt lat="-21.02615" lon="55.41739">
        <ele>845.4</ele>
        <time>2013-09-06T09:32:32Z</time>
      </trkpt>
      <trkpt lat="-21.0261" lon="55.41746">
        <ele>845</ele>
        <time>2013-09-06T09:32:34Z</time>
      </trkpt>
      <trkpt lat="-21.02603" lon="55.41752">
        <ele>844.9</ele>
        <time>2013-09-06T09:32:36Z</time>
      </trkpt>
      <trkpt lat="-21.02597" lon="55.41758">
        <ele>844.7</ele>
        <time>2013-09-06T09:32:38Z</time>
      </trkpt>
      <trkpt lat="-21.02591" lon="55.41764">
        <ele>843.7</ele>
        <time>2013-09-06T09:32:40Z</time>
      </trkpt>
      <trkpt lat="-21.02585" lon="55.41771">
        <ele>843.5</ele>
        <time>2013-09-06T09:32:42Z</time>
      </trkpt>
      <trkpt lat="-21.0258" lon="55.41776">
        <ele>843.1</ele>
        <time>2013-09-06T09:32:44Z</time>
      </trkpt>
      <trkpt lat="-21.02577" lon="55.41783">
        <ele>842</ele>
        <time>2013-09-06T09:32:47Z</time>
      </trkpt>
      <trkpt lat="-21.02571" lon="55.4179">
        <ele>843.1</ele>
        <time>2013-09-06T09:32:54Z</time>
      </trkpt>
      <trkpt lat="-21.02563" lon="55.41791">
        <ele>848.1</ele>
        <time>2013-09-06T09:33:18Z</time>
      </trkpt>
      <trkpt lat="-21.0256" lon="55.41783">
        <ele>848.3</ele>
        <time>2013-09-06T09:33:34Z</time>
      </trkpt>
      <trkpt lat="-21.02557" lon="55.41775">
        <ele>847.1</ele>
        <time>2013-09-06T09:33:43Z</time>
      </trkpt>
      <trkpt lat="-21.02553" lon="55.41768">
        <ele>845.8</ele>
        <time>2013-09-06T09:33:50Z</time>
      </trkpt>
      <trkpt lat="-21.0255" lon="55.41759">
        <ele>844</ele>
        <time>2013-09-06T09:33:57Z</time>
      </trkpt>
      <trkpt lat="-21.02547" lon="55.41751">
        <ele>843.7</ele>
        <time>2013-09-06T09:34:03Z</time>
      </trkpt>
      <trkpt lat="-21.02544" lon="55.41744">
        <ele>843.1</ele>
        <time>2013-09-06T09:34:10Z</time>
      </trkpt>
      <trkpt lat="-21.0254" lon="55.41736">
        <ele>842.2</ele>
        <time>2013-09-06T09:34:16Z</time>
      </trkpt>
      <trkpt lat="-21.02536" lon="55.41728">
        <ele>843.3</ele>
        <time>2013-09-06T09:34:24Z</time>
      </trkpt>
      <trkpt lat="-21.02533" lon="55.41719">
        <ele>840.7</ele>
        <time>2013-09-06T09:34:35Z</time>
      </trkpt>
      <trkpt lat="-21.02528" lon="55.41712">
        <ele>837.1</ele>
        <time>2013-09-06T09:34:44Z</time>
      </trkpt>
      <trkpt lat="-21.02522" lon="55.41705">
        <ele>833.8</ele>
        <time>2013-09-06T09:34:53Z</time>
      </trkpt>
      <trkpt lat="-21.02519" lon="55.41696">
        <ele>829.3</ele>
        <time>2013-09-06T09:35:04Z</time>
      </trkpt>
      <trkpt lat="-21.02517" lon="55.41687">
        <ele>825.1</ele>
        <time>2013-09-06T09:35:15Z</time>
      </trkpt>
      <trkpt lat="-21.02516" lon="55.41679">
        <ele>822.3</ele>
        <time>2013-09-06T09:35:22Z</time>
      </trkpt>
      <trkpt lat="-21.02517" lon="55.4167">
        <ele>821</ele>
        <time>2013-09-06T09:35:29Z</time>
      </trkpt>
      <trkpt lat="-21.02518" lon="55.41679">
        <ele>815.2</ele>
        <time>2013-09-06T09:35:46Z</time>
      </trkpt>
      <trkpt lat="-21.02523" lon="55.41669">
        <ele>808</ele>
        <time>2013-09-06T09:36:04Z</time>
      </trkpt>
      <trkpt lat="-21.02522" lon="55.41678">
        <ele>805</ele>
        <time>2013-09-06T09:36:17Z</time>
      </trkpt>
      <trkpt lat="-21.0252" lon="55.41686">
        <ele>802.8</ele>
        <time>2013-09-06T09:36:24Z</time>
      </trkpt>
      <trkpt lat="-21.02528" lon="55.41685">
        <ele>796.7</ele>
        <time>2013-09-06T09:36:41Z</time>
      </trkpt>
      <trkpt lat="-21.02537" lon="55.41681">
        <ele>791.8</ele>
        <time>2013-09-06T09:36:56Z</time>
      </trkpt>
      <trkpt lat="-21.02544" lon="55.41686">
        <ele>788.7</ele>
        <time>2013-09-06T09:37:07Z</time>
      </trkpt>
      <trkpt lat="-21.02543" lon="55.41677">
        <ele>782.3</ele>
        <time>2013-09-06T09:37:26Z</time>
      </trkpt>
      <trkpt lat="-21.02547" lon="55.41669">
        <ele>782.4</ele>
        <time>2013-09-06T09:37:32Z</time>
      </trkpt>
      <trkpt lat="-21.02552" lon="55.41662">
        <ele>781.3</ele>
        <time>2013-09-06T09:37:38Z</time>
      </trkpt>
      <trkpt lat="-21.02558" lon="55.41657">
        <ele>780.1</ele>
        <time>2013-09-06T09:37:42Z</time>
      </trkpt>
      <trkpt lat="-21.02563" lon="55.41651">
        <ele>778.3</ele>
        <time>2013-09-06T09:37:47Z</time>
      </trkpt>
      <trkpt lat="-21.02569" lon="55.41644">
        <ele>776.8</ele>
        <time>2013-09-06T09:37:52Z</time>
      </trkpt>
      <trkpt lat="-21.02571" lon="55.41636">
        <ele>774.2</ele>
        <time>2013-09-06T09:37:59Z</time>
      </trkpt>
      <trkpt lat="-21.0257" lon="55.41629">
        <ele>773.1</ele>
        <time>2013-09-06T09:38:03Z</time>
      </trkpt>
      <trkpt lat="-21.02569" lon="55.41621">
        <ele>771.4</ele>
        <time>2013-09-06T09:38:07Z</time>
      </trkpt>
      <trkpt lat="-21.0257" lon="55.41611">
        <ele>770.6</ele>
        <time>2013-09-06T09:38:12Z</time>
      </trkpt>
      <trkpt lat="-21.02574" lon="55.41603">
        <ele>771.7</ele>
        <time>2013-09-06T09:38:18Z</time>
      </trkpt>
      <trkpt lat="-21.02581" lon="55.41598">
        <ele>771.9</ele>
        <time>2013-09-06T09:38:23Z</time>
      </trkpt>
      <trkpt lat="-21.02585" lon="55.4159">
        <ele>771.2</ele>
        <time>2013-09-06T09:38:28Z</time>
      </trkpt>
      <trkpt lat="-21.02584" lon="55.41582">
        <ele>770.1</ele>
        <time>2013-09-06T09:38:34Z</time>
      </trkpt>
      <trkpt lat="-21.02579" lon="55.41575">
        <ele>768</ele>
        <time>2013-09-06T09:38:39Z</time>
      </trkpt>
      <trkpt lat="-21.02577" lon="55.41567">
        <ele>764.8</ele>
        <time>2013-09-06T09:38:44Z</time>
      </trkpt>
      <trkpt lat="-21.02583" lon="55.41561">
        <ele>757.4</ele>
        <time>2013-09-06T09:39:07Z</time>
      </trkpt>
      <trkpt lat="-21.02582" lon="55.41552">
        <ele>753.6</ele>
        <time>2013-09-06T09:39:18Z</time>
      </trkpt>
      <trkpt lat="-21.02581" lon="55.41543">
        <ele>750.1</ele>
        <time>2013-09-06T09:39:26Z</time>
      </trkpt>
      <trkpt lat="-21.02579" lon="55.41535">
        <ele>747.2</ele>
        <time>2013-09-06T09:39:33Z</time>
      </trkpt>
      <trkpt lat="-21.02576" lon="55.41527">
        <ele>744.9</ele>
        <time>2013-09-06T09:39:40Z</time>
      </trkpt>
      <trkpt lat="-21.02574" lon="55.41518">
        <ele>742.1</ele>
        <time>2013-09-06T09:39:48Z</time>
      </trkpt>
      <trkpt lat="-21.02573" lon="55.41509">
        <ele>740.4</ele>
        <time>2013-09-06T09:39:56Z</time>
      </trkpt>
      <trkpt lat="-21.02566" lon="55.41503">
        <ele>738.2</ele>
        <time>2013-09-06T09:40:05Z</time>
      </trkpt>
      <trkpt lat="-21.0256" lon="55.41498">
        <ele>737.6</ele>
        <time>2013-09-06T09:40:11Z</time>
      </trkpt>
      <trkpt lat="-21.02554" lon="55.41493">
        <ele>736.8</ele>
        <time>2013-09-06T09:40:16Z</time>
      </trkpt>
      <trkpt lat="-21.02552" lon="55.41485">
        <ele>736.5</ele>
        <time>2013-09-06T09:40:20Z</time>
      </trkpt>
      <trkpt lat="-21.0255" lon="55.41477">
        <ele>735.3</ele>
        <time>2013-09-06T09:40:25Z</time>
      </trkpt>
      <trkpt lat="-21.02547" lon="55.41468">
        <ele>733.7</ele>
        <time>2013-09-06T09:40:32Z</time>
      </trkpt>
      <trkpt lat="-21.02546" lon="55.4146">
        <ele>731.6</ele>
        <time>2013-09-06T09:40:38Z</time>
      </trkpt>
      <trkpt lat="-21.02545" lon="55.4145">
        <ele>730.1</ele>
        <time>2013-09-06T09:40:45Z</time>
      </trkpt>
      <trkpt lat="-21.02549" lon="55.41442">
        <ele>728.1</ele>
        <time>2013-09-06T09:40:51Z</time>
      </trkpt>
      <trkpt lat="-21.02549" lon="55.41433">
        <ele>724.9</ele>
        <time>2013-09-06T09:40:59Z</time>
      </trkpt>
      <trkpt lat="-21.02541" lon="55.41429">
        <ele>724</ele>
        <time>2013-09-06T09:41:06Z</time>
      </trkpt>
      <trkpt lat="-21.02534" lon="55.41425">
        <ele>722.2</ele>
        <time>2013-09-06T09:41:12Z</time>
      </trkpt>
      <trkpt lat="-21.02528" lon="55.4142">
        <ele>720.8</ele>
        <time>2013-09-06T09:41:18Z</time>
      </trkpt>
      <trkpt lat="-21.02524" lon="55.41412">
        <ele>718.9</ele>
        <time>2013-09-06T09:41:24Z</time>
      </trkpt>
      <trkpt lat="-21.02518" lon="55.41405">
        <ele>715.3</ele>
        <time>2013-09-06T09:41:33Z</time>
      </trkpt>
      <trkpt lat="-21.02514" lon="55.41397">
        <ele>713.4</ele>
        <time>2013-09-06T09:41:39Z</time>
      </trkpt>
      <trkpt lat="-21.02512" lon="55.41389">
        <ele>710.7</ele>
        <time>2013-09-06T09:41:50Z</time>
      </trkpt>
      <trkpt lat="-21.0251" lon="55.41381">
        <ele>708.9</ele>
        <time>2013-09-06T09:41:57Z</time>
      </trkpt>
      <trkpt lat="-21.02505" lon="55.41374">
        <ele>706.7</ele>
        <time>2013-09-06T09:42:03Z</time>
      </trkpt>
      <trkpt lat="-21.02501" lon="55.41366">
        <ele>703.1</ele>
        <time>2013-09-06T09:42:16Z</time>
      </trkpt>
      <trkpt lat="-21.02508" lon="55.4136">
        <ele>703.2</ele>
        <time>2013-09-06T09:42:24Z</time>
      </trkpt>
      <trkpt lat="-21.0251" lon="55.41351">
        <ele>699.5</ele>
        <time>2013-09-06T09:43:07Z</time>
      </trkpt>
      <trkpt lat="-21.02502" lon="55.41349">
        <ele>696.7</ele>
        <time>2013-09-06T09:43:17Z</time>
      </trkpt>
      <trkpt lat="-21.02497" lon="55.41341">
        <ele>692.7</ele>
        <time>2013-09-06T09:43:30Z</time>
      </trkpt>
      <trkpt lat="-21.02489" lon="55.41339">
        <ele>689.8</ele>
        <time>2013-09-06T09:43:37Z</time>
      </trkpt>
      <trkpt lat="-21.02483" lon="55.41333">
        <ele>685.4</ele>
        <time>2013-09-06T09:43:51Z</time>
      </trkpt>
      <trkpt lat="-21.02485" lon="55.41325">
        <ele>681.3</ele>
        <time>2013-09-06T09:44:06Z</time>
      </trkpt>
      <trkpt lat="-21.02484" lon="55.41316">
        <ele>678.3</ele>
        <time>2013-09-06T09:44:20Z</time>
      </trkpt>
      <trkpt lat="-21.02477" lon="55.4131">
        <ele>674.7</ele>
        <time>2013-09-06T09:44:31Z</time>
      </trkpt>
      <trkpt lat="-21.02473" lon="55.41304">
        <ele>673.7</ele>
        <time>2013-09-06T09:44:37Z</time>
      </trkpt>
      <trkpt lat="-21.02472" lon="55.41296">
        <ele>672.9</ele>
        <time>2013-09-06T09:44:42Z</time>
      </trkpt>
      <trkpt lat="-21.02471" lon="55.41288">
        <ele>673</ele>
        <time>2013-09-06T09:44:46Z</time>
      </trkpt>
      <trkpt lat="-21.02468" lon="55.4128">
        <ele>671</ele>
        <time>2013-09-06T09:44:51Z</time>
      </trkpt>
      <trkpt lat="-21.02465" lon="55.41272">
        <ele>670.4</ele>
        <time>2013-09-06T09:44:57Z</time>
      </trkpt>
      <trkpt lat="-21.02463" lon="55.41264">
        <ele>669.7</ele>
        <time>2013-09-06T09:45:02Z</time>
      </trkpt>
      <trkpt lat="-21.02457" lon="55.41258">
        <ele>668.2</ele>
        <time>2013-09-06T09:45:08Z</time>
      </trkpt>
      <trkpt lat="-21.02448" lon="55.41257">
        <ele>668.4</ele>
        <time>2013-09-06T09:45:13Z</time>
      </trkpt>
      <trkpt lat="-21.0244" lon="55.41254">
        <ele>666.7</ele>
        <time>2013-09-06T09:45:19Z</time>
      </trkpt>
      <trkpt lat="-21.02431" lon="55.41251">
        <ele>664.8</ele>
        <time>2013-09-06T09:45:25Z</time>
      </trkpt>
      <trkpt lat="-21.02424" lon="55.41248">
        <ele>664.6</ele>
        <time>2013-09-06T09:45:30Z</time>
      </trkpt>
      <trkpt lat="-21.02417" lon="55.41245">
        <ele>664.5</ele>
        <time>2013-09-06T09:45:35Z</time>
      </trkpt>
      <trkpt lat="-21.0241" lon="55.41241">
        <ele>663.9</ele>
        <time>2013-09-06T09:45:41Z</time>
      </trkpt>
      <trkpt lat="-21.02405" lon="55.41235">
        <ele>663.2</ele>
        <time>2013-09-06T09:45:46Z</time>
      </trkpt>
      <trkpt lat="-21.02402" lon="55.41226">
        <ele>664.3</ele>
        <time>2013-09-06T09:45:51Z</time>
      </trkpt>
      <trkpt lat="-21.02399" lon="55.41218">
        <ele>663.8</ele>
        <time>2013-09-06T09:45:57Z</time>
      </trkpt>
      <trkpt lat="-21.02391" lon="55.41213">
        <ele>664.2</ele>
        <time>2013-09-06T09:46:04Z</time>
      </trkpt>
      <trkpt lat="-21.02384" lon="55.4121">
        <ele>664</ele>
        <time>2013-09-06T09:46:09Z</time>
      </trkpt>
      <trkpt lat="-21.02378" lon="55.41203">
        <ele>664.6</ele>
        <time>2013-09-06T09:46:16Z</time>
      </trkpt>
      <trkpt lat="-21.02374" lon="55.41195">
        <ele>664.7</ele>
        <time>2013-09-06T09:46:21Z</time>
      </trkpt>
      <trkpt lat="-21.02369" lon="55.41189">
        <ele>665</ele>
        <time>2013-09-06T09:46:26Z</time>
      </trkpt>
      <trkpt lat="-21.02363" lon="55.41183">
        <ele>663.7</ele>
        <time>2013-09-06T09:46:32Z</time>
      </trkpt>
      <trkpt lat="-21.0236" lon="55.41175">
        <ele>662</ele>
        <time>2013-09-06T09:46:41Z</time>
      </trkpt>
      <trkpt lat="-21.02362" lon="55.41165">
        <ele>660.7</ele>
        <time>2013-09-06T09:46:47Z</time>
      </trkpt>
      <trkpt lat="-21.02361" lon="55.41156">
        <ele>660.4</ele>
        <time>2013-09-06T09:46:53Z</time>
      </trkpt>
      <trkpt lat="-21.02357" lon="55.41149">
        <ele>660.1</ele>
        <time>2013-09-06T09:47:00Z</time>
      </trkpt>
      <trkpt lat="-21.02352" lon="55.41141">
        <ele>659.1</ele>
        <time>2013-09-06T09:47:06Z</time>
      </trkpt>
      <trkpt lat="-21.02344" lon="55.41137">
        <ele>658.4</ele>
        <time>2013-09-06T09:47:12Z</time>
      </trkpt>
      <trkpt lat="-21.02336" lon="55.41138">
        <ele>656.1</ele>
        <time>2013-09-06T09:47:20Z</time>
      </trkpt>
      <trkpt lat="-21.02328" lon="55.41139">
        <ele>654.9</ele>
        <time>2013-09-06T09:47:24Z</time>
      </trkpt>
      <trkpt lat="-21.02319" lon="55.4114">
        <ele>653.7</ele>
        <time>2013-09-06T09:47:29Z</time>
      </trkpt>
      <trkpt lat="-21.0231" lon="55.41139">
        <ele>652</ele>
        <time>2013-09-06T09:47:36Z</time>
      </trkpt>
      <trkpt lat="-21.02302" lon="55.41137">
        <ele>650.9</ele>
        <time>2013-09-06T09:47:42Z</time>
      </trkpt>
      <trkpt lat="-21.02295" lon="55.41133">
        <ele>651</ele>
        <time>2013-09-06T09:47:48Z</time>
      </trkpt>
      <trkpt lat="-21.02287" lon="55.41128">
        <ele>649.9</ele>
        <time>2013-09-06T09:47:54Z</time>
      </trkpt>
      <trkpt lat="-21.02279" lon="55.41118">
        <ele>648</ele>
        <time>2013-09-06T09:48:04Z</time>
      </trkpt>
      <trkpt lat="-21.02268" lon="55.41119">
        <ele>648</ele>
        <time>2013-09-06T09:48:12Z</time>
      </trkpt>
      <trkpt lat="-21.02258" lon="55.41119">
        <ele>647</ele>
        <time>2013-09-06T09:48:20Z</time>
      </trkpt>
      <trkpt lat="-21.02249" lon="55.41119">
        <ele>647</ele>
        <time>2013-09-06T09:48:28Z</time>
      </trkpt>
      <trkpt lat="-21.02238" lon="55.41118">
        <ele>645</ele>
        <time>2013-09-06T09:48:36Z</time>
      </trkpt>
      <trkpt lat="-21.02225" lon="55.41115">
        <ele>644</ele>
        <time>2013-09-06T09:48:48Z</time>
      </trkpt>
      <trkpt lat="-21.02214" lon="55.41111">
        <ele>643</ele>
        <time>2013-09-06T09:48:56Z</time>
      </trkpt>
      <trkpt lat="-21.02203" lon="55.4111">
        <ele>642</ele>
        <time>2013-09-06T09:49:04Z</time>
      </trkpt>
      <trkpt lat="-21.02195" lon="55.41102">
        <ele>641</ele>
        <time>2013-09-06T09:49:12Z</time>
      </trkpt>
      <trkpt lat="-21.02187" lon="55.41096">
        <ele>640</ele>
        <time>2013-09-06T09:49:20Z</time>
      </trkpt>
      <trkpt lat="-21.02181" lon="55.41088">
        <ele>639</ele>
        <time>2013-09-06T09:49:28Z</time>
      </trkpt>
      <trkpt lat="-21.02174" lon="55.41074">
        <ele>637</ele>
        <time>2013-09-06T09:49:40Z</time>
      </trkpt>
      <trkpt lat="-21.02167" lon="55.41066">
        <ele>636</ele>
        <time>2013-09-06T09:49:48Z</time>
      </trkpt>
      <trkpt lat="-21.02167" lon="55.41052">
        <ele>632</ele>
        <time>2013-09-06T09:50:04Z</time>
      </trkpt>
      <trkpt lat="-21.02169" lon="55.41042">
        <ele>631.6</ele>
        <time>2013-09-06T09:50:14Z</time>
      </trkpt>
      <trkpt lat="-21.02169" lon="55.41033">
        <ele>627.1</ele>
        <time>2013-09-06T09:50:30Z</time>
      </trkpt>
      <trkpt lat="-21.02177" lon="55.41028">
        <ele>626.3</ele>
        <time>2013-09-06T09:50:36Z</time>
      </trkpt>
      <trkpt lat="-21.02184" lon="55.41025">
        <ele>624.5</ele>
        <time>2013-09-06T09:50:43Z</time>
      </trkpt>
      <trkpt lat="-21.02191" lon="55.41021">
        <ele>623.3</ele>
        <time>2013-09-06T09:50:50Z</time>
      </trkpt>
      <trkpt lat="-21.02196" lon="55.41014">
        <ele>621.2</ele>
        <time>2013-09-06T09:50:56Z</time>
      </trkpt>
      <trkpt lat="-21.02202" lon="55.41009">
        <ele>620.4</ele>
        <time>2013-09-06T09:51:01Z</time>
      </trkpt>
      <trkpt lat="-21.02209" lon="55.41003">
        <ele>619.1</ele>
        <time>2013-09-06T09:51:06Z</time>
      </trkpt>
      <trkpt lat="-21.02215" lon="55.40997">
        <ele>617.1</ele>
        <time>2013-09-06T09:51:12Z</time>
      </trkpt>
      <trkpt lat="-21.02219" lon="55.4099">
        <ele>616.3</ele>
        <time>2013-09-06T09:51:18Z</time>
      </trkpt>
      <trkpt lat="-21.02214" lon="55.40982">
        <ele>614.6</ele>
        <time>2013-09-06T09:51:27Z</time>
      </trkpt>
      <trkpt lat="-21.02206" lon="55.40978">
        <ele>612.4</ele>
        <time>2013-09-06T09:51:33Z</time>
      </trkpt>
      <trkpt lat="-21.02199" lon="55.4098">
        <ele>611.6</ele>
        <time>2013-09-06T09:51:37Z</time>
      </trkpt>
      <trkpt lat="-21.02192" lon="55.40982">
        <ele>611.2</ele>
        <time>2013-09-06T09:51:40Z</time>
      </trkpt>
      <trkpt lat="-21.02185" lon="55.40981">
        <ele>609.5</ele>
        <time>2013-09-06T09:51:44Z</time>
      </trkpt>
      <trkpt lat="-21.02178" lon="55.40977">
        <ele>608.3</ele>
        <time>2013-09-06T09:51:49Z</time>
      </trkpt>
      <trkpt lat="-21.0217" lon="55.40973">
        <ele>606.3</ele>
        <time>2013-09-06T09:51:55Z</time>
      </trkpt>
      <trkpt lat="-21.02162" lon="55.40971">
        <ele>604.3</ele>
        <time>2013-09-06T09:52:02Z</time>
      </trkpt>
      <trkpt lat="-21.02155" lon="55.40966">
        <ele>601.9</ele>
        <time>2013-09-06T09:52:09Z</time>
      </trkpt>
      <trkpt lat="-21.02148" lon="55.40961">
        <ele>598.7</ele>
        <time>2013-09-06T09:52:16Z</time>
      </trkpt>
      <trkpt lat="-21.02141" lon="55.40956">
        <ele>596.9</ele>
        <time>2013-09-06T09:52:22Z</time>
      </trkpt>
      <trkpt lat="-21.02135" lon="55.40949">
        <ele>594.8</ele>
        <time>2013-09-06T09:52:30Z</time>
      </trkpt>
      <trkpt lat="-21.02127" lon="55.40944">
        <ele>593.6</ele>
        <time>2013-09-06T09:52:38Z</time>
      </trkpt>
      <trkpt lat="-21.02135" lon="55.40939">
        <ele>590.4</ele>
        <time>2013-09-06T09:52:51Z</time>
      </trkpt>
      <trkpt lat="-21.02143" lon="55.40936">
        <ele>587.9</ele>
        <time>2013-09-06T09:52:58Z</time>
      </trkpt>
      <trkpt lat="-21.0215" lon="55.40932">
        <ele>585.7</ele>
        <time>2013-09-06T09:53:04Z</time>
      </trkpt>
      <trkpt lat="-21.02157" lon="55.40927">
        <ele>584.8</ele>
        <time>2013-09-06T09:53:09Z</time>
      </trkpt>
      <trkpt lat="-21.02162" lon="55.4092">
        <ele>583.8</ele>
        <time>2013-09-06T09:53:14Z</time>
      </trkpt>
      <trkpt lat="-21.0217" lon="55.4092">
        <ele>581.6</ele>
        <time>2013-09-06T09:53:20Z</time>
      </trkpt>
      <trkpt lat="-21.02177" lon="55.40915">
        <ele>578.8</ele>
        <time>2013-09-06T09:53:31Z</time>
      </trkpt>
      <trkpt lat="-21.02186" lon="55.40914">
        <ele>575.3</ele>
        <time>2013-09-06T09:53:40Z</time>
      </trkpt>
      <trkpt lat="-21.02194" lon="55.40911">
        <ele>574.4</ele>
        <time>2013-09-06T09:53:45Z</time>
      </trkpt>
      <trkpt lat="-21.02201" lon="55.40909">
        <ele>572.6</ele>
        <time>2013-09-06T09:53:52Z</time>
      </trkpt>
      <trkpt lat="-21.02209" lon="55.40905">
        <ele>571.8</ele>
        <time>2013-09-06T09:53:58Z</time>
      </trkpt>
      <trkpt lat="-21.02216" lon="55.40901">
        <ele>571</ele>
        <time>2013-09-06T09:54:04Z</time>
      </trkpt>
      <trkpt lat="-21.02224" lon="55.40899">
        <ele>569.2</ele>
        <time>2013-09-06T09:54:11Z</time>
      </trkpt>
      <trkpt lat="-21.02217" lon="55.40895">
        <ele>564.7</ele>
        <time>2013-09-06T09:54:23Z</time>
      </trkpt>
      <trkpt lat="-21.02209" lon="55.40893">
        <ele>563.3</ele>
        <time>2013-09-06T09:54:28Z</time>
      </trkpt>
      <trkpt lat="-21.02201" lon="55.40896">
        <ele>561</ele>
        <time>2013-09-06T09:54:35Z</time>
      </trkpt>
      <trkpt lat="-21.02193" lon="55.40893">
        <ele>559.5</ele>
        <time>2013-09-06T09:54:42Z</time>
      </trkpt>
      <trkpt lat="-21.02186" lon="55.40888">
        <ele>558.3</ele>
        <time>2013-09-06T09:54:47Z</time>
      </trkpt>
      <trkpt lat="-21.0218" lon="55.40881">
        <ele>556.2</ele>
        <time>2013-09-06T09:54:54Z</time>
      </trkpt>
      <trkpt lat="-21.02174" lon="55.40875">
        <ele>554.3</ele>
        <time>2013-09-06T09:55:00Z</time>
      </trkpt>
      <trkpt lat="-21.02171" lon="55.40867">
        <ele>552.6</ele>
        <time>2013-09-06T09:55:06Z</time>
      </trkpt>
      <trkpt lat="-21.02165" lon="55.40859">
        <ele>550.9</ele>
        <time>2013-09-06T09:55:14Z</time>
      </trkpt>
      <trkpt lat="-21.02159" lon="55.40852">
        <ele>548.6</ele>
        <time>2013-09-06T09:55:24Z</time>
      </trkpt>
      <trkpt lat="-21.02158" lon="55.40843">
        <ele>543.7</ele>
        <time>2013-09-06T09:55:38Z</time>
      </trkpt>
      <trkpt lat="-21.02166" lon="55.4084">
        <ele>543</ele>
        <time>2013-09-06T09:55:44Z</time>
      </trkpt>
      <trkpt lat="-21.02173" lon="55.40836">
        <ele>542</ele>
        <time>2013-09-06T09:55:48Z</time>
      </trkpt>
      <trkpt lat="-21.0218" lon="55.40833">
        <ele>541.2</ele>
        <time>2013-09-06T09:55:53Z</time>
      </trkpt>
      <trkpt lat="-21.02187" lon="55.4083">
        <ele>540.3</ele>
        <time>2013-09-06T09:55:57Z</time>
      </trkpt>
      <trkpt lat="-21.02195" lon="55.40827">
        <ele>537.4</ele>
        <time>2013-09-06T09:56:06Z</time>
      </trkpt>
      <trkpt lat="-21.02192" lon="55.40818">
        <ele>534.7</ele>
        <time>2013-09-06T09:56:24Z</time>
      </trkpt>
      <trkpt lat="-21.02184" lon="55.40818">
        <ele>534.1</ele>
        <time>2013-09-06T09:56:28Z</time>
      </trkpt>
      <trkpt lat="-21.02177" lon="55.40817">
        <ele>532.7</ele>
        <time>2013-09-06T09:56:32Z</time>
      </trkpt>
      <trkpt lat="-21.02169" lon="55.40814">
        <ele>531.7</ele>
        <time>2013-09-06T09:56:37Z</time>
      </trkpt>
      <trkpt lat="-21.02162" lon="55.4081">
        <ele>530.8</ele>
        <time>2013-09-06T09:56:42Z</time>
      </trkpt>
      <trkpt lat="-21.02154" lon="55.40805">
        <ele>528</ele>
        <time>2013-09-06T09:56:49Z</time>
      </trkpt>
      <trkpt lat="-21.02146" lon="55.40802">
        <ele>524.9</ele>
        <time>2013-09-06T09:57:01Z</time>
      </trkpt>
      <trkpt lat="-21.02137" lon="55.408">
        <ele>521</ele>
        <time>2013-09-06T09:57:13Z</time>
      </trkpt>
      <trkpt lat="-21.02128" lon="55.40799">
        <ele>518</ele>
        <time>2013-09-06T09:57:25Z</time>
      </trkpt>
      <trkpt lat="-21.02118" lon="55.40801">
        <ele>515</ele>
        <time>2013-09-06T09:57:40Z</time>
      </trkpt>
      <trkpt lat="-21.02113" lon="55.40793">
        <ele>514</ele>
        <time>2013-09-06T09:57:48Z</time>
      </trkpt>
      <trkpt lat="-21.02111" lon="55.40779">
        <ele>512</ele>
        <time>2013-09-06T09:58:02Z</time>
      </trkpt>
      <trkpt lat="-21.02113" lon="55.40768">
        <ele>509</ele>
        <time>2013-09-06T09:58:14Z</time>
      </trkpt>
      <trkpt lat="-21.02101" lon="55.40765">
        <ele>509</ele>
        <time>2013-09-06T09:58:22Z</time>
      </trkpt>
      <trkpt lat="-21.02086" lon="55.40767">
        <ele>508</ele>
        <time>2013-09-06T09:58:30Z</time>
      </trkpt>
      <trkpt lat="-21.02076" lon="55.4077">
        <ele>506</ele>
        <time>2013-09-06T09:58:38Z</time>
      </trkpt>
      <trkpt lat="-21.02079" lon="55.40761">
        <ele>504</ele>
        <time>2013-09-06T09:58:46Z</time>
      </trkpt>
      <trkpt lat="-21.02066" lon="55.40743">
        <ele>502</ele>
        <time>2013-09-06T09:59:01Z</time>
      </trkpt>
      <trkpt lat="-21.02045" lon="55.40738">
        <ele>499</ele>
        <time>2013-09-06T09:59:17Z</time>
      </trkpt>
      <trkpt lat="-21.02005" lon="55.40754">
        <ele>498</ele>
        <time>2013-09-06T09:59:31Z</time>
      </trkpt>
      <trkpt lat="-21.02009" lon="55.40744">
        <ele>498</ele>
        <time>2013-09-06T09:59:38Z</time>
      </trkpt>
      <trkpt lat="-21.02011" lon="55.40731">
        <ele>499</ele>
        <time>2013-09-06T09:59:46Z</time>
      </trkpt>
      <trkpt lat="-21.02003" lon="55.40725">
        <ele>498</ele>
        <time>2013-09-06T09:59:54Z</time>
      </trkpt>
      <trkpt lat="-21.02002" lon="55.40714">
        <ele>497</ele>
        <time>2013-09-06T10:00:02Z</time>
      </trkpt>
      <trkpt lat="-21.01991" lon="55.40703">
        <ele>497</ele>
        <time>2013-09-06T10:00:10Z</time>
      </trkpt>
      <trkpt lat="-21.01981" lon="55.40692">
        <ele>497</ele>
        <time>2013-09-06T10:00:18Z</time>
      </trkpt>
      <trkpt lat="-21.01986" lon="55.40683">
        <ele>497</ele>
        <time>2013-09-06T10:00:26Z</time>
      </trkpt>
      <trkpt lat="-21.01987" lon="55.40669">
        <ele>496</ele>
        <time>2013-09-06T10:00:34Z</time>
      </trkpt>
      <trkpt lat="-21.01978" lon="55.40658">
        <ele>495</ele>
        <time>2013-09-06T10:00:42Z</time>
      </trkpt>
      <trkpt lat="-21.01969" lon="55.40652">
        <ele>496</ele>
        <time>2013-09-06T10:00:50Z</time>
      </trkpt>
      <trkpt lat="-21.01964" lon="55.40642">
        <ele>495</ele>
        <time>2013-09-06T10:00:58Z</time>
      </trkpt>
      <trkpt lat="-21.01962" lon="55.40632">
        <ele>494</ele>
        <time>2013-09-06T10:01:06Z</time>
      </trkpt>
      <trkpt lat="-21.01952" lon="55.4063">
        <ele>493</ele>
        <time>2013-09-06T10:01:14Z</time>
      </trkpt>
      <trkpt lat="-21.01956" lon="55.4062">
        <ele>492</ele>
        <time>2013-09-06T10:01:22Z</time>
      </trkpt>
      <trkpt lat="-21.01957" lon="55.40609">
        <ele>492</ele>
        <time>2013-09-06T10:01:38Z</time>
      </trkpt>
      <trkpt lat="-21.0195" lon="55.40598">
        <ele>492</ele>
        <time>2013-09-06T10:01:47Z</time>
      </trkpt>
      <trkpt lat="-21.01944" lon="55.4059">
        <ele>489</ele>
        <time>2013-09-06T10:01:55Z</time>
      </trkpt>
      <trkpt lat="-21.01934" lon="55.40582">
        <ele>487</ele>
        <time>2013-09-06T10:02:07Z</time>
      </trkpt>
      <trkpt lat="-21.01933" lon="55.4057">
        <ele>485</ele>
        <time>2013-09-06T10:02:15Z</time>
      </trkpt>
      <trkpt lat="-21.0193" lon="55.40556">
        <ele>483</ele>
        <time>2013-09-06T10:02:23Z</time>
      </trkpt>
      <trkpt lat="-21.0192" lon="55.40547">
        <ele>482</ele>
        <time>2013-09-06T10:02:31Z</time>
      </trkpt>
      <trkpt lat="-21.01912" lon="55.40535">
        <ele>481</ele>
        <time>2013-09-06T10:02:39Z</time>
      </trkpt>
      <trkpt lat="-21.01904" lon="55.40526">
        <ele>478</ele>
        <time>2013-09-06T10:02:47Z</time>
      </trkpt>
      <trkpt lat="-21.01896" lon="55.40516">
        <ele>477</ele>
        <time>2013-09-06T10:02:55Z</time>
      </trkpt>
      <trkpt lat="-21.01888" lon="55.40505">
        <ele>475</ele>
        <time>2013-09-06T10:03:03Z</time>
      </trkpt>
      <trkpt lat="-21.01883" lon="55.40494">
        <ele>475</ele>
        <time>2013-09-06T10:03:11Z</time>
      </trkpt>
      <trkpt lat="-21.01872" lon="55.40486">
        <ele>473</ele>
        <time>2013-09-06T10:03:19Z</time>
      </trkpt>
      <trkpt lat="-21.01862" lon="55.40479">
        <ele>469</ele>
        <time>2013-09-06T10:03:31Z</time>
      </trkpt>
      <trkpt lat="-21.01855" lon="55.40469">
        <ele>467</ele>
        <time>2013-09-06T10:03:47Z</time>
      </trkpt>
      <trkpt lat="-21.01843" lon="55.40469">
        <ele>466</ele>
        <time>2013-09-06T10:03:55Z</time>
      </trkpt>
      <trkpt lat="-21.0183" lon="55.40466">
        <ele>465</ele>
        <time>2013-09-06T10:04:03Z</time>
      </trkpt>
      <trkpt lat="-21.0182" lon="55.40465">
        <ele>464</ele>
        <time>2013-09-06T10:04:11Z</time>
      </trkpt>
      <trkpt lat="-21.01829" lon="55.40455">
        <ele>465</ele>
        <time>2013-09-06T10:04:19Z</time>
      </trkpt>
      <trkpt lat="-21.01839" lon="55.4044">
        <ele>462</ele>
        <time>2013-09-06T10:04:33Z</time>
      </trkpt>
      <trkpt lat="-21.01818" lon="55.40445">
        <ele>461</ele>
        <time>2013-09-06T10:04:49Z</time>
      </trkpt>
      <trkpt lat="-21.018" lon="55.40443">
        <ele>460</ele>
        <time>2013-09-06T10:05:05Z</time>
      </trkpt>
      <trkpt lat="-21.01784" lon="55.40441">
        <ele>461</ele>
        <time>2013-09-06T10:05:21Z</time>
      </trkpt>
      <trkpt lat="-21.01769" lon="55.40436">
        <ele>456</ele>
        <time>2013-09-06T10:05:37Z</time>
      </trkpt>
      <trkpt lat="-21.01756" lon="55.40429">
        <ele>451</ele>
        <time>2013-09-06T10:05:53Z</time>
      </trkpt>
      <trkpt lat="-21.01741" lon="55.40428">
        <ele>445</ele>
        <time>2013-09-06T10:06:11Z</time>
      </trkpt>
      <trkpt lat="-21.01726" lon="55.40417">
        <ele>440</ele>
        <time>2013-09-06T10:06:30Z</time>
      </trkpt>
      <trkpt lat="-21.01711" lon="55.40412">
        <ele>436</ele>
        <time>2013-09-06T10:06:46Z</time>
      </trkpt>
      <trkpt lat="-21.01694" lon="55.40416">
        <ele>431</ele>
        <time>2013-09-06T10:07:02Z</time>
      </trkpt>
      <trkpt lat="-21.01687" lon="55.40409">
        <ele>426</ele>
        <time>2013-09-06T10:07:19Z</time>
      </trkpt>
      <trkpt lat="-21.01685" lon="55.40389">
        <ele>429</ele>
        <time>2013-09-06T10:07:35Z</time>
      </trkpt>
      <trkpt lat="-21.01672" lon="55.40379">
        <ele>427</ele>
        <time>2013-09-06T10:07:51Z</time>
      </trkpt>
      <trkpt lat="-21.01672" lon="55.4036">
        <ele>423</ele>
        <time>2013-09-06T10:08:07Z</time>
      </trkpt>
      <trkpt lat="-21.01669" lon="55.40346">
        <ele>418</ele>
        <time>2013-09-06T10:08:23Z</time>
      </trkpt>
      <trkpt lat="-21.01682" lon="55.40325">
        <ele>412</ele>
        <time>2013-09-06T10:08:39Z</time>
      </trkpt>
      <trkpt lat="-21.01687" lon="55.40314">
        <ele>408</ele>
        <time>2013-09-06T10:08:55Z</time>
      </trkpt>
      <trkpt lat="-21.01667" lon="55.40294">
        <ele>404</ele>
        <time>2013-09-06T10:09:11Z</time>
      </trkpt>
      <trkpt lat="-21.01651" lon="55.40292">
        <ele>399</ele>
        <time>2013-09-06T10:09:27Z</time>
      </trkpt>
      <trkpt lat="-21.01646" lon="55.40271">
        <ele>391</ele>
        <time>2013-09-06T10:09:59Z</time>
      </trkpt>
      <trkpt lat="-21.01634" lon="55.40246">
        <ele>387</ele>
        <time>2013-09-06T10:10:15Z</time>
      </trkpt>
      <trkpt lat="-21.01617" lon="55.40232">
        <ele>385</ele>
        <time>2013-09-06T10:10:31Z</time>
      </trkpt>
      <trkpt lat="-21.01604" lon="55.40219">
        <ele>383</ele>
        <time>2013-09-06T10:10:47Z</time>
      </trkpt>
      <trkpt lat="-21.01587" lon="55.40118">
        <ele>379</ele>
        <time>2013-09-06T10:11:40Z</time>
      </trkpt>
      <trkpt lat="-21.01607" lon="55.39989">
        <ele>371</ele>
        <time>2013-09-06T10:12:38Z</time>
      </trkpt>
      <trkpt lat="-21.01596" lon="55.39995">
        <ele>370</ele>
        <time>2013-09-06T10:12:44Z</time>
      </trkpt>
      <trkpt lat="-21.01583" lon="55.39997">
        <ele>368</ele>
        <time>2013-09-06T10:12:52Z</time>
      </trkpt>
      <trkpt lat="-21.01524" lon="55.40019">
        <ele>365</ele>
        <time>2013-09-06T10:13:15Z</time>
      </trkpt>
      <trkpt lat="-21.01485" lon="55.40001">
        <ele>353</ele>
        <time>2013-09-06T10:13:53Z</time>
      </trkpt>
      <trkpt lat="-21.01451" lon="55.40028">
        <ele>348</ele>
        <time>2013-09-06T10:14:09Z</time>
      </trkpt>
      <trkpt lat="-21.01466" lon="55.40032">
        <ele>333</ele>
        <time>2013-09-06T10:14:52Z</time>
      </trkpt>
      <trkpt lat="-21.01458" lon="55.40045">
        <ele>329</ele>
        <time>2013-09-06T10:15:24Z</time>
      </trkpt>
      <trkpt lat="-21.01449" lon="55.40058">
        <ele>328</ele>
        <time>2013-09-06T10:15:41Z</time>
      </trkpt>
      <trkpt lat="-21.01429" lon="55.4007">
        <ele>323</ele>
        <time>2013-09-06T10:16:19Z</time>
      </trkpt>
      <trkpt lat="-21.01416" lon="55.40055">
        <ele>321</ele>
        <time>2013-09-06T10:16:35Z</time>
      </trkpt>
      <trkpt lat="-21.0139" lon="55.40055">
        <ele>321</ele>
        <time>2013-09-06T10:16:52Z</time>
      </trkpt>
      <trkpt lat="-21.01401" lon="55.40033">
        <ele>322</ele>
        <time>2013-09-06T10:17:08Z</time>
      </trkpt>
      <trkpt lat="-21.01397" lon="55.40024">
        <ele>323</ele>
        <time>2013-09-06T10:17:24Z</time>
      </trkpt>
      <trkpt lat="-21.01371" lon="55.40018">
        <ele>323</ele>
        <time>2013-09-06T10:17:40Z</time>
      </trkpt>
      <trkpt lat="-21.01379" lon="55.39995">
        <ele>325</ele>
        <time>2013-09-06T10:17:56Z</time>
      </trkpt>
      <trkpt lat="-21.01361" lon="55.39982">
        <ele>326</ele>
        <time>2013-09-06T10:18:15Z</time>
      </trkpt>
      <trkpt lat="-21.01441" lon="55.39885">
        <ele>327</ele>
        <time>2013-09-06T10:18:48Z</time>
      </trkpt>
      <trkpt lat="-21.01437" lon="55.39875">
        <ele>326</ele>
        <time>2013-09-06T10:18:56Z</time>
      </trkpt>
      <trkpt lat="-21.01425" lon="55.39879">
        <ele>326</ele>
        <time>2013-09-06T10:19:04Z</time>
      </trkpt>
      <trkpt lat="-21.01408" lon="55.3988">
        <ele>326</ele>
        <time>2013-09-06T10:19:12Z</time>
      </trkpt>
      <trkpt lat="-21.01378" lon="55.39884">
        <ele>326</ele>
        <time>2013-09-06T10:19:28Z</time>
      </trkpt>
      <trkpt lat="-21.01363" lon="55.39888">
        <ele>325</ele>
        <time>2013-09-06T10:19:34Z</time>
      </trkpt>
      <trkpt lat="-21.01355" lon="55.39893">
        <ele>325</ele>
        <time>2013-09-06T10:19:38Z</time>
      </trkpt>
      <trkpt lat="-21.01117" lon="55.39788">
        <ele>321</ele>
        <time>2013-09-06T10:22:30Z</time>
      </trkpt>
      <trkpt lat="-21.00463" lon="55.39475">
        <ele>315</ele>
        <time>2013-09-06T10:30:27Z</time>
      </trkpt>
      <trkpt lat="-21.00455" lon="55.39463">
        <ele>299</ele>
        <time>2013-09-06T10:30:38Z</time>
      </trkpt>
      <trkpt lat="-21.00447" lon="55.39455">
        <ele>298</ele>
        <time>2013-09-06T10:30:46Z</time>
      </trkpt>
      <trkpt lat="-21.00447" lon="55.39442">
        <ele>298</ele>
        <time>2013-09-06T10:30:54Z</time>
      </trkpt>
      <trkpt lat="-21.00448" lon="55.3943">
        <ele>298</ele>
        <time>2013-09-06T10:31:02Z</time>
      </trkpt>
      <trkpt lat="-21.00453" lon="55.39421">
        <ele>298</ele>
        <time>2013-09-06T10:31:10Z</time>
      </trkpt>
      <trkpt lat="-21.00454" lon="55.39409">
        <ele>299</ele>
        <time>2013-09-06T10:31:22Z</time>
      </trkpt>
      <trkpt lat="-21.00452" lon="55.39399">
        <ele>300.4</ele>
        <time>2013-09-06T10:31:31Z</time>
      </trkpt>
      <trkpt lat="-21.00453" lon="55.39387">
        <ele>300</ele>
        <time>2013-09-06T10:31:40Z</time>
      </trkpt>
      <trkpt lat="-21.00442" lon="55.3938">
        <ele>300</ele>
        <time>2013-09-06T10:31:48Z</time>
      </trkpt>
      <trkpt lat="-21.00434" lon="55.39368">
        <ele>301</ele>
        <time>2013-09-06T10:31:57Z</time>
      </trkpt>
      <trkpt lat="-21.00431" lon="55.3936">
        <ele>302.2</ele>
        <time>2013-09-06T10:32:03Z</time>
      </trkpt>
      <trkpt lat="-21.00431" lon="55.39351">
        <ele>302.4</ele>
        <time>2013-09-06T10:32:07Z</time>
      </trkpt>
      <trkpt lat="-21.00435" lon="55.39337">
        <ele>302</ele>
        <time>2013-09-06T10:32:13Z</time>
      </trkpt>
      <trkpt lat="-21.00436" lon="55.39326">
        <ele>303</ele>
        <time>2013-09-06T10:32:18Z</time>
      </trkpt>
      <trkpt lat="-21.00415" lon="55.39323">
        <ele>305</ele>
        <time>2013-09-06T10:32:26Z</time>
      </trkpt>
      <trkpt lat="-21.00375" lon="55.39336">
        <ele>307</ele>
        <time>2013-09-06T10:32:34Z</time>
      </trkpt>
      <trkpt lat="-21.00386" lon="55.39322">
        <ele>308</ele>
        <time>2013-09-06T10:32:41Z</time>
      </trkpt>
      <trkpt lat="-21.00386" lon="55.39313">
        <ele>309.3</ele>
        <time>2013-09-06T10:32:48Z</time>
      </trkpt>
      <trkpt lat="-21.00379" lon="55.39307">
        <ele>309.4</ele>
        <time>2013-09-06T10:32:54Z</time>
      </trkpt>
      <trkpt lat="-21.00372" lon="55.39304">
        <ele>309.5</ele>
        <time>2013-09-06T10:32:59Z</time>
      </trkpt>
      <trkpt lat="-21.00365" lon="55.39301">
        <ele>309.4</ele>
        <time>2013-09-06T10:33:04Z</time>
      </trkpt>
      <trkpt lat="-21.00358" lon="55.39295">
        <ele>308.9</ele>
        <time>2013-09-06T10:33:10Z</time>
      </trkpt>
      <trkpt lat="-21.00353" lon="55.3929">
        <ele>308.7</ele>
        <time>2013-09-06T10:33:15Z</time>
      </trkpt>
      <trkpt lat="-21.00347" lon="55.39283">
        <ele>308.6</ele>
        <time>2013-09-06T10:33:20Z</time>
      </trkpt>
      <trkpt lat="-21.00342" lon="55.39276">
        <ele>308.5</ele>
        <time>2013-09-06T10:33:25Z</time>
      </trkpt>
      <trkpt lat="-21.00337" lon="55.3927">
        <ele>308.1</ele>
        <time>2013-09-06T10:33:30Z</time>
      </trkpt>
      <trkpt lat="-21.00332" lon="55.39264">
        <ele>308.1</ele>
        <time>2013-09-06T10:33:34Z</time>
      </trkpt>
      <trkpt lat="-21.00326" lon="55.39256">
        <ele>307.8</ele>
        <time>2013-09-06T10:33:39Z</time>
      </trkpt>
      <trkpt lat="-21.0032" lon="55.39249">
        <ele>307.9</ele>
        <time>2013-09-06T10:33:44Z</time>
      </trkpt>
      <trkpt lat="-21.00314" lon="55.39243">
        <ele>307.2</ele>
        <time>2013-09-06T10:33:50Z</time>
      </trkpt>
      <trkpt lat="-21.00309" lon="55.39236">
        <ele>307.1</ele>
        <time>2013-09-06T10:33:55Z</time>
      </trkpt>
      <trkpt lat="-21.00303" lon="55.3923">
        <ele>307.4</ele>
        <time>2013-09-06T10:33:59Z</time>
      </trkpt>
      <trkpt lat="-21.00298" lon="55.39224">
        <ele>306.6</ele>
        <time>2013-09-06T10:34:04Z</time>
      </trkpt>
      <trkpt lat="-21.00293" lon="55.39218">
        <ele>306.7</ele>
        <time>2013-09-06T10:34:08Z</time>
      </trkpt>
      <trkpt lat="-21.00287" lon="55.39213">
        <ele>307</ele>
        <time>2013-09-06T10:34:12Z</time>
      </trkpt>
      <trkpt lat="-21.00282" lon="55.39207">
        <ele>306.9</ele>
        <time>2013-09-06T10:34:16Z</time>
      </trkpt>
      <trkpt lat="-21.00276" lon="55.39201">
        <ele>306.1</ele>
        <time>2013-09-06T10:34:21Z</time>
      </trkpt>
      <trkpt lat="-21.0027" lon="55.39194">
        <ele>306</ele>
        <time>2013-09-06T10:34:26Z</time>
      </trkpt>
      <trkpt lat="-21.00265" lon="55.39187">
        <ele>306.5</ele>
        <time>2013-09-06T10:34:31Z</time>
      </trkpt>
      <trkpt lat="-21.00258" lon="55.39181">
        <ele>306.9</ele>
        <time>2013-09-06T10:34:37Z</time>
      </trkpt>
      <trkpt lat="-21.00252" lon="55.39175">
        <ele>305.9</ele>
        <time>2013-09-06T10:34:42Z</time>
      </trkpt>
      <trkpt lat="-21.00246" lon="55.3917">
        <ele>305.6</ele>
        <time>2013-09-06T10:34:46Z</time>
      </trkpt>
      <trkpt lat="-21.00238" lon="55.39165">
        <ele>304.4</ele>
        <time>2013-09-06T10:34:51Z</time>
      </trkpt>
      <trkpt lat="-21.00232" lon="55.3916">
        <ele>303.9</ele>
        <time>2013-09-06T10:34:57Z</time>
      </trkpt>
      <trkpt lat="-21.00226" lon="55.39155">
        <ele>303.3</ele>
        <time>2013-09-06T10:35:02Z</time>
      </trkpt>
      <trkpt lat="-21.00219" lon="55.39149">
        <ele>303.4</ele>
        <time>2013-09-06T10:35:07Z</time>
      </trkpt>
      <trkpt lat="-21.00214" lon="55.39144">
        <ele>303.1</ele>
        <time>2013-09-06T10:35:12Z</time>
      </trkpt>
      <trkpt lat="-21.00208" lon="55.39139">
        <ele>302.5</ele>
        <time>2013-09-06T10:35:17Z</time>
      </trkpt>
      <trkpt lat="-21.00202" lon="55.39133">
        <ele>303.1</ele>
        <time>2013-09-06T10:35:22Z</time>
      </trkpt>
      <trkpt lat="-21.00195" lon="55.39127">
        <ele>303.1</ele>
        <time>2013-09-06T10:35:29Z</time>
      </trkpt>
      <trkpt lat="-21.00188" lon="55.39123">
        <ele>302.7</ele>
        <time>2013-09-06T10:35:35Z</time>
      </trkpt>
      <trkpt lat="-21.00182" lon="55.39117">
        <ele>302.7</ele>
        <time>2013-09-06T10:35:41Z</time>
      </trkpt>
      <trkpt lat="-21.00177" lon="55.39111">
        <ele>302.2</ele>
        <time>2013-09-06T10:35:46Z</time>
      </trkpt>
      <trkpt lat="-21.00174" lon="55.39103">
        <ele>301.4</ele>
        <time>2013-09-06T10:35:51Z</time>
      </trkpt>
      <trkpt lat="-21.0017" lon="55.39096">
        <ele>301.9</ele>
        <time>2013-09-06T10:35:56Z</time>
      </trkpt>
      <trkpt lat="-21.00166" lon="55.39089">
        <ele>301.7</ele>
        <time>2013-09-06T10:36:00Z</time>
      </trkpt>
      <trkpt lat="-21.0016" lon="55.39082">
        <ele>302.1</ele>
        <time>2013-09-06T10:36:05Z</time>
      </trkpt>
      <trkpt lat="-21.00155" lon="55.39075">
        <ele>302.6</ele>
        <time>2013-09-06T10:36:11Z</time>
      </trkpt>
      <trkpt lat="-21.00152" lon="55.39066">
        <ele>301.4</ele>
        <time>2013-09-06T10:36:18Z</time>
      </trkpt>
      <trkpt lat="-21.00148" lon="55.39058">
        <ele>300.8</ele>
        <time>2013-09-06T10:36:26Z</time>
      </trkpt>
      <trkpt lat="-21.00141" lon="55.39053">
        <ele>300.6</ele>
        <time>2013-09-06T10:36:31Z</time>
      </trkpt>
      <trkpt lat="-21.00135" lon="55.39047">
        <ele>299.6</ele>
        <time>2013-09-06T10:36:36Z</time>
      </trkpt>
      <trkpt lat="-21.00131" lon="55.39039">
        <ele>298.8</ele>
        <time>2013-09-06T10:36:43Z</time>
      </trkpt>
      <trkpt lat="-21.00128" lon="55.39031">
        <ele>298.6</ele>
        <time>2013-09-06T10:36:49Z</time>
      </trkpt>
      <trkpt lat="-21.00126" lon="55.39022">
        <ele>298.1</ele>
        <time>2013-09-06T10:36:56Z</time>
      </trkpt>
      <trkpt lat="-21.00125" lon="55.3902">
        <ele>298</ele>
        <time>2013-09-06T10:36:58Z</time>
      </trkpt>
      <trkpt lat="-21.00125" lon="55.3902">
        <ele>298</ele>
        <time>2013-09-06T10:36:58Z</time>
      </trkpt>
      <trkpt lat="-21.00124" lon="55.39017">
        <ele>297.6</ele>
        <time>2013-09-06T10:37:04Z</time>
      </trkpt>
      <trkpt lat="-21.00113" lon="55.38982">
        <ele>291.7</ele>
        <time>2013-09-06T10:38:08Z</time>
      </trkpt>
      <trkpt lat="-21.00105" lon="55.38982">
        <ele>292.4</ele>
        <time>2013-09-06T10:38:35Z</time>
      </trkpt>
      <trkpt lat="-21.00098" lon="55.38977">
        <ele>292.4</ele>
        <time>2013-09-06T10:39:28Z</time>
      </trkpt>
      <trkpt lat="-21.00101" lon="55.38968">
        <ele>292.3</ele>
        <time>2013-09-06T10:39:45Z</time>
      </trkpt>
      <trkpt lat="-21.00107" lon="55.3896">
        <ele>291.8</ele>
        <time>2013-09-06T10:39:58Z</time>
      </trkpt>
      <trkpt lat="-21.00105" lon="55.38951">
        <ele>293.1</ele>
        <time>2013-09-06T10:40:10Z</time>
      </trkpt>
      <trkpt lat="-21.00099" lon="55.38945">
        <ele>295</ele>
        <time>2013-09-06T10:45:28Z</time>
      </trkpt>
      <trkpt lat="-21.00091" lon="55.38942">
        <ele>296.2</ele>
        <time>2013-09-06T10:45:37Z</time>
      </trkpt>
      <trkpt lat="-21.00082" lon="55.38942">
        <ele>298.7</ele>
        <time>2013-09-06T10:45:48Z</time>
      </trkpt>
      <trkpt lat="-21.00074" lon="55.38944">
        <ele>303.9</ele>
        <time>2013-09-06T10:46:10Z</time>
      </trkpt>
      <trkpt lat="-21.00078" lon="55.38938">
        <ele>304.7</ele>
        <time>2013-09-06T10:46:15Z</time>
      </trkpt>
      <trkpt lat="-21.00085" lon="55.38934">
        <ele>305.1</ele>
        <time>2013-09-06T10:46:18Z</time>
      </trkpt>
      <trkpt lat="-21.00094" lon="55.38932">
        <ele>305.3</ele>
        <time>2013-09-06T10:46:21Z</time>
      </trkpt>
      <trkpt lat="-21.00106" lon="55.38932">
        <ele>306</ele>
        <time>2013-09-06T10:46:26Z</time>
      </trkpt>
      <trkpt lat="-21.00096" lon="55.38941">
        <ele>308</ele>
        <time>2013-09-06T10:46:36Z</time>
      </trkpt>
      <trkpt lat="-21.00088" lon="55.38943">
        <ele>310.2</ele>
        <time>2013-09-06T10:46:42Z</time>
      </trkpt>
      <trkpt lat="-21.00081" lon="55.38946">
        <ele>311.2</ele>
        <time>2013-09-06T10:46:47Z</time>
      </trkpt>
      <trkpt lat="-21.00073" lon="55.38947">
        <ele>313.1</ele>
        <time>2013-09-06T10:46:53Z</time>
      </trkpt>
      <trkpt lat="-21.00064" lon="55.38949">
        <ele>314.1</ele>
        <time>2013-09-06T10:47:03Z</time>
      </trkpt>
      <trkpt lat="-21.00057" lon="55.38953">
        <ele>314.9</ele>
        <time>2013-09-06T10:47:09Z</time>
      </trkpt>
      <trkpt lat="-21.00049" lon="55.38952">
        <ele>317.6</ele>
        <time>2013-09-06T10:47:19Z</time>
      </trkpt>
      <trkpt lat="-21.0004" lon="55.38954">
        <ele>319.2</ele>
        <time>2013-09-06T10:47:24Z</time>
      </trkpt>
      <trkpt lat="-21.00032" lon="55.3895">
        <ele>320.4</ele>
        <time>2013-09-06T10:47:31Z</time>
      </trkpt>
      <trkpt lat="-21.00025" lon="55.38949">
        <ele>320.8</ele>
        <time>2013-09-06T10:47:37Z</time>
      </trkpt>
      <trkpt lat="-21.00016" lon="55.3895">
        <ele>321.1</ele>
        <time>2013-09-06T10:47:44Z</time>
      </trkpt>
      <trkpt lat="-21.00009" lon="55.38954">
        <ele>321.5</ele>
        <time>2013-09-06T10:47:51Z</time>
      </trkpt>
      <trkpt lat="-21" lon="55.38953">
        <ele>321.6</ele>
        <time>2013-09-06T10:47:58Z</time>
      </trkpt>
      <trkpt lat="-20.99991" lon="55.38951">
        <ele>321.1</ele>
        <time>2013-09-06T10:48:07Z</time>
      </trkpt>
      <trkpt lat="-20.99984" lon="55.38948">
        <ele>320.6</ele>
        <time>2013-09-06T10:48:17Z</time>
      </trkpt>
      <trkpt lat="-20.99975" lon="55.38947">
        <ele>320.4</ele>
        <time>2013-09-06T10:48:26Z</time>
      </trkpt>
      <trkpt lat="-20.99966" lon="55.38946">
        <ele>320.4</ele>
        <time>2013-09-06T10:48:32Z</time>
      </trkpt>
      <trkpt lat="-20.99959" lon="55.38941">
        <ele>320.2</ele>
        <time>2013-09-06T10:48:53Z</time>
      </trkpt>
      <trkpt lat="-20.99951" lon="55.38943">
        <ele>322.4</ele>
        <time>2013-09-06T10:49:09Z</time>
      </trkpt>
      <trkpt lat="-20.99936" lon="55.38935">
        <ele>325</ele>
        <time>2013-09-06T10:49:23Z</time>
      </trkpt>
      <trkpt lat="-20.9993" lon="55.38929">
        <ele>327.1</ele>
        <time>2013-09-06T10:49:31Z</time>
      </trkpt>
      <trkpt lat="-20.99922" lon="55.38924">
        <ele>329</ele>
        <time>2013-09-06T10:49:48Z</time>
      </trkpt>
      <trkpt lat="-20.99922" lon="55.38915">
        <ele>330.7</ele>
        <time>2013-09-06T10:49:56Z</time>
      </trkpt>
      <trkpt lat="-20.99927" lon="55.38906">
        <ele>331</ele>
        <time>2013-09-06T10:50:09Z</time>
      </trkpt>
      <trkpt lat="-20.99921" lon="55.38898">
        <ele>334</ele>
        <time>2013-09-06T10:50:26Z</time>
      </trkpt>
      <trkpt lat="-20.99912" lon="55.38894">
        <ele>339</ele>
        <time>2013-09-06T10:50:58Z</time>
      </trkpt>
      <trkpt lat="-20.99904" lon="55.38894">
        <ele>340.6</ele>
        <time>2013-09-06T10:51:03Z</time>
      </trkpt>
      <trkpt lat="-20.99896" lon="55.38893">
        <ele>341.3</ele>
        <time>2013-09-06T10:51:06Z</time>
      </trkpt>
      <trkpt lat="-20.99885" lon="55.38882">
        <ele>341</ele>
        <time>2013-09-06T10:51:15Z</time>
      </trkpt>
      <trkpt lat="-20.99881" lon="55.38874">
        <ele>341.9</ele>
        <time>2013-09-06T10:51:24Z</time>
      </trkpt>
      <trkpt lat="-20.99876" lon="55.38866">
        <ele>342.9</ele>
        <time>2013-09-06T10:51:29Z</time>
      </trkpt>
      <trkpt lat="-20.99868" lon="55.38851">
        <ele>343</ele>
        <time>2013-09-06T10:51:41Z</time>
      </trkpt>
      <trkpt lat="-20.99861" lon="55.38846">
        <ele>343</ele>
        <time>2013-09-06T10:51:47Z</time>
      </trkpt>
      <trkpt lat="-20.99862" lon="55.38837">
        <ele>343</ele>
        <time>2013-09-06T10:51:56Z</time>
      </trkpt>
      <trkpt lat="-20.99866" lon="55.38828">
        <ele>343</ele>
        <time>2013-09-06T10:52:06Z</time>
      </trkpt>
      <trkpt lat="-20.99855" lon="55.38823">
        <ele>345</ele>
        <time>2013-09-06T10:52:18Z</time>
      </trkpt>
      <trkpt lat="-20.99848" lon="55.3882">
        <ele>348</ele>
        <time>2013-09-06T10:52:25Z</time>
      </trkpt>
      <trkpt lat="-20.99856" lon="55.38815">
        <ele>350</ele>
        <time>2013-09-06T10:52:44Z</time>
      </trkpt>
      <trkpt lat="-20.99851" lon="55.38808">
        <ele>357.1</ele>
        <time>2013-09-06T10:53:11Z</time>
      </trkpt>
      <trkpt lat="-20.99843" lon="55.38803">
        <ele>358.6</ele>
        <time>2013-09-06T10:53:17Z</time>
      </trkpt>
      <trkpt lat="-20.99836" lon="55.38798">
        <ele>361.6</ele>
        <time>2013-09-06T10:53:31Z</time>
      </trkpt>
      <trkpt lat="-20.99824" lon="55.38797">
        <ele>363.4</ele>
        <time>2013-09-06T10:53:39Z</time>
      </trkpt>
      <trkpt lat="-20.99817" lon="55.38795">
        <ele>363.9</ele>
        <time>2013-09-06T10:53:41Z</time>
      </trkpt>
      <trkpt lat="-20.99809" lon="55.38792">
        <ele>365.1</ele>
        <time>2013-09-06T10:53:44Z</time>
      </trkpt>
      <trkpt lat="-20.99816" lon="55.38789">
        <ele>366.5</ele>
        <time>2013-09-06T10:53:53Z</time>
      </trkpt>
      <trkpt lat="-20.99825" lon="55.38789">
        <ele>366.5</ele>
        <time>2013-09-06T10:53:56Z</time>
      </trkpt>
      <trkpt lat="-20.99808" lon="55.38794">
        <ele>368</ele>
        <time>2013-09-06T10:54:09Z</time>
      </trkpt>
      <trkpt lat="-20.99811" lon="55.38803">
        <ele>374</ele>
        <time>2013-09-06T10:54:35Z</time>
      </trkpt>
      <trkpt lat="-20.99808" lon="55.38794">
        <ele>379</ele>
        <time>2013-09-06T10:55:01Z</time>
      </trkpt>
      <trkpt lat="-20.99809" lon="55.38785">
        <ele>386</ele>
        <time>2013-09-06T10:55:43Z</time>
      </trkpt>
      <trkpt lat="-20.99816" lon="55.38785">
        <ele>386.6</ele>
        <time>2013-09-06T10:55:46Z</time>
      </trkpt>
      <trkpt lat="-20.99824" lon="55.38785">
        <ele>388</ele>
        <time>2013-09-06T10:55:49Z</time>
      </trkpt>
      <trkpt lat="-20.99826" lon="55.38776">
        <ele>390.3</ele>
        <time>2013-09-06T10:55:58Z</time>
      </trkpt>
      <trkpt lat="-20.99817" lon="55.38777">
        <ele>392.3</ele>
        <time>2013-09-06T10:56:15Z</time>
      </trkpt>
      <trkpt lat="-20.99809" lon="55.38779">
        <ele>394.6</ele>
        <time>2013-09-06T10:56:27Z</time>
      </trkpt>
      <trkpt lat="-20.99799" lon="55.38779">
        <ele>396</ele>
        <time>2013-09-06T10:56:32Z</time>
      </trkpt>
      <trkpt lat="-20.99808" lon="55.38789">
        <ele>398</ele>
        <time>2013-09-06T10:56:47Z</time>
      </trkpt>
      <trkpt lat="-20.99817" lon="55.38788">
        <ele>401</ele>
        <time>2013-09-06T10:56:56Z</time>
      </trkpt>
      <trkpt lat="-20.998" lon="55.38784">
        <ele>405</ele>
        <time>2013-09-06T10:57:11Z</time>
      </trkpt>
      <trkpt lat="-20.99809" lon="55.38779">
        <ele>409</ele>
        <time>2013-09-06T10:57:24Z</time>
      </trkpt>
      <trkpt lat="-20.9981" lon="55.38769">
        <ele>411</ele>
        <time>2013-09-06T10:57:40Z</time>
      </trkpt>
      <trkpt lat="-20.99797" lon="55.38765">
        <ele>412</ele>
        <time>2013-09-06T10:57:48Z</time>
      </trkpt>
      <trkpt lat="-20.99815" lon="55.38751">
        <ele>413</ele>
        <time>2013-09-06T10:57:57Z</time>
      </trkpt>
      <trkpt lat="-20.99773" lon="55.38748">
        <ele>417</ele>
        <time>2013-09-06T10:58:10Z</time>
      </trkpt>
      <trkpt lat="-20.99784" lon="55.38741">
        <ele>418</ele>
        <time>2013-09-06T10:58:19Z</time>
      </trkpt>
      <trkpt lat="-20.99776" lon="55.38745">
        <ele>423</ele>
        <time>2013-09-06T10:58:39Z</time>
      </trkpt>
      <trkpt lat="-20.99766" lon="55.3875">
        <ele>424</ele>
        <time>2013-09-06T10:58:46Z</time>
      </trkpt>
      <trkpt lat="-20.99766" lon="55.38739">
        <ele>427</ele>
        <time>2013-09-06T10:58:59Z</time>
      </trkpt>
      <trkpt lat="-20.99764" lon="55.3872">
        <ele>430</ele>
        <time>2013-09-06T10:59:14Z</time>
      </trkpt>
      <trkpt lat="-20.99766" lon="55.38709">
        <ele>431</ele>
        <time>2013-09-06T10:59:22Z</time>
      </trkpt>
      <trkpt lat="-20.99766" lon="55.38695">
        <ele>432</ele>
        <time>2013-09-06T10:59:30Z</time>
      </trkpt>
      <trkpt lat="-20.99755" lon="55.38688">
        <ele>433</ele>
        <time>2013-09-06T10:59:37Z</time>
      </trkpt>
      <trkpt lat="-20.99741" lon="55.38689">
        <ele>434</ele>
        <time>2013-09-06T10:59:42Z</time>
      </trkpt>
      <trkpt lat="-20.99733" lon="55.3869">
        <ele>431.8</ele>
        <time>2013-09-06T11:00:02Z</time>
      </trkpt>
      <trkpt lat="-20.99736" lon="55.38682">
        <ele>431.7</ele>
        <time>2013-09-06T11:00:20Z</time>
      </trkpt>
      <trkpt lat="-20.99742" lon="55.38675">
        <ele>434.1</ele>
        <time>2013-09-06T11:00:32Z</time>
      </trkpt>
      <trkpt lat="-20.99744" lon="55.38666">
        <ele>436</ele>
        <time>2013-09-06T11:00:42Z</time>
      </trkpt>
      <trkpt lat="-20.99746" lon="55.38657">
        <ele>437.5</ele>
        <time>2013-09-06T11:00:51Z</time>
      </trkpt>
      <trkpt lat="-20.99743" lon="55.38649">
        <ele>437.5</ele>
        <time>2013-09-06T11:00:58Z</time>
      </trkpt>
      <trkpt lat="-20.99743" lon="55.3864">
        <ele>438.1</ele>
        <time>2013-09-06T11:01:06Z</time>
      </trkpt>
      <trkpt lat="-20.9974" lon="55.38631">
        <ele>439.8</ele>
        <time>2013-09-06T11:01:13Z</time>
      </trkpt>
      <trkpt lat="-20.99737" lon="55.38622">
        <ele>440</ele>
        <time>2013-09-06T11:01:22Z</time>
      </trkpt>
      <trkpt lat="-20.99736" lon="55.38613">
        <ele>440.2</ele>
        <time>2013-09-06T11:01:30Z</time>
      </trkpt>
      <trkpt lat="-20.99729" lon="55.38607">
        <ele>441.9</ele>
        <time>2013-09-06T11:01:41Z</time>
      </trkpt>
      <trkpt lat="-20.99721" lon="55.38606">
        <ele>443.9</ele>
        <time>2013-09-06T11:01:51Z</time>
      </trkpt>
      <trkpt lat="-20.99716" lon="55.38601">
        <ele>444.4</ele>
        <time>2013-09-06T11:01:57Z</time>
      </trkpt>
      <trkpt lat="-20.99723" lon="55.38588">
        <ele>444</ele>
        <time>2013-09-06T11:02:05Z</time>
      </trkpt>
      <trkpt lat="-20.99714" lon="55.3859">
        <ele>446.8</ele>
        <time>2013-09-06T11:02:21Z</time>
      </trkpt>
      <trkpt lat="-20.99707" lon="55.38589">
        <ele>447.4</ele>
        <time>2013-09-06T11:02:25Z</time>
      </trkpt>
      <trkpt lat="-20.997" lon="55.38586">
        <ele>447.5</ele>
        <time>2013-09-06T11:02:28Z</time>
      </trkpt>
      <trkpt lat="-20.99692" lon="55.3858">
        <ele>447</ele>
        <time>2013-09-06T11:02:33Z</time>
      </trkpt>
      <trkpt lat="-20.99684" lon="55.38572">
        <ele>447</ele>
        <time>2013-09-06T11:02:39Z</time>
      </trkpt>
      <trkpt lat="-20.99676" lon="55.38562">
        <ele>448</ele>
        <time>2013-09-06T11:02:43Z</time>
      </trkpt>
      <trkpt lat="-20.99673" lon="55.38554">
        <ele>448.7</ele>
        <time>2013-09-06T11:02:48Z</time>
      </trkpt>
      <trkpt lat="-20.9967" lon="55.38546">
        <ele>449.5</ele>
        <time>2013-09-06T11:02:51Z</time>
      </trkpt>
      <trkpt lat="-20.99666" lon="55.38537">
        <ele>451.2</ele>
        <time>2013-09-06T11:03:00Z</time>
      </trkpt>
      <trkpt lat="-20.99667" lon="55.38521">
        <ele>450</ele>
        <time>2013-09-06T11:03:19Z</time>
      </trkpt>
      <trkpt lat="-20.99656" lon="55.38518">
        <ele>451</ele>
        <time>2013-09-06T11:03:28Z</time>
      </trkpt>
      <trkpt lat="-20.99636" lon="55.38522">
        <ele>452</ele>
        <time>2013-09-06T11:03:40Z</time>
      </trkpt>
      <trkpt lat="-20.99628" lon="55.38531">
        <ele>452</ele>
        <time>2013-09-06T11:03:45Z</time>
      </trkpt>
      <trkpt lat="-20.99613" lon="55.38536">
        <ele>453</ele>
        <time>2013-09-06T11:03:51Z</time>
      </trkpt>
      <trkpt lat="-20.99608" lon="55.38525">
        <ele>454</ele>
        <time>2013-09-06T11:03:59Z</time>
      </trkpt>
      <trkpt lat="-20.99611" lon="55.38514">
        <ele>456</ele>
        <time>2013-09-06T11:04:07Z</time>
      </trkpt>
      <trkpt lat="-20.99609" lon="55.385">
        <ele>457</ele>
        <time>2013-09-06T11:04:16Z</time>
      </trkpt>
      <trkpt lat="-20.99604" lon="55.38489">
        <ele>459</ele>
        <time>2013-09-06T11:04:24Z</time>
      </trkpt>
      <trkpt lat="-20.99588" lon="55.38472">
        <ele>463</ele>
        <time>2013-09-06T11:04:42Z</time>
      </trkpt>
      <trkpt lat="-20.99578" lon="55.38458">
        <ele>464</ele>
        <time>2013-09-06T11:04:46Z</time>
      </trkpt>
      <trkpt lat="-20.99571" lon="55.38475">
        <ele>469</ele>
        <time>2013-09-06T11:05:14Z</time>
      </trkpt>
      <trkpt lat="-20.99569" lon="55.38486">
        <ele>471</ele>
        <time>2013-09-06T11:05:26Z</time>
      </trkpt>
      <trkpt lat="-20.99556" lon="55.38479">
        <ele>474</ele>
        <time>2013-09-06T11:05:43Z</time>
      </trkpt>
      <trkpt lat="-20.99549" lon="55.38472">
        <ele>478</ele>
        <time>2013-09-06T11:06:08Z</time>
      </trkpt>
      <trkpt lat="-20.99543" lon="55.38463">
        <ele>480</ele>
        <time>2013-09-06T11:06:16Z</time>
      </trkpt>
      <trkpt lat="-20.99534" lon="55.38456">
        <ele>482</ele>
        <time>2013-09-06T11:06:28Z</time>
      </trkpt>
      <trkpt lat="-20.99527" lon="55.38449">
        <ele>482</ele>
        <time>2013-09-06T11:06:36Z</time>
      </trkpt>
      <trkpt lat="-20.99526" lon="55.38439">
        <ele>483</ele>
        <time>2013-09-06T11:06:48Z</time>
      </trkpt>
      <trkpt lat="-20.99514" lon="55.38451">
        <ele>489</ele>
        <time>2013-09-06T11:07:13Z</time>
      </trkpt>
      <trkpt lat="-20.99499" lon="55.3846">
        <ele>490</ele>
        <time>2013-09-06T11:07:21Z</time>
      </trkpt>
      <trkpt lat="-20.99492" lon="55.38449">
        <ele>489</ele>
        <time>2013-09-06T11:07:32Z</time>
      </trkpt>
      <trkpt lat="-20.99488" lon="55.38438">
        <ele>485</ele>
        <time>2013-09-06T11:07:42Z</time>
      </trkpt>
      <trkpt lat="-20.99489" lon="55.38423">
        <ele>483</ele>
        <time>2013-09-06T11:07:54Z</time>
      </trkpt>
      <trkpt lat="-20.99476" lon="55.38416">
        <ele>480</ele>
        <time>2013-09-06T11:08:06Z</time>
      </trkpt>
      <trkpt lat="-20.99468" lon="55.38409">
        <ele>477</ele>
        <time>2013-09-06T11:08:18Z</time>
      </trkpt>
      <trkpt lat="-20.99465" lon="55.384">
        <ele>470</ele>
        <time>2013-09-06T11:08:46Z</time>
      </trkpt>
      <trkpt lat="-20.9945" lon="55.38396">
        <ele>470</ele>
        <time>2013-09-06T11:09:02Z</time>
      </trkpt>
      <trkpt lat="-20.9945" lon="55.38385">
        <ele>468</ele>
        <time>2013-09-06T11:09:18Z</time>
      </trkpt>
      <trkpt lat="-20.99451" lon="55.38375">
        <ele>465</ele>
        <time>2013-09-06T11:09:30Z</time>
      </trkpt>
      <trkpt lat="-20.99458" lon="55.38368">
        <ele>463</ele>
        <time>2013-09-06T11:09:47Z</time>
      </trkpt>
      <trkpt lat="-20.99467" lon="55.38363">
        <ele>465</ele>
        <time>2013-09-06T11:10:06Z</time>
      </trkpt>
      <trkpt lat="-20.99459" lon="55.38368">
        <ele>471</ele>
        <time>2013-09-06T11:10:36Z</time>
      </trkpt>
      <trkpt lat="-20.99471" lon="55.38366">
        <ele>476</ele>
        <time>2013-09-06T11:10:57Z</time>
      </trkpt>
      <trkpt lat="-20.99483" lon="55.38341">
        <ele>485</ele>
        <time>2013-09-06T11:11:35Z</time>
      </trkpt>
      <trkpt lat="-20.9947" lon="55.3834">
        <ele>490</ele>
        <time>2013-09-06T11:11:58Z</time>
      </trkpt>
      <trkpt lat="-20.99471" lon="55.38326">
        <ele>492</ele>
        <time>2013-09-06T11:12:13Z</time>
      </trkpt>
      <trkpt lat="-20.99475" lon="55.38315">
        <ele>493</ele>
        <time>2013-09-06T11:12:21Z</time>
      </trkpt>
      <trkpt lat="-20.9946" lon="55.38306">
        <ele>497</ele>
        <time>2013-09-06T11:12:42Z</time>
      </trkpt>
      <trkpt lat="-20.9948" lon="55.38294">
        <ele>498</ele>
        <time>2013-09-06T11:12:50Z</time>
      </trkpt>
      <trkpt lat="-20.99485" lon="55.38283">
        <ele>496</ele>
        <time>2013-09-06T11:13:02Z</time>
      </trkpt>
      <trkpt lat="-20.99484" lon="55.38273">
        <ele>496</ele>
        <time>2013-09-06T11:13:14Z</time>
      </trkpt>
      <trkpt lat="-20.99486" lon="55.3826">
        <ele>496</ele>
        <time>2013-09-06T11:13:30Z</time>
      </trkpt>
      <trkpt lat="-20.99502" lon="55.38255">
        <ele>498</ele>
        <time>2013-09-06T11:13:50Z</time>
      </trkpt>
      <trkpt lat="-20.99516" lon="55.38244">
        <ele>499</ele>
        <time>2013-09-06T11:13:58Z</time>
      </trkpt>
      <trkpt lat="-20.995" lon="55.38233">
        <ele>503</ele>
        <time>2013-09-06T11:14:11Z</time>
      </trkpt>
      <trkpt lat="-20.99501" lon="55.38221">
        <ele>505</ele>
        <time>2013-09-06T11:14:21Z</time>
      </trkpt>
      <trkpt lat="-20.99492" lon="55.38224">
        <ele>510</ele>
        <time>2013-09-06T11:14:45Z</time>
      </trkpt>
      <trkpt lat="-20.9948" lon="55.38213">
        <ele>514</ele>
        <time>2013-09-06T11:15:01Z</time>
      </trkpt>
      <trkpt lat="-20.99478" lon="55.38201">
        <ele>518</ele>
        <time>2013-09-06T11:15:20Z</time>
      </trkpt>
      <trkpt lat="-20.99489" lon="55.38203">
        <ele>522</ele>
        <time>2013-09-06T11:15:34Z</time>
      </trkpt>
      <trkpt lat="-20.99474" lon="55.38213">
        <ele>524</ele>
        <time>2013-09-06T11:15:44Z</time>
      </trkpt>
      <trkpt lat="-20.99482" lon="55.38201">
        <ele>525</ele>
        <time>2013-09-06T11:15:50Z</time>
      </trkpt>
      <trkpt lat="-20.99474" lon="55.38193">
        <ele>526</ele>
        <time>2013-09-06T11:16:00Z</time>
      </trkpt>
      <trkpt lat="-20.99484" lon="55.38189">
        <ele>527</ele>
        <time>2013-09-06T11:16:08Z</time>
      </trkpt>
      <trkpt lat="-20.99489" lon="55.38198">
        <ele>529</ele>
        <time>2013-09-06T11:16:19Z</time>
      </trkpt>
      <trkpt lat="-20.99481" lon="55.38192">
        <ele>531</ele>
        <time>2013-09-06T11:16:27Z</time>
      </trkpt>
      <trkpt lat="-20.99479" lon="55.38182">
        <ele>533</ele>
        <time>2013-09-06T11:16:35Z</time>
      </trkpt>
      <trkpt lat="-20.99476" lon="55.38172">
        <ele>540</ele>
        <time>2013-09-06T11:16:59Z</time>
      </trkpt>
      <trkpt lat="-20.99473" lon="55.3816">
        <ele>543</ele>
        <time>2013-09-06T11:17:11Z</time>
      </trkpt>
      <trkpt lat="-20.99466" lon="55.38165">
        <ele>544</ele>
        <time>2013-09-06T11:17:19Z</time>
      </trkpt>
      <trkpt lat="-20.99466" lon="55.38175">
        <ele>545</ele>
        <time>2013-09-06T11:17:27Z</time>
      </trkpt>
      <trkpt lat="-20.99466" lon="55.38165">
        <ele>551</ele>
        <time>2013-09-06T11:17:50Z</time>
      </trkpt>
      <trkpt lat="-20.99467" lon="55.3815">
        <ele>557</ele>
        <time>2013-09-06T11:18:24Z</time>
      </trkpt>
      <trkpt lat="-20.99476" lon="55.38142">
        <ele>559</ele>
        <time>2013-09-06T11:18:32Z</time>
      </trkpt>
      <trkpt lat="-20.99466" lon="55.38142">
        <ele>561</ele>
        <time>2013-09-06T11:18:44Z</time>
      </trkpt>
      <trkpt lat="-20.99467" lon="55.38131">
        <ele>568</ele>
        <time>2013-09-06T11:19:20Z</time>
      </trkpt>
      <trkpt lat="-20.99458" lon="55.38132">
        <ele>570</ele>
        <time>2013-09-06T11:19:35Z</time>
      </trkpt>
      <trkpt lat="-20.99451" lon="55.38146">
        <ele>578</ele>
        <time>2013-09-06T11:20:02Z</time>
      </trkpt>
      <trkpt lat="-20.99446" lon="55.38136">
        <ele>584</ele>
        <time>2013-09-06T11:20:34Z</time>
      </trkpt>
      <trkpt lat="-20.99435" lon="55.38134">
        <ele>588</ele>
        <time>2013-09-06T11:20:55Z</time>
      </trkpt>
      <trkpt lat="-20.99428" lon="55.38146">
        <ele>593</ele>
        <time>2013-09-06T11:21:44Z</time>
      </trkpt>
      <trkpt lat="-20.9943" lon="55.38135">
        <ele>601</ele>
        <time>2013-09-06T11:22:33Z</time>
      </trkpt>
      <trkpt lat="-20.99423" lon="55.38125">
        <ele>599</ele>
        <time>2013-09-06T11:22:46Z</time>
      </trkpt>
      <trkpt lat="-20.99409" lon="55.38128">
        <ele>604</ele>
        <time>2013-09-06T11:23:08Z</time>
      </trkpt>
      <trkpt lat="-20.99403" lon="55.38117">
        <ele>606</ele>
        <time>2013-09-06T11:23:28Z</time>
      </trkpt>
      <trkpt lat="-20.99396" lon="55.38109">
        <ele>604</ele>
        <time>2013-09-06T11:23:40Z</time>
      </trkpt>
      <trkpt lat="-20.99391" lon="55.381">
        <ele>602</ele>
        <time>2013-09-06T11:23:52Z</time>
      </trkpt>
      <trkpt lat="-20.99388" lon="55.38087">
        <ele>598</ele>
        <time>2013-09-06T11:24:08Z</time>
      </trkpt>
      <trkpt lat="-20.9938" lon="55.38077">
        <ele>599</ele>
        <time>2013-09-06T11:24:20Z</time>
      </trkpt>
      <trkpt lat="-20.99376" lon="55.38065">
        <ele>598</ele>
        <time>2013-09-06T11:24:32Z</time>
      </trkpt>
      <trkpt lat="-20.99371" lon="55.38052">
        <ele>596</ele>
        <time>2013-09-06T11:24:44Z</time>
      </trkpt>
      <trkpt lat="-20.9937" lon="55.38042">
        <ele>595</ele>
        <time>2013-09-06T11:24:52Z</time>
      </trkpt>
      <trkpt lat="-20.99376" lon="55.38033">
        <ele>596</ele>
        <time>2013-09-06T11:25:02Z</time>
      </trkpt>
      <trkpt lat="-20.99373" lon="55.38022">
        <ele>598</ele>
        <time>2013-09-06T11:25:16Z</time>
      </trkpt>
      <trkpt lat="-20.99372" lon="55.38011">
        <ele>596</ele>
        <time>2013-09-06T11:25:24Z</time>
      </trkpt>
      <trkpt lat="-20.99373" lon="55.38">
        <ele>597</ele>
        <time>2013-09-06T11:25:44Z</time>
      </trkpt>
      <trkpt lat="-20.99373" lon="55.37987">
        <ele>595</ele>
        <time>2013-09-06T11:26:00Z</time>
      </trkpt>
      <trkpt lat="-20.99377" lon="55.37974">
        <ele>594</ele>
        <time>2013-09-06T11:26:12Z</time>
      </trkpt>
      <trkpt lat="-20.99381" lon="55.37965">
        <ele>595</ele>
        <time>2013-09-06T11:26:20Z</time>
      </trkpt>
      <trkpt lat="-20.99386" lon="55.37952">
        <ele>594</ele>
        <time>2013-09-06T11:26:28Z</time>
      </trkpt>
      <trkpt lat="-20.99388" lon="55.37935">
        <ele>595</ele>
        <time>2013-09-06T11:26:36Z</time>
      </trkpt>
      <trkpt lat="-20.99395" lon="55.37919">
        <ele>595</ele>
        <time>2013-09-06T11:26:50Z</time>
      </trkpt>
      <trkpt lat="-20.99406" lon="55.3791">
        <ele>596</ele>
        <time>2013-09-06T11:26:58Z</time>
      </trkpt>
      <trkpt lat="-20.99403" lon="55.379">
        <ele>597</ele>
        <time>2013-09-06T11:27:08Z</time>
      </trkpt>
      <trkpt lat="-20.99396" lon="55.37886">
        <ele>601</ele>
        <time>2013-09-06T11:27:27Z</time>
      </trkpt>
      <trkpt lat="-20.99396" lon="55.37876">
        <ele>603</ele>
        <time>2013-09-06T11:27:40Z</time>
      </trkpt>
      <trkpt lat="-20.99398" lon="55.37865">
        <ele>602</ele>
        <time>2013-09-06T11:27:52Z</time>
      </trkpt>
      <trkpt lat="-20.9939" lon="55.37851">
        <ele>602</ele>
        <time>2013-09-06T11:28:05Z</time>
      </trkpt>
      <trkpt lat="-20.99394" lon="55.37838">
        <ele>606</ele>
        <time>2013-09-06T11:28:22Z</time>
      </trkpt>
      <trkpt lat="-20.99389" lon="55.37826">
        <ele>610</ele>
        <time>2013-09-06T11:28:38Z</time>
      </trkpt>
      <trkpt lat="-20.99396" lon="55.37815">
        <ele>613</ele>
        <time>2013-09-06T11:28:54Z</time>
      </trkpt>
      <trkpt lat="-20.99417" lon="55.37816">
        <ele>616</ele>
        <time>2013-09-06T11:29:09Z</time>
      </trkpt>
      <trkpt lat="-20.99411" lon="55.37835">
        <ele>617</ele>
        <time>2013-09-06T11:29:16Z</time>
      </trkpt>
      <trkpt lat="-20.99414" lon="55.37828">
        <ele>623.7</ele>
        <time>2013-09-06T11:29:32Z</time>
      </trkpt>
      <trkpt lat="-20.99412" lon="55.37841">
        <ele>630</ele>
        <time>2013-09-06T11:30:15Z</time>
      </trkpt>
      <trkpt lat="-20.99405" lon="55.37847">
        <ele>632.4</ele>
        <time>2013-09-06T11:30:24Z</time>
      </trkpt>
      <trkpt lat="-20.99398" lon="55.37849">
        <ele>632.9</ele>
        <time>2013-09-06T11:30:29Z</time>
      </trkpt>
      <trkpt lat="-20.99387" lon="55.3785">
        <ele>634.7</ele>
        <time>2013-09-06T11:30:40Z</time>
      </trkpt>
      <trkpt lat="-20.99381" lon="55.37855">
        <ele>635.1</ele>
        <time>2013-09-06T11:30:44Z</time>
      </trkpt>
      <trkpt lat="-20.9938" lon="55.37836">
        <ele>637</ele>
        <time>2013-09-06T11:31:03Z</time>
      </trkpt>
      <trkpt lat="-20.99383" lon="55.37817">
        <ele>640</ele>
        <time>2013-09-06T11:31:20Z</time>
      </trkpt>
      <trkpt lat="-20.99363" lon="55.37826">
        <ele>641</ele>
        <time>2013-09-06T11:31:32Z</time>
      </trkpt>
      <trkpt lat="-20.99332" lon="55.37841">
        <ele>643</ele>
        <time>2013-09-06T11:31:52Z</time>
      </trkpt>
      <trkpt lat="-20.99331" lon="55.37827">
        <ele>642</ele>
        <time>2013-09-06T11:32:04Z</time>
      </trkpt>
      <trkpt lat="-20.9933" lon="55.37815">
        <ele>644</ele>
        <time>2013-09-06T11:32:19Z</time>
      </trkpt>
      <trkpt lat="-20.99313" lon="55.37812">
        <ele>646</ele>
        <time>2013-09-06T11:32:27Z</time>
      </trkpt>
      <trkpt lat="-20.99305" lon="55.37809">
        <ele>648.7</ele>
        <time>2013-09-06T11:32:43Z</time>
      </trkpt>
      <trkpt lat="-20.99298" lon="55.3781">
        <ele>648.1</ele>
        <time>2013-09-06T11:32:46Z</time>
      </trkpt>
      <trkpt lat="-20.99292" lon="55.37811">
        <ele>648.8</ele>
        <time>2013-09-06T11:32:48Z</time>
      </trkpt>
      <trkpt lat="-20.99277" lon="55.3781">
        <ele>648</ele>
        <time>2013-09-06T11:32:53Z</time>
      </trkpt>
      <trkpt lat="-20.99275" lon="55.37796">
        <ele>647</ele>
        <time>2013-09-06T11:33:08Z</time>
      </trkpt>
      <trkpt lat="-20.99267" lon="55.37788">
        <ele>649</ele>
        <time>2013-09-06T11:33:27Z</time>
      </trkpt>
      <trkpt lat="-20.99277" lon="55.37772">
        <ele>651</ele>
        <time>2013-09-06T11:33:36Z</time>
      </trkpt>
      <trkpt lat="-20.99283" lon="55.37759">
        <ele>654</ele>
        <time>2013-09-06T11:33:49Z</time>
      </trkpt>
      <trkpt lat="-20.99287" lon="55.3774">
        <ele>657</ele>
        <time>2013-09-06T11:34:05Z</time>
      </trkpt>
      <trkpt lat="-20.99281" lon="55.37734">
        <ele>658.1</ele>
        <time>2013-09-06T11:34:24Z</time>
      </trkpt>
      <trkpt lat="-20.99273" lon="55.37733">
        <ele>655.2</ele>
        <time>2013-09-06T11:34:35Z</time>
      </trkpt>
      <trkpt lat="-20.99267" lon="55.37726">
        <ele>652</ele>
        <time>2013-09-06T11:34:46Z</time>
      </trkpt>
      <trkpt lat="-20.99249" lon="55.37746">
        <ele>649</ele>
        <time>2013-09-06T11:34:58Z</time>
      </trkpt>
      <trkpt lat="-20.99236" lon="55.37758">
        <ele>647</ele>
        <time>2013-09-06T11:35:16Z</time>
      </trkpt>
      <trkpt lat="-20.99222" lon="55.3775">
        <ele>647</ele>
        <time>2013-09-06T11:35:33Z</time>
      </trkpt>
      <trkpt lat="-20.99202" lon="55.37752">
        <ele>646</ele>
        <time>2013-09-06T11:35:49Z</time>
      </trkpt>
      <trkpt lat="-20.99189" lon="55.37753">
        <ele>646</ele>
        <time>2013-09-06T11:35:57Z</time>
      </trkpt>
      <trkpt lat="-20.99181" lon="55.37745">
        <ele>646</ele>
        <time>2013-09-06T11:36:17Z</time>
      </trkpt>
      <trkpt lat="-20.99168" lon="55.37748">
        <ele>647</ele>
        <time>2013-09-06T11:36:29Z</time>
      </trkpt>
      <trkpt lat="-20.99154" lon="55.37749">
        <ele>644</ele>
        <time>2013-09-06T11:36:41Z</time>
      </trkpt>
      <trkpt lat="-20.99145" lon="55.3775">
        <ele>642</ele>
        <time>2013-09-06T11:36:49Z</time>
      </trkpt>
      <trkpt lat="-20.99136" lon="55.37756">
        <ele>643</ele>
        <time>2013-09-06T11:36:57Z</time>
      </trkpt>
      <trkpt lat="-20.99126" lon="55.37762">
        <ele>642</ele>
        <time>2013-09-06T11:37:05Z</time>
      </trkpt>
      <trkpt lat="-20.99117" lon="55.37767">
        <ele>640</ele>
        <time>2013-09-06T11:37:11Z</time>
      </trkpt>
      <trkpt lat="-20.99106" lon="55.37769">
        <ele>637</ele>
        <time>2013-09-06T11:37:27Z</time>
      </trkpt>
      <trkpt lat="-20.99099" lon="55.37761">
        <ele>633</ele>
        <time>2013-09-06T11:37:41Z</time>
      </trkpt>
      <trkpt lat="-20.99107" lon="55.37738">
        <ele>635</ele>
        <time>2013-09-06T11:38:01Z</time>
      </trkpt>
      <trkpt lat="-20.99093" lon="55.37753">
        <ele>634</ele>
        <time>2013-09-06T11:38:13Z</time>
      </trkpt>
      <trkpt lat="-20.9908" lon="55.37756">
        <ele>632</ele>
        <time>2013-09-06T11:38:29Z</time>
      </trkpt>
      <trkpt lat="-20.99062" lon="55.37745">
        <ele>634</ele>
        <time>2013-09-06T11:38:44Z</time>
      </trkpt>
      <trkpt lat="-20.99053" lon="55.37732">
        <ele>636</ele>
        <time>2013-09-06T11:39:00Z</time>
      </trkpt>
      <trkpt lat="-20.99072" lon="55.37709">
        <ele>637</ele>
        <time>2013-09-06T11:39:06Z</time>
      </trkpt>
      <trkpt lat="-20.99058" lon="55.37706">
        <ele>637.6</ele>
        <time>2013-09-06T11:39:15Z</time>
      </trkpt>
      <trkpt lat="-20.99048" lon="55.37704">
        <ele>637.4</ele>
        <time>2013-09-06T11:39:21Z</time>
      </trkpt>
      <trkpt lat="-20.99036" lon="55.37695">
        <ele>636</ele>
        <time>2013-09-06T11:39:47Z</time>
      </trkpt>
      <trkpt lat="-20.99026" lon="55.37698">
        <ele>636</ele>
        <time>2013-09-06T11:39:55Z</time>
      </trkpt>
      <trkpt lat="-20.98997" lon="55.37702">
        <ele>632</ele>
        <time>2013-09-06T11:40:27Z</time>
      </trkpt>
      <trkpt lat="-20.98999" lon="55.37685">
        <ele>632</ele>
        <time>2013-09-06T11:40:38Z</time>
      </trkpt>
      <trkpt lat="-20.99006" lon="55.37675">
        <ele>631</ele>
        <time>2013-09-06T11:41:00Z</time>
      </trkpt>
      <trkpt lat="-20.99005" lon="55.37664">
        <ele>630</ele>
        <time>2013-09-06T11:41:08Z</time>
      </trkpt>
      <trkpt lat="-20.99004" lon="55.37654">
        <ele>629</ele>
        <time>2013-09-06T11:41:28Z</time>
      </trkpt>
      <trkpt lat="-20.98993" lon="55.37639">
        <ele>632</ele>
        <time>2013-09-06T11:41:45Z</time>
      </trkpt>
      <trkpt lat="-20.98983" lon="55.37647">
        <ele>633</ele>
        <time>2013-09-06T11:41:51Z</time>
      </trkpt>
      <trkpt lat="-20.98964" lon="55.37653">
        <ele>634</ele>
        <time>2013-09-06T11:41:58Z</time>
      </trkpt>
      <trkpt lat="-20.9895" lon="55.37644">
        <ele>634</ele>
        <time>2013-09-06T11:42:06Z</time>
      </trkpt>
      <trkpt lat="-20.98952" lon="55.37633">
        <ele>634</ele>
        <time>2013-09-06T11:42:12Z</time>
      </trkpt>
      <trkpt lat="-20.98959" lon="55.37619">
        <ele>635</ele>
        <time>2013-09-06T11:42:16Z</time>
      </trkpt>
      <trkpt lat="-20.98963" lon="55.37607">
        <ele>636</ele>
        <time>2013-09-06T11:42:20Z</time>
      </trkpt>
      <trkpt lat="-20.9897" lon="55.37598">
        <ele>638</ele>
        <time>2013-09-06T11:42:35Z</time>
      </trkpt>
      <trkpt lat="-20.98968" lon="55.37589">
        <ele>638</ele>
        <time>2013-09-06T11:42:43Z</time>
      </trkpt>
      <trkpt lat="-20.98959" lon="55.37583">
        <ele>638</ele>
        <time>2013-09-06T11:42:49Z</time>
      </trkpt>
      <trkpt lat="-20.98954" lon="55.37569">
        <ele>639</ele>
        <time>2013-09-06T11:43:01Z</time>
      </trkpt>
      <trkpt lat="-20.98946" lon="55.37566">
        <ele>641</ele>
        <time>2013-09-06T11:43:09Z</time>
      </trkpt>
      <trkpt lat="-20.98937" lon="55.37563">
        <ele>642</ele>
        <time>2013-09-06T11:43:13Z</time>
      </trkpt>
      <trkpt lat="-20.98951" lon="55.37565">
        <ele>645</ele>
        <time>2013-09-06T11:43:25Z</time>
      </trkpt>
      <trkpt lat="-20.9895" lon="55.37554">
        <ele>647</ele>
        <time>2013-09-06T11:43:31Z</time>
      </trkpt>
      <trkpt lat="-20.98954" lon="55.37546">
        <ele>657</ele>
        <time>2013-09-06T11:44:26Z</time>
      </trkpt>
      <trkpt lat="-20.98944" lon="55.37541">
        <ele>659</ele>
        <time>2013-09-06T11:44:34Z</time>
      </trkpt>
      <trkpt lat="-20.98944" lon="55.3753">
        <ele>660</ele>
        <time>2013-09-06T11:44:42Z</time>
      </trkpt>
      <trkpt lat="-20.98931" lon="55.37529">
        <ele>664</ele>
        <time>2013-09-06T11:44:58Z</time>
      </trkpt>
      <trkpt lat="-20.98925" lon="55.37537">
        <ele>665</ele>
        <time>2013-09-06T11:45:06Z</time>
      </trkpt>
      <trkpt lat="-20.98916" lon="55.37535">
        <ele>666</ele>
        <time>2013-09-06T11:45:14Z</time>
      </trkpt>
      <trkpt lat="-20.98905" lon="55.37533">
        <ele>668</ele>
        <time>2013-09-06T11:45:22Z</time>
      </trkpt>
      <trkpt lat="-20.98897" lon="55.37524">
        <ele>670</ele>
        <time>2013-09-06T11:45:34Z</time>
      </trkpt>
      <trkpt lat="-20.98892" lon="55.37508">
        <ele>674</ele>
        <time>2013-09-06T11:46:01Z</time>
      </trkpt>
      <trkpt lat="-20.98908" lon="55.37523">
        <ele>676</ele>
        <time>2013-09-06T11:46:11Z</time>
      </trkpt>
      <trkpt lat="-20.9892" lon="55.37525">
        <ele>677</ele>
        <time>2013-09-06T11:46:17Z</time>
      </trkpt>
      <trkpt lat="-20.98909" lon="55.37539">
        <ele>678</ele>
        <time>2013-09-06T11:46:27Z</time>
      </trkpt>
      <trkpt lat="-20.98917" lon="55.37524">
        <ele>684</ele>
        <time>2013-09-06T11:46:51Z</time>
      </trkpt>
      <trkpt lat="-20.98909" lon="55.37548">
        <ele>687</ele>
        <time>2013-09-06T11:47:05Z</time>
      </trkpt>
      <trkpt lat="-20.98901" lon="55.37551">
        <ele>689.3</ele>
        <time>2013-09-06T11:47:10Z</time>
      </trkpt>
      <trkpt lat="-20.9891" lon="55.37537">
        <ele>690</ele>
        <time>2013-09-06T11:47:19Z</time>
      </trkpt>
      <trkpt lat="-20.98925" lon="55.37506">
        <ele>691</ele>
        <time>2013-09-06T11:47:27Z</time>
      </trkpt>
      <trkpt lat="-20.98935" lon="55.37487">
        <ele>693</ele>
        <time>2013-09-06T11:47:36Z</time>
      </trkpt>
      <trkpt lat="-20.98929" lon="55.37496">
        <ele>694</ele>
        <time>2013-09-06T11:47:43Z</time>
      </trkpt>
      <trkpt lat="-20.9892" lon="55.37506">
        <ele>695</ele>
        <time>2013-09-06T11:47:47Z</time>
      </trkpt>
      <trkpt lat="-20.98912" lon="55.37518">
        <ele>696</ele>
        <time>2013-09-06T11:47:52Z</time>
      </trkpt>
      <trkpt lat="-20.98904" lon="55.37528">
        <ele>696</ele>
        <time>2013-09-06T11:47:57Z</time>
      </trkpt>
      <trkpt lat="-20.98905" lon="55.37538">
        <ele>697.7</ele>
        <time>2013-09-06T11:48:06Z</time>
      </trkpt>
      <trkpt lat="-20.9891" lon="55.37564">
        <ele>704</ele>
        <time>2013-09-06T11:48:41Z</time>
      </trkpt>
      <trkpt lat="-20.98903" lon="55.3757">
        <ele>709</ele>
        <time>2013-09-06T11:49:02Z</time>
      </trkpt>
      <trkpt lat="-20.98906" lon="55.37554">
        <ele>711</ele>
        <time>2013-09-06T11:49:20Z</time>
      </trkpt>
      <trkpt lat="-20.98896" lon="55.37547">
        <ele>713</ele>
        <time>2013-09-06T11:49:28Z</time>
      </trkpt>
      <trkpt lat="-20.9888" lon="55.37576">
        <ele>715</ele>
        <time>2013-09-06T11:49:40Z</time>
      </trkpt>
      <trkpt lat="-20.98887" lon="55.37563">
        <ele>716</ele>
        <time>2013-09-06T11:49:47Z</time>
      </trkpt>
      <trkpt lat="-20.98877" lon="55.37567">
        <ele>719</ele>
        <time>2013-09-06T11:49:59Z</time>
      </trkpt>
      <trkpt lat="-20.9887" lon="55.37582">
        <ele>721</ele>
        <time>2013-09-06T11:50:07Z</time>
      </trkpt>
      <trkpt lat="-20.98879" lon="55.37586">
        <ele>726</ele>
        <time>2013-09-06T11:50:32Z</time>
      </trkpt>
      <trkpt lat="-20.98875" lon="55.37596">
        <ele>728</ele>
        <time>2013-09-06T11:50:47Z</time>
      </trkpt>
      <trkpt lat="-20.9889" lon="55.3759">
        <ele>731</ele>
        <time>2013-09-06T11:50:58Z</time>
      </trkpt>
      <trkpt lat="-20.98879" lon="55.37595">
        <ele>733</ele>
        <time>2013-09-06T11:51:06Z</time>
      </trkpt>
      <trkpt lat="-20.98875" lon="55.37586">
        <ele>740</ele>
        <time>2013-09-06T11:51:32Z</time>
      </trkpt>
      <trkpt lat="-20.98866" lon="55.37579">
        <ele>739</ele>
        <time>2013-09-06T11:51:37Z</time>
      </trkpt>
      <trkpt lat="-20.98855" lon="55.37581">
        <ele>740</ele>
        <time>2013-09-06T11:51:41Z</time>
      </trkpt>
      <trkpt lat="-20.98846" lon="55.3759">
        <ele>741</ele>
        <time>2013-09-06T11:51:45Z</time>
      </trkpt>
      <trkpt lat="-20.98836" lon="55.37581">
        <ele>743</ele>
        <time>2013-09-06T11:51:59Z</time>
      </trkpt>
      <trkpt lat="-20.98826" lon="55.37574">
        <ele>745</ele>
        <time>2013-09-06T11:52:07Z</time>
      </trkpt>
      <trkpt lat="-20.9884" lon="55.37566">
        <ele>746</ele>
        <time>2013-09-06T11:52:18Z</time>
      </trkpt>
      <trkpt lat="-20.98838" lon="55.37581">
        <ele>750</ele>
        <time>2013-09-06T11:52:48Z</time>
      </trkpt>
      <trkpt lat="-20.98844" lon="55.37605">
        <ele>767</ele>
        <time>2013-09-06T11:54:02Z</time>
      </trkpt>
      <trkpt lat="-20.98857" lon="55.37604">
        <ele>770</ele>
        <time>2013-09-06T11:54:17Z</time>
      </trkpt>
      <trkpt lat="-20.98856" lon="55.37614">
        <ele>774</ele>
        <time>2013-09-06T11:54:30Z</time>
      </trkpt>
      <trkpt lat="-20.98865" lon="55.37619">
        <ele>776</ele>
        <time>2013-09-06T11:54:43Z</time>
      </trkpt>
      <trkpt lat="-20.98874" lon="55.37623">
        <ele>777</ele>
        <time>2013-09-06T11:54:50Z</time>
      </trkpt>
      <trkpt lat="-20.98895" lon="55.37618">
        <ele>779</ele>
        <time>2013-09-06T11:54:58Z</time>
      </trkpt>
      <trkpt lat="-20.98915" lon="55.37609">
        <ele>780</ele>
        <time>2013-09-06T11:55:06Z</time>
      </trkpt>
      <trkpt lat="-20.98845" lon="55.37605">
        <ele>782</ele>
        <time>2013-09-06T11:55:22Z</time>
      </trkpt>
      <trkpt lat="-20.98812" lon="55.37601">
        <ele>784</ele>
        <time>2013-09-06T11:55:51Z</time>
      </trkpt>
      <trkpt lat="-20.98793" lon="55.37623">
        <ele>787</ele>
        <time>2013-09-06T11:56:07Z</time>
      </trkpt>
      <trkpt lat="-20.98805" lon="55.37581">
        <ele>791</ele>
        <time>2013-09-06T11:56:23Z</time>
      </trkpt>
      <trkpt lat="-20.98793" lon="55.37593">
        <ele>793</ele>
        <time>2013-09-06T11:56:34Z</time>
      </trkpt>
      <trkpt lat="-20.98792" lon="55.3758">
        <ele>794</ele>
        <time>2013-09-06T11:56:42Z</time>
      </trkpt>
      <trkpt lat="-20.98778" lon="55.37579">
        <ele>794</ele>
        <time>2013-09-06T11:56:54Z</time>
      </trkpt>
      <trkpt lat="-20.98765" lon="55.37577">
        <ele>794</ele>
        <time>2013-09-06T11:57:06Z</time>
      </trkpt>
      <trkpt lat="-20.98748" lon="55.37587">
        <ele>796</ele>
        <time>2013-09-06T11:57:17Z</time>
      </trkpt>
      <trkpt lat="-20.98757" lon="55.37578">
        <ele>801</ele>
        <time>2013-09-06T11:57:44Z</time>
      </trkpt>
      <trkpt lat="-20.98739" lon="55.37622">
        <ele>816</ele>
        <time>2013-09-06T11:59:14Z</time>
      </trkpt>
      <trkpt lat="-20.98745" lon="55.37611">
        <ele>823</ele>
        <time>2013-09-06T11:59:48Z</time>
      </trkpt>
      <trkpt lat="-20.98734" lon="55.37608">
        <ele>827</ele>
        <time>2013-09-06T12:00:09Z</time>
      </trkpt>
      <trkpt lat="-20.98731" lon="55.37595">
        <ele>830</ele>
        <time>2013-09-06T12:00:28Z</time>
      </trkpt>
      <trkpt lat="-20.98731" lon="55.37586">
        <ele>832.5</ele>
        <time>2013-09-06T12:00:39Z</time>
      </trkpt>
      <trkpt lat="-20.98716" lon="55.37583">
        <ele>838</ele>
        <time>2013-09-06T12:01:17Z</time>
      </trkpt>
      <trkpt lat="-20.98707" lon="55.37581">
        <ele>839.6</ele>
        <time>2013-09-06T12:01:26Z</time>
      </trkpt>
      <trkpt lat="-20.98699" lon="55.37576">
        <ele>840</ele>
        <time>2013-09-06T12:01:37Z</time>
      </trkpt>
      <trkpt lat="-20.98674" lon="55.37578">
        <ele>842</ele>
        <time>2013-09-06T12:01:50Z</time>
      </trkpt>
      <trkpt lat="-20.98663" lon="55.3758">
        <ele>845</ele>
        <time>2013-09-06T12:02:04Z</time>
      </trkpt>
      <trkpt lat="-20.98663" lon="55.37565">
        <ele>847</ele>
        <time>2013-09-06T12:02:16Z</time>
      </trkpt>
      <trkpt lat="-20.98648" lon="55.37567">
        <ele>853</ele>
        <time>2013-09-06T12:02:48Z</time>
      </trkpt>
      <trkpt lat="-20.98635" lon="55.37584">
        <ele>853</ele>
        <time>2013-09-06T12:02:56Z</time>
      </trkpt>
      <trkpt lat="-20.98618" lon="55.37596">
        <ele>856</ele>
        <time>2013-09-06T12:03:04Z</time>
      </trkpt>
      <trkpt lat="-20.98668" lon="55.3758">
        <ele>865</ele>
        <time>2013-09-06T12:04:01Z</time>
      </trkpt>
      <trkpt lat="-20.98657" lon="55.37586">
        <ele>868</ele>
        <time>2013-09-06T12:04:35Z</time>
      </trkpt>
      <trkpt lat="-20.98624" lon="55.37601">
        <ele>873</ele>
        <time>2013-09-06T12:05:28Z</time>
      </trkpt>
      <trkpt lat="-20.98605" lon="55.37612">
        <ele>871</ele>
        <time>2013-09-06T12:05:44Z</time>
      </trkpt>
      <trkpt lat="-20.98588" lon="55.37612">
        <ele>869</ele>
        <time>2013-09-06T12:06:00Z</time>
      </trkpt>
      <trkpt lat="-20.9857" lon="55.37605">
        <ele>868</ele>
        <time>2013-09-06T12:06:18Z</time>
      </trkpt>
      <trkpt lat="-20.98531" lon="55.3763">
        <ele>870</ele>
        <time>2013-09-06T12:06:31Z</time>
      </trkpt>
      <trkpt lat="-20.98522" lon="55.3764">
        <ele>872</ele>
        <time>2013-09-06T12:06:39Z</time>
      </trkpt>
      <trkpt lat="-20.98519" lon="55.37626">
        <ele>872</ele>
        <time>2013-09-06T12:06:47Z</time>
      </trkpt>
      <trkpt lat="-20.98504" lon="55.37618">
        <ele>874</ele>
        <time>2013-09-06T12:07:03Z</time>
      </trkpt>
      <trkpt lat="-20.98493" lon="55.37618">
        <ele>874</ele>
        <time>2013-09-06T12:07:11Z</time>
      </trkpt>
      <trkpt lat="-20.98481" lon="55.37606">
        <ele>876</ele>
        <time>2013-09-06T12:07:24Z</time>
      </trkpt>
      <trkpt lat="-20.98464" lon="55.37593">
        <ele>877</ele>
        <time>2013-09-06T12:07:42Z</time>
      </trkpt>
      <trkpt lat="-20.9848" lon="55.37568">
        <ele>877</ele>
        <time>2013-09-06T12:07:55Z</time>
      </trkpt>
      <trkpt lat="-20.98471" lon="55.37567">
        <ele>874</ele>
        <time>2013-09-06T12:08:10Z</time>
      </trkpt>
      <trkpt lat="-20.98459" lon="55.37573">
        <ele>873</ele>
        <time>2013-09-06T12:08:15Z</time>
      </trkpt>
      <trkpt lat="-20.98445" lon="55.37585">
        <ele>872</ele>
        <time>2013-09-06T12:08:22Z</time>
      </trkpt>
      <trkpt lat="-20.98422" lon="55.3755">
        <ele>873</ele>
        <time>2013-09-06T12:08:58Z</time>
      </trkpt>
      <trkpt lat="-20.98418" lon="55.37534">
        <ele>873</ele>
        <time>2013-09-06T12:09:15Z</time>
      </trkpt>
      <trkpt lat="-20.98388" lon="55.37532">
        <ele>876</ele>
        <time>2013-09-06T12:09:41Z</time>
      </trkpt>
      <trkpt lat="-20.98377" lon="55.37506">
        <ele>882</ele>
        <time>2013-09-06T12:10:19Z</time>
      </trkpt>
      <trkpt lat="-20.98354" lon="55.37519">
        <ele>883</ele>
        <time>2013-09-06T12:10:39Z</time>
      </trkpt>
      <trkpt lat="-20.98352" lon="55.37507">
        <ele>882</ele>
        <time>2013-09-06T12:10:47Z</time>
      </trkpt>
      <trkpt lat="-20.98345" lon="55.37497">
        <ele>881</ele>
        <time>2013-09-06T12:10:55Z</time>
      </trkpt>
      <trkpt lat="-20.98337" lon="55.3749">
        <ele>882</ele>
        <time>2013-09-06T12:11:07Z</time>
      </trkpt>
      <trkpt lat="-20.98322" lon="55.37483">
        <ele>883</ele>
        <time>2013-09-06T12:11:18Z</time>
      </trkpt>
      <trkpt lat="-20.98312" lon="55.37481">
        <ele>883</ele>
        <time>2013-09-06T12:11:44Z</time>
      </trkpt>
      <trkpt lat="-20.98307" lon="55.37471">
        <ele>882</ele>
        <time>2013-09-06T12:11:56Z</time>
      </trkpt>
      <trkpt lat="-20.98306" lon="55.37461">
        <ele>881.7</ele>
        <time>2013-09-06T12:12:04Z</time>
      </trkpt>
      <trkpt lat="-20.98295" lon="55.37438">
        <ele>884</ele>
        <time>2013-09-06T12:12:26Z</time>
      </trkpt>
      <trkpt lat="-20.98316" lon="55.37448">
        <ele>887</ele>
        <time>2013-09-06T12:12:37Z</time>
      </trkpt>
      <trkpt lat="-20.98309" lon="55.37441">
        <ele>888.7</ele>
        <time>2013-09-06T12:12:42Z</time>
      </trkpt>
      <trkpt lat="-20.98305" lon="55.37434">
        <ele>889.3</ele>
        <time>2013-09-06T12:12:45Z</time>
      </trkpt>
      <trkpt lat="-20.98296" lon="55.37439">
        <ele>895</ele>
        <time>2013-09-06T12:13:25Z</time>
      </trkpt>
      <trkpt lat="-20.98287" lon="55.37432">
        <ele>899</ele>
        <time>2013-09-06T12:13:46Z</time>
      </trkpt>
      <trkpt lat="-20.98296" lon="55.37428">
        <ele>900</ele>
        <time>2013-09-06T12:13:54Z</time>
      </trkpt>
      <trkpt lat="-20.98283" lon="55.37431">
        <ele>903</ele>
        <time>2013-09-06T12:14:06Z</time>
      </trkpt>
      <trkpt lat="-20.98281" lon="55.37419">
        <ele>906</ele>
        <time>2013-09-06T12:14:25Z</time>
      </trkpt>
      <trkpt lat="-20.98284" lon="55.3741">
        <ele>906</ele>
        <time>2013-09-06T12:14:29Z</time>
      </trkpt>
      <trkpt lat="-20.98278" lon="55.37401">
        <ele>908</ele>
        <time>2013-09-06T12:14:37Z</time>
      </trkpt>
      <trkpt lat="-20.98266" lon="55.37398">
        <ele>911</ele>
        <time>2013-09-06T12:14:53Z</time>
      </trkpt>
      <trkpt lat="-20.98259" lon="55.37392">
        <ele>913</ele>
        <time>2013-09-06T12:15:01Z</time>
      </trkpt>
      <trkpt lat="-20.98252" lon="55.37386">
        <ele>913.3</ele>
        <time>2013-09-06T12:15:09Z</time>
      </trkpt>
      <trkpt lat="-20.98246" lon="55.37379">
        <ele>912.1</ele>
        <time>2013-09-06T12:15:18Z</time>
      </trkpt>
      <trkpt lat="-20.98238" lon="55.37382">
        <ele>911.8</ele>
        <time>2013-09-06T12:15:30Z</time>
      </trkpt>
      <trkpt lat="-20.9823" lon="55.37385">
        <ele>910.1</ele>
        <time>2013-09-06T12:15:40Z</time>
      </trkpt>
      <trkpt lat="-20.98222" lon="55.37387">
        <ele>908.7</ele>
        <time>2013-09-06T12:15:47Z</time>
      </trkpt>
      <trkpt lat="-20.98215" lon="55.37391">
        <ele>908.3</ele>
        <time>2013-09-06T12:15:56Z</time>
      </trkpt>
      <trkpt lat="-20.98207" lon="55.37394">
        <ele>909.4</ele>
        <time>2013-09-06T12:16:03Z</time>
      </trkpt>
      <trkpt lat="-20.98199" lon="55.37397">
        <ele>909.3</ele>
        <time>2013-09-06T12:16:10Z</time>
      </trkpt>
      <trkpt lat="-20.98191" lon="55.374">
        <ele>910.1</ele>
        <time>2013-09-06T12:16:18Z</time>
      </trkpt>
      <trkpt lat="-20.98183" lon="55.37403">
        <ele>913.1</ele>
        <time>2013-09-06T12:16:32Z</time>
      </trkpt>
      <trkpt lat="-20.98175" lon="55.37406">
        <ele>914.9</ele>
        <time>2013-09-06T12:16:42Z</time>
      </trkpt>
      <trkpt lat="-20.98174" lon="55.37415">
        <ele>916.1</ele>
        <time>2013-09-06T12:16:53Z</time>
      </trkpt>
      <trkpt lat="-20.98179" lon="55.37422">
        <ele>917</ele>
        <time>2013-09-06T12:17:04Z</time>
      </trkpt>
      <trkpt lat="-20.98184" lon="55.3743">
        <ele>916.9</ele>
        <time>2013-09-06T12:17:11Z</time>
      </trkpt>
      <trkpt lat="-20.98184" lon="55.37439">
        <ele>918.5</ele>
        <time>2013-09-06T12:17:22Z</time>
      </trkpt>
      <trkpt lat="-20.98185" lon="55.37447">
        <ele>918.9</ele>
        <time>2013-09-06T12:17:28Z</time>
      </trkpt>
      <trkpt lat="-20.9819" lon="55.37455">
        <ele>919.7</ele>
        <time>2013-09-06T12:17:35Z</time>
      </trkpt>
      <trkpt lat="-20.98195" lon="55.37463">
        <ele>921.6</ele>
        <time>2013-09-06T12:17:46Z</time>
      </trkpt>
      <trkpt lat="-20.98195" lon="55.37472">
        <ele>923.6</ele>
        <time>2013-09-06T12:17:54Z</time>
      </trkpt>
      <trkpt lat="-20.98201" lon="55.37479">
        <ele>924.2</ele>
        <time>2013-09-06T12:18:01Z</time>
      </trkpt>
      <trkpt lat="-20.98201" lon="55.37487">
        <ele>926</ele>
        <time>2013-09-06T12:18:12Z</time>
      </trkpt>
      <trkpt lat="-20.98205" lon="55.37495">
        <ele>927.6</ele>
        <time>2013-09-06T12:18:20Z</time>
      </trkpt>
      <trkpt lat="-20.98208" lon="55.37504">
        <ele>929.2</ele>
        <time>2013-09-06T12:18:28Z</time>
      </trkpt>
      <trkpt lat="-20.98213" lon="55.37512">
        <ele>931.3</ele>
        <time>2013-09-06T12:18:38Z</time>
      </trkpt>
      <trkpt lat="-20.9821" lon="55.3752">
        <ele>933.2</ele>
        <time>2013-09-06T12:18:46Z</time>
      </trkpt>
      <trkpt lat="-20.98208" lon="55.37528">
        <ele>934.2</ele>
        <time>2013-09-06T12:18:57Z</time>
      </trkpt>
      <trkpt lat="-20.98205" lon="55.37536">
        <ele>935</ele>
        <time>2013-09-06T12:19:04Z</time>
      </trkpt>
      <trkpt lat="-20.98208" lon="55.37545">
        <ele>936.7</ele>
        <time>2013-09-06T12:19:10Z</time>
      </trkpt>
      <trkpt lat="-20.98213" lon="55.37551">
        <ele>938.2</ele>
        <time>2013-09-06T12:19:15Z</time>
      </trkpt>
      <trkpt lat="-20.98218" lon="55.37559">
        <ele>938.5</ele>
        <time>2013-09-06T12:19:20Z</time>
      </trkpt>
      <trkpt lat="-20.98222" lon="55.37566">
        <ele>940.5</ele>
        <time>2013-09-06T12:19:28Z</time>
      </trkpt>
      <trkpt lat="-20.98217" lon="55.37574">
        <ele>941.9</ele>
        <time>2013-09-06T12:19:37Z</time>
      </trkpt>
      <trkpt lat="-20.98221" lon="55.37583">
        <ele>943.4</ele>
        <time>2013-09-06T12:19:45Z</time>
      </trkpt>
      <trkpt lat="-20.98224" lon="55.37592">
        <ele>944.6</ele>
        <time>2013-09-06T12:19:52Z</time>
      </trkpt>
      <trkpt lat="-20.98218" lon="55.37599">
        <ele>945.1</ele>
        <time>2013-09-06T12:20:00Z</time>
      </trkpt>
      <trkpt lat="-20.98212" lon="55.37605">
        <ele>945.7</ele>
        <time>2013-09-06T12:20:10Z</time>
      </trkpt>
      <trkpt lat="-20.98204" lon="55.37608">
        <ele>945.3</ele>
        <time>2013-09-06T12:20:21Z</time>
      </trkpt>
      <trkpt lat="-20.98199" lon="55.37616">
        <ele>945.6</ele>
        <time>2013-09-06T12:20:28Z</time>
      </trkpt>
      <trkpt lat="-20.98199" lon="55.37617">
        <ele>945.6</ele>
        <time>2013-09-06T12:20:29Z</time>
      </trkpt>
      <trkpt lat="-20.98204" lon="55.37608">
        <ele>945.3</ele>
        <time>2013-09-06T12:20:21Z</time>
      </trkpt>
      <trkpt lat="-20.98199" lon="55.37616">
        <ele>945.5</ele>
        <time>2013-09-06T12:20:28Z</time>
      </trkpt>
      <trkpt lat="-20.98199" lon="55.37618">
        <ele>945.9</ele>
        <time>2013-09-06T12:20:30Z</time>
      </trkpt>
      <trkpt lat="-20.98199" lon="55.37618">
        <ele>945.9</ele>
        <time>2013-09-06T12:20:30Z</time>
      </trkpt>
    </trkseg>
  </trk>
</gpx>